GFSGBSN_500_spd_000.txt.gz
Wind_Speed
30 31 30 32 32 31 31 31 33 33 39 37 38 35 35 37 35 33 31 31 29 30 31 34 35 34 32 30 28 27 29 27 26 25 28 27 26 27 28 31 34 39 37 43 41 37 38
35 35 36 35 34 34 34 33 31 33 36 40 34 40 35 37 37 35 33 31 31 29 29 30 31 31 30 28 27 25 23 25 25 24 25 26 26 28 28 28 32 35 38 36 43 43 42
36 36 36 37 39 39 36 36 37 35 35 41 38 37 43 36 39 38 35 32 31 30 28 27 28 28 27 27 24 22 23 25 25 24 24 26 26 27 28 29 33 34 35 37 35 39 43
38 38 38 38 39 40 41 41 40 40 38 33 44 39 39 43 39 40 38 35 33 31 28 27 26 26 24 23 21 22 22 21 22 24 25 24 27 29 33 32 33 36 38 37 36 39 44
41 42 43 43 44 44 44 45 43 43 41 41 39 45 42 42 44 39 41 39 36 34 31 27 27 26 24 23 22 22 21 21 22 23 25 26 28 30 33 35 35 35 38 39 40 43 45
46 47 48 52 55 54 53 52 52 47 44 44 44 45 48 44 45 46 42 42 40 36 33 30 28 27 26 25 25 23 24 23 22 22 24 27 30 32 35 36 37 39 42 43 44 45 48
53 56 58 58 62 65 65 61 55 52 50 47 49 48 51 49 46 48 46 42 42 41 35 33 31 30 28 27 26 25 25 23 23 24 26 28 31 33 35 37 40 45 45 47 47 47 47
59 61 63 68 72 73 70 67 59 54 51 51 53 54 54 55 51 48 48 46 42 42 41 38 34 32 30 29 28 28 27 27 29 29 31 33 33 33 37 41 43 45 48 49 50 49 49
62 65 71 76 81 75 65 60 60 55 53 52 56 57 60 58 55 53 45 47 46 43 42 40 38 35 34 33 32 31 32 33 34 35 36 37 36 38 42 44 46 47 49 50 53 53 53
65 69 78 82 77 67 61 53 49 49 44 50 57 61 63 62 58 57 51 46 45 43 44 40 39 38 38 37 36 36 37 38 38 39 41 41 40 45 48 51 53 54 53 55 55 56 56
69 79 84 78 69 66 60 53 44 41 40 45 52 60 63 63 54 58 54 48 46 41 47 42 39 36 35 35 35 34 37 39 39 41 43 45 48 52 54 55 57 58 56 57 56 58 59
75 86 87 76 70 65 53 38 29 27 34 38 46 55 51 54 49 47 49 51 50 46 43 40 39 36 34 34 34 34 35 36 38 41 44 49 55 60 59 55 57 57 57 59 59 60 63
82 91 82 74 69 56 37 20 9 13 24 35 42 52 63 60 49 51 42 55 52 50 43 37 32 33 34 34 34 35 37 37 37 43 49 52 53 59 58 56 56 55 54 54 55 59 62
86 90 76 70 65 42 16 4 9 16 16 28 40 47 59 62 45 53 47 52 55 50 43 37 32 29 29 32 34 31 30 34 41 45 48 47 54 51 44 43 43 43 42 46 50 54 58
86 89 73 65 55 25 11 9 9 11 16 22 41 54 64 59 51 45 48 51 52 45 42 37 33 30 30 33 29 28 31 34 42 44 43 45 46 42 31 32 33 32 38 35 39 43 50
87 88 71 62 48 25 12 6 13 13 5 13 50 48 55 46 48 47 41 42 43 44 41 39 33 28 33 26 25 29 32 37 40 35 38 36 42 36 26 28 28 25 32 32 40 41 44
88 86 72 60 45 22 13 7 12 1 1 25 50 54 56 51 45 49 40 32 36 42 40 37 32 31 27 22 26 30 32 33 27 28 29 32 39 33 33 22 26 29 30 32 36 38 37
88 83 73 58 42 23 15 5 6 5 6 27 54 50 57 58 45 44 36 32 34 38 38 36 34 33 21 24 27 30 26 22 18 21 26 27 30 28 24 22 23 26 32 31 34 35 39
87 83 72 54 37 19 5 4 14 3 6 44 34 47 53 43 39 33 32 30 35 37 35 37 35 27 22 25 26 23 16 18 17 23 28 29 29 27 26 23 21 28 28 24 23 28 28
87 83 66 47 29 13 8 15 11 7 19 44 31 39 49 41 38 23 23 28 36 34 34 32 29 24 24 23 22 11 12 13 17 20 23 28 28 28 32 29 27 23 18 18 27 23 15
85 80 57 38 14 6 17 17 13 11 27 29 24 36 41 36 28 22 25 29 27 24 27 27 24 22 21 21 15 6 7 8 15 15 16 20 21 27 29 23 23 17 14 9 11 9 13
82 73 48 26 10 16 18 20 7 10 38 31 33 40 41 34 24 24 23 22 21 23 23 22 19 21 19 15 7 7 10 8 9 13 13 14 20 17 12 6 7 9 2 4 6 10 13
79 67 44 16 6 12 9 8 14 37 33 34 32 28 30 27 21 18 18 17 18 19 17 18 15 17 15 7 8 11 11 11 7 8 11 16 15 13 17 16 11 5 6 9 12 14 14
76 65 42 16 4 3 16 13 26 25 25 21 30 28 25 33 19 18 18 19 15 14 14 14 12 12 10 6 11 16 14 4 4 11 11 13 11 13 12 20 19 11 5 8 7 13 22
72 66 36 18 4 5 19 28 20 26 20 23 24 22 31 23 27 20 15 15 14 13 13 14 11 8 8 8 11 16 13 10 1 6 6 11 13 14 16 16 17 28 19 19 18 31 32
68 64 44 12 8 13 22 23 25 27 27 28 22 24 23 29 25 25 20 13 15 14 15 11 11 10 9 9 9 11 18 12 9 2 2 1 8 9 12 12 15 20 28 22 24 28 21
67 64 49 12 27 23 27 28 25 26 26 29 24 23 23 23 27 25 21 13 16 14 14 11 10 11 12 11 10 11 20 22 15 10 8 3 4 6 8 7 7 9 13 14 14 13 14
67 67 58 22 35 38 34 29 30 32 30 28 20 21 32 20 21 20 18 22 19 15 14 13 11 10 10 14 13 13 16 19 16 15 12 8 6 5 5 7 8 7 7 10 10 12 12
67 69 61 37 12 47 45 39 34 34 29 23 25 27 25 28 26 23 20 17 17 15 13 15 13 15 11 13 12 18 14 16 19 18 16 13 9 7 7 7 7 6 7 8 8 8 8

GFSGBSN_500_spd_003.txt.gz
Wind_Speed
32 31 31 32 33 33 32 31 30 31 29 31 33 32 38 36 38 35 34 34 34 33 33 33 34 37 37 36 36 36 39 36 34 30 30 30 29 27 24 23 23 25 26 26 27 32 32
37 37 36 35 35 35 37 36 35 34 33 33 35 34 39 38 41 35 34 35 34 32 32 32 32 33 34 34 35 33 35 33 30 29 29 30 27 25 23 22 24 25 25 26 26 28 31
36 36 37 37 37 38 37 38 39 38 37 37 36 37 34 43 37 40 34 37 34 32 31 31 30 30 32 33 33 32 32 32 30 29 27 27 26 25 25 26 25 25 27 27 26 27 29
38 39 41 42 42 42 42 43 43 42 43 41 37 37 36 41 41 38 38 36 36 33 32 30 28 27 28 30 31 31 31 30 28 26 26 25 24 24 24 24 25 27 27 26 28 30 30
43 45 46 46 46 47 48 49 49 49 50 47 45 37 39 37 45 39 40 37 38 35 33 29 28 25 25 28 27 27 26 26 26 24 23 23 23 25 27 26 27 26 29 30 32 33 33
49 50 52 51 50 54 58 63 64 62 53 49 48 45 41 41 45 43 38 43 37 38 33 30 28 27 25 25 25 25 23 23 22 22 21 22 24 25 26 25 28 32 36 36 37 37 38
51 52 52 53 56 60 65 68 71 70 60 47 50 48 45 46 47 48 47 44 41 37 35 34 31 29 26 27 25 24 23 21 20 20 21 24 26 23 26 29 32 35 37 41 42 43 43
52 53 55 58 63 69 73 72 65 60 59 47 48 54 55 52 53 52 50 44 42 40 38 38 34 31 29 27 26 25 24 20 20 21 23 24 25 26 29 32 35 37 40 42 43 45 49
54 55 58 62 71 78 74 67 63 58 50 49 42 55 61 60 59 55 53 47 39 45 43 40 38 34 33 30 28 26 24 24 25 24 26 28 30 32 36 39 41 43 45 48 50 50 51
57 59 65 73 82 81 72 63 50 42 32 36 39 49 59 63 63 59 55 49 41 42 47 41 40 39 36 32 31 29 27 27 27 29 31 34 35 38 40 43 45 47 50 53 56 58 57
60 64 73 81 84 76 71 54 44 26 19 22 35 45 52 60 62 55 49 50 43 42 46 47 42 37 36 36 34 31 31 31 32 33 34 36 38 41 44 44 50 53 56 59 62 64 64
63 70 79 87 81 74 63 47 12 9 9 13 25 40 45 54 53 52 49 39 44 48 47 45 43 37 35 34 31 31 30 28 29 32 35 36 41 42 45 50 51 55 60 63 66 67 71
68 75 84 88 79 64 48 30 6 13 14 14 17 38 44 52 59 52 47 45 44 46 47 40 37 37 33 31 29 29 29 30 33 35 37 39 39 43 46 48 52 57 56 56 57 64 70
72 80 88 89 68 53 33 10 16 22 8 9 18 29 43 54 60 49 45 56 44 45 47 38 31 31 30 29 27 30 32 32 32 32 36 39 40 43 45 47 47 50 51 47 45 47 47
74 83 91 86 59 45 26 2 16 12 16 14 18 20 40 53 66 50 42 56 42 36 39 41 34 30 27 25 26 28 27 24 28 32 34 38 42 41 35 37 38 41 51 34 41 40 40
76 85 93 82 54 42 25 8 9 19 4 18 15 16 40 60 57 46 47 41 40 39 39 39 35 31 27 27 29 26 24 25 26 29 35 36 30 27 30 37 39 43 49 32 35 39 44
77 88 93 74 53 39 23 17 12 12 16 8 14 18 46 68 58 51 46 49 40 31 36 41 36 30 29 33 29 23 21 23 25 30 28 26 26 27 32 37 39 39 42 34 35 39 37
77 87 90 70 49 35 18 11 13 12 13 8 7 19 50 52 51 38 44 44 43 31 35 37 36 36 35 33 27 20 21 25 28 22 18 23 28 23 23 34 37 38 35 35 31 37 39
76 85 87 65 45 31 12 8 10 14 9 9 21 27 46 47 55 37 36 37 35 29 31 36 37 35 37 30 22 20 20 25 17 15 15 20 22 25 27 30 32 34 30 25 26 34 23
72 80 84 57 38 30 20 19 14 15 18 15 26 20 45 38 37 36 33 36 30 26 27 34 35 35 32 21 21 18 21 15 8 13 15 16 14 21 24 29 35 33 27 22 23 18 16
71 77 81 50 28 25 21 17 17 25 34 22 16 27 43 32 30 33 35 26 25 23 27 30 32 32 26 20 21 18 17 5 6 12 15 14 11 16 16 15 19 25 17 11 8 4 3
70 74 76 51 21 22 19 17 17 31 27 26 17 27 38 32 26 21 24 26 22 21 21 21 24 27 20 20 18 15 13 6 5 9 10 9 8 14 14 12 10 12 6 6 3 7 8
68 72 74 55 25 11 16 10 25 26 28 24 17 31 38 29 26 18 15 19 20 19 17 18 20 19 18 15 15 17 14 8 6 3 5 9 12 10 16 22 20 11 6 3 4 8 7
67 69 73 59 23 14 11 15 27 24 23 19 23 34 35 27 19 18 19 21 20 19 17 16 15 16 14 13 15 16 12 6 3 3 8 11 10 10 17 22 27 17 10 8 4 4 11
65 67 72 66 19 9 7 14 22 16 18 21 21 25 33 23 23 26 24 17 17 19 15 15 13 9 11 14 13 12 12 9 4 2 4 7 7 10 19 17 18 16 16 18 15 13 14
65 64 68 67 20 4 11 21 22 15 20 19 20 31 19 28 23 19 15 15 16 17 16 13 9 9 9 14 11 10 14 14 8 2 2 3 3 5 7 12 20 21 20 22 23 24 23
65 62 64 66 34 12 17 21 20 26 17 21 17 18 24 26 22 19 14 13 15 15 12 9 8 9 9 15 12 11 13 18 12 7 6 3 1 2 2 7 9 11 14 15 11 14 19
64 60 60 65 42 8 26 26 18 22 25 19 19 23 20 18 24 21 17 14 13 15 12 11 11 10 9 10 12 9 13 22 17 13 14 10 7 6 5 4 5 7 7 6 4 7 12
63 59 57 62 50 17 26 35 28 25 26 27 23 17 21 19 19 19 21 16 11 15 13 14 16 16 14 12 11 11 15 21 26 22 19 18 12 8 6 8 7 6 6 6 4 4 3

GFSGBSN_500_spd_006.txt.gz
Wind_Speed
38 35 32 32 30 29 30 32 34 32 31 32 30 29 31 32 32 39 34 36 34 32 32 31 32 35 38 42 40 40 41 40 42 43 42 38 36 36 35 32 29 29 26 25 25 26 28
36 35 35 35 36 35 36 35 35 34 37 35 35 34 32 33 34 34 37 33 35 32 32 30 31 33 35 39 39 40 40 39 41 41 39 37 35 35 33 31 31 28 25 24 23 25 27
39 39 39 39 39 39 38 37 37 36 37 38 41 40 38 35 35 36 35 34 36 33 33 31 31 33 33 38 37 37 38 37 38 40 38 37 36 35 33 33 32 30 27 25 23 24 25
43 43 44 45 45 44 45 44 42 43 44 44 47 45 44 43 38 39 37 37 36 33 34 32 32 31 31 34 35 36 38 38 37 37 36 36 35 34 33 34 33 32 29 26 24 25 27
44 45 47 47 45 47 48 48 50 53 55 54 56 54 51 48 42 40 40 37 35 36 35 34 31 30 29 30 32 34 35 35 35 35 35 34 33 33 33 33 32 30 30 29 30 30 30
47 47 49 49 50 50 54 56 61 64 68 72 64 57 56 53 50 46 43 41 39 38 37 35 31 29 28 26 28 30 32 33 33 33 32 32 31 30 29 28 29 29 29 29 30 30 32
51 50 50 50 53 58 63 71 78 81 75 64 58 48 49 53 56 53 45 46 47 40 37 34 33 31 28 26 26 28 30 30 30 29 27 28 27 24 25 26 26 27 30 33 34 34 37
55 54 52 55 61 68 74 81 81 70 63 58 52 48 44 54 60 50 50 50 43 37 37 38 36 32 30 27 25 26 27 26 24 24 25 25 25 25 22 23 27 29 31 34 38 40 41
60 58 59 65 71 78 86 75 66 61 50 40 33 32 42 54 61 60 56 52 44 38 38 40 39 35 32 30 26 25 24 23 22 22 23 24 24 22 24 26 30 32 36 40 44 47 49
65 63 67 73 80 88 77 64 55 45 33 19 17 23 40 51 55 59 55 52 40 41 32 40 39 37 34 31 28 26 24 23 23 24 23 23 25 26 28 32 37 39 41 45 49 52 55
70 68 72 79 88 82 66 51 40 24 16 15 15 20 39 46 52 56 59 48 52 45 35 41 44 39 37 34 29 27 26 25 25 25 24 26 27 31 34 37 39 42 46 49 53 56 60
73 72 77 85 93 75 58 45 13 11 17 19 23 20 35 44 46 65 62 56 47 43 40 40 42 40 38 36 32 29 28 27 27 27 27 29 30 32 36 38 43 48 51 54 57 58 62
79 76 81 89 94 70 53 25 7 6 11 20 14 17 24 43 44 65 61 52 48 46 41 33 35 39 36 34 34 32 31 29 28 28 27 30 33 36 37 41 45 48 52 54 56 56 57
81 79 84 92 91 64 46 5 5 7 13 20 19 17 13 34 49 72 59 55 52 52 45 29 31 34 35 33 32 29 29 27 27 29 31 34 32 32 37 41 46 47 43 43 45 50 47
82 81 85 92 90 61 41 5 7 2 11 16 25 13 14 36 48 65 51 54 46 43 37 35 34 31 30 35 30 26 25 27 31 33 32 29 29 31 36 37 39 41 42 41 46 46 46
83 82 86 92 86 57 37 9 9 5 2 14 11 8 19 38 56 63 54 45 43 37 36 35 31 30 26 28 29 28 28 29 27 25 24 26 30 28 29 33 37 40 39 41 41 46 49
83 82 85 92 76 53 31 18 18 11 6 11 4 2 20 50 67 50 41 38 40 36 38 36 33 31 29 28 28 28 27 23 22 21 22 26 26 22 25 30 34 35 34 34 41 46 53
82 83 83 89 61 48 26 15 9 12 16 15 11 9 35 61 48 48 38 37 35 34 26 26 31 37 31 29 30 30 25 18 18 18 21 25 21 21 21 22 27 32 32 35 42 41 43
79 83 81 86 52 40 32 7 8 15 18 16 18 12 41 51 42 45 37 28 27 33 25 30 30 35 33 32 30 23 19 18 17 17 19 19 18 20 15 19 24 23 26 30 28 32 29
76 81 79 83 54 32 25 14 20 26 26 16 17 16 42 45 33 35 34 35 31 31 28 29 33 36 39 36 29 21 20 18 12 18 14 14 17 15 15 19 24 26 27 24 24 25 18
73 78 76 81 57 24 18 20 28 23 20 16 11 29 51 31 34 28 32 31 28 30 28 28 31 34 33 30 23 20 19 13 16 15 10 10 5 6 13 18 21 24 22 23 25 17 15
69 75 73 77 57 22 15 24 18 18 20 12 19 45 29 36 27 23 27 30 29 28 26 27 31 30 26 20 20 17 16 13 15 9 6 3 3 5 10 14 17 17 14 19 19 16 13
66 71 71 72 60 17 12 16 15 16 20 15 29 34 29 23 25 19 22 24 21 20 19 24 26 20 17 15 18 18 14 15 12 7 3 4 1 1 6 11 16 16 16 12 11 11 11
61 67 69 66 61 17 3 7 14 12 10 13 30 35 25 24 24 26 26 21 16 16 17 17 13 14 15 16 17 18 16 14 12 7 1 3 3 6 9 8 16 17 13 11 11 10 6
57 63 65 61 59 24 5 1 8 9 8 8 19 24 22 19 17 16 16 18 19 18 17 17 15 15 15 16 17 15 15 15 12 8 4 1 3 10 13 11 12 11 12 12 11 14 6
53 59 61 58 57 33 8 10 8 8 6 7 18 25 21 17 16 18 23 24 24 21 19 18 15 13 14 16 16 13 16 17 14 9 6 3 1 4 4 7 9 8 13 14 17 16 13
50 55 57 57 51 46 13 15 18 14 12 13 16 25 21 18 19 22 17 21 24 22 19 15 8 11 11 14 16 15 19 21 19 13 10 6 6 2 1 1 3 5 7 8 9 14 13
48 52 54 54 51 49 33 21 24 22 22 14 16 25 22 21 20 18 18 18 21 22 21 16 11 9 8 11 15 18 21 23 24 17 11 8 6 4 3 3 4 3 2 5 5 6 7
46 49 52 53 51 49 51 20 33 35 32 27 23 19 23 25 19 21 19 16 18 22 19 16 12 9 8 9 10 21 21 25 27 23 15 12 11 9 7 7 7 6 6 7 8 5 2

GFSGBSN_500_spd_009.txt.gz
Wind_Speed
46 45 44 43 41 39 38 36 37 38 40 41 38 35 33 32 31 33 34 36 39 37 37 36 37 38 38 37 39 40 42 44 46 46 45 44 44 44 46 42 40 38 38 37 34 33 33
47 48 47 47 47 48 47 45 42 40 41 41 45 44 39 36 36 35 37 38 37 39 39 37 35 36 37 36 34 39 40 44 45 46 45 44 45 46 46 44 39 40 37 35 33 30 31
52 52 50 49 49 48 49 50 49 46 45 46 47 47 48 42 39 40 39 39 37 40 39 38 35 36 35 35 33 35 39 41 42 45 45 43 43 45 45 44 40 39 38 35 32 30 29
54 56 56 53 49 48 49 50 51 53 55 55 55 55 54 51 47 43 44 42 40 36 38 37 35 35 33 31 30 30 34 37 42 43 45 42 43 43 43 41 40 40 39 37 35 32 31
59 61 61 59 53 51 54 60 66 70 70 70 68 66 64 61 56 50 46 46 42 38 38 37 35 35 32 29 27 28 32 36 41 41 41 40 42 40 40 40 41 40 40 38 37 34 34
64 65 67 66 61 59 64 73 74 81 77 75 74 71 65 69 66 57 49 48 42 31 40 37 35 35 30 29 26 26 30 34 39 38 40 37 39 39 39 39 38 40 40 38 34 34 35
66 71 73 72 69 69 74 81 75 73 61 55 51 50 47 48 59 61 52 46 44 43 43 35 35 34 31 28 27 26 29 33 36 38 39 37 36 34 35 36 38 35 33 34 33 35 36
68 74 78 77 75 76 81 78 69 56 48 47 41 34 29 29 44 52 52 52 52 44 43 39 37 34 32 29 27 27 29 32 33 34 34 31 29 29 29 27 28 29 30 31 34 35 38
70 76 81 81 80 81 89 71 60 46 40 31 24 16 17 21 39 49 52 54 50 46 38 33 40 36 34 31 29 27 28 30 30 31 27 26 23 22 22 22 23 25 30 31 35 38 40
71 77 83 86 85 89 84 63 53 33 13 18 23 16 12 19 40 47 56 55 53 47 40 42 38 36 36 33 30 27 26 26 25 25 25 23 20 19 19 20 24 28 32 35 39 43 45
73 78 84 89 89 96 72 61 44 16 9 17 21 24 20 13 37 47 64 55 54 47 47 35 39 38 38 36 30 27 25 25 25 23 21 21 19 19 21 24 27 32 34 40 43 47 50
74 80 86 90 92 97 68 63 32 5 10 14 8 10 23 14 32 49 55 56 53 51 43 32 40 40 38 37 32 28 26 25 22 21 20 21 20 22 25 28 31 34 39 43 48 52 57
75 80 86 91 94 95 67 59 16 1 9 16 15 20 19 14 33 57 72 48 46 57 48 32 38 37 37 36 32 30 27 25 23 22 21 23 24 26 28 30 34 38 41 47 53 57 58
75 79 86 91 96 88 64 43 8 2 11 16 17 27 10 16 40 62 67 53 54 55 42 37 26 37 38 36 35 31 28 26 25 24 24 26 29 28 30 34 37 39 44 45 51 53 55
73 78 85 90 96 78 61 36 13 4 12 16 21 24 5 18 44 62 55 46 31 50 44 28 26 33 37 35 32 30 29 27 25 26 28 28 29 29 32 33 37 40 41 45 48 47 50
71 77 82 89 95 70 52 25 15 12 15 21 18 9 11 36 48 68 62 38 17 48 46 32 21 22 28 31 29 27 27 27 26 27 28 27 29 28 30 34 37 39 40 41 41 49 49
67 74 79 85 91 64 45 20 20 17 12 10 10 8 18 33 51 62 51 33 35 42 47 37 26 23 22 26 30 28 26 27 26 27 26 24 26 25 30 33 34 36 38 39 41 42 48
65 70 77 81 87 62 40 25 11 10 11 9 6 7 18 31 46 53 33 37 38 35 36 32 26 30 28 25 28 30 30 28 25 21 22 24 24 25 27 29 32 31 32 34 40 40 48
61 67 73 77 82 63 31 25 17 19 17 16 12 9 24 38 44 35 32 27 31 26 22 27 26 27 29 28 26 27 27 22 20 21 21 22 21 23 23 25 25 22 26 32 38 41 39
57 63 70 73 76 60 22 27 26 24 24 19 15 18 33 48 46 36 27 19 30 24 22 25 28 26 32 28 25 25 21 19 19 19 19 20 19 21 17 16 21 20 20 27 34 37 36
52 58 64 67 70 56 22 23 27 26 24 18 11 28 41 38 39 33 24 23 28 20 22 20 20 22 30 28 25 20 19 18 19 18 17 15 16 11 11 10 16 21 23 23 29 30 36
48 53 59 61 63 54 30 23 23 31 27 10 19 39 30 28 30 24 22 23 24 25 25 20 19 23 28 28 27 24 23 20 18 16 12 12 10 11 9 11 16 18 18 20 27 31 33
45 48 53 56 56 56 30 28 28 28 25 17 30 23 25 22 24 22 21 19 17 19 17 18 18 17 19 21 22 22 20 19 15 12 12 10 10 9 8 10 13 17 18 19 25 27 25
43 45 48 50 50 52 35 23 25 21 17 17 22 14 19 19 12 18 21 19 18 20 22 21 21 17 15 16 17 20 21 16 13 14 12 8 5 5 6 6 7 14 18 20 23 24 20
40 41 44 47 46 42 44 18 13 9 9 4 20 20 15 19 12 14 19 18 16 15 13 15 14 13 15 16 17 19 17 15 13 16 12 6 6 2 2 4 4 9 13 18 20 23 20
35 36 40 42 45 40 37 30 9 11 11 8 12 11 12 17 26 20 20 20 17 15 15 14 15 14 15 17 19 18 16 14 16 16 12 8 7 6 5 4 3 8 9 17 21 23 23
32 34 36 39 43 44 37 35 23 14 14 17 10 15 16 15 17 18 17 19 18 18 19 17 16 15 16 18 19 18 15 14 18 20 14 10 10 7 6 6 4 6 10 12 15 19 22
31 35 34 36 39 41 42 38 37 15 22 24 23 17 21 14 9 15 18 21 24 24 23 16 14 15 14 15 18 18 16 16 21 22 17 12 11 9 8 8 7 8 9 12 13 14 17
32 35 34 36 37 41 44 43 39 43 21 32 30 23 29 23 16 14 19 18 24 23 26 18 15 15 13 12 14 16 18 19 23 25 22 17 15 13 10 11 11 10 10 11 14 12 11

GFSGBSN_500_spd_012.txt.gz
Wind_Speed
50 52 53 55 56 55 51 48 46 46 44 41 41 43 45 44 42 40 38 36 38 35 38 35 39 38 38 38 39 41 42 43 44 46 47 47 46 46 46 46 44 43 45 42 38 36 35
53 54 54 57 61 60 60 54 49 48 48 47 48 46 48 50 48 46 44 40 37 37 36 39 35 39 37 38 38 36 38 42 43 45 47 48 47 46 47 46 44 42 43 43 40 37 35
56 56 58 58 62 64 65 68 58 53 50 54 56 58 57 56 56 53 49 45 41 38 38 38 42 38 39 36 37 35 37 38 39 42 45 47 46 46 46 45 44 41 41 44 42 38 38
58 60 60 62 66 70 73 74 69 61 69 70 71 70 69 63 63 60 56 50 46 41 39 39 39 39 34 36 35 34 35 36 37 37 43 46 46 46 46 45 44 43 45 43 42 41 40
59 62 65 68 71 75 80 78 77 76 69 70 68 63 60 54 58 65 63 56 49 44 38 42 37 36 38 33 33 34 33 34 34 38 39 39 41 43 43 41 42 43 43 42 43 41 41
60 66 67 72 75 80 85 83 79 67 64 56 47 43 41 41 40 55 65 60 52 43 41 39 37 36 37 34 33 32 33 33 32 33 35 38 38 40 41 41 40 42 43 43 40 43 40
62 66 70 76 79 84 88 89 69 57 54 43 39 33 30 29 27 40 57 62 54 45 43 38 35 36 34 33 33 31 31 31 31 31 33 34 35 34 36 39 39 41 41 38 38 38 40
63 67 73 78 82 90 94 80 62 61 44 26 18 16 16 13 15 32 45 56 52 44 45 45 37 37 35 35 33 31 31 30 29 29 29 29 29 32 32 35 36 36 36 33 33 36 41
64 69 75 80 86 93 96 73 65 47 21 13 18 21 26 13 11 26 42 48 44 43 44 41 38 37 35 35 32 29 30 28 26 28 25 26 29 29 29 29 30 31 31 30 32 31 33
65 71 76 81 88 94 89 72 62 25 10 14 14 19 32 27 8 22 43 54 54 50 45 39 36 38 34 34 31 29 27 26 26 24 23 25 24 25 23 23 25 24 25 23 25 28 32
64 70 76 82 90 95 84 67 39 11 14 17 16 15 21 16 12 25 44 60 45 46 48 43 36 38 39 34 31 27 26 22 22 22 22 21 20 20 19 20 20 21 21 24 28 31 35
64 69 75 82 89 93 80 56 31 12 18 19 19 21 24 15 14 36 57 45 53 49 44 44 40 34 37 34 29 26 23 21 21 22 21 20 18 17 18 18 19 21 24 28 32 36 39
63 68 74 82 89 89 71 47 36 19 22 25 27 27 28 15 8 46 66 40 40 54 43 41 37 32 34 31 30 28 24 21 22 20 19 18 18 19 19 20 22 25 28 33 37 40 41
62 68 73 80 85 84 62 47 38 31 28 36 37 34 14 7 21 54 58 33 39 51 48 38 32 30 35 32 32 29 26 25 23 21 19 19 19 19 20 22 25 27 31 34 41 43 42
60 66 70 77 82 82 50 43 39 33 33 34 33 27 13 9 31 49 41 31 32 43 46 26 29 33 36 32 31 29 26 23 22 20 20 20 20 20 22 24 28 29 34 37 41 42 44
57 63 67 74 78 80 53 46 43 39 36 36 34 23 4 26 43 55 35 31 25 43 31 32 17 30 31 30 29 28 26 23 21 21 21 19 21 22 22 27 31 34 33 35 38 43 45
54 59 63 69 75 76 59 48 44 41 39 29 28 11 20 33 39 53 35 30 21 36 37 27 18 24 28 30 27 26 26 24 22 21 20 20 21 21 24 29 29 30 32 33 39 40 45
51 54 59 65 70 72 61 49 47 52 39 30 20 5 18 34 42 43 18 26 20 34 38 25 22 21 28 29 27 26 26 23 22 21 19 19 18 21 24 26 29 29 28 31 37 37 44
48 51 55 60 65 67 56 53 54 50 36 27 16 10 21 33 50 37 23 18 17 28 33 28 21 16 22 27 29 28 25 24 22 20 17 18 18 20 22 25 25 22 25 31 34 34 34
46 48 51 55 60 62 52 51 54 51 32 26 19 18 32 42 35 23 20 22 18 21 30 29 19 15 26 23 25 26 25 22 19 16 18 19 16 19 21 23 16 16 20 23 25 31 39
42 44 46 50 54 57 48 45 51 49 26 33 22 27 42 39 22 24 16 18 20 16 18 23 20 20 24 22 21 20 19 17 16 17 18 15 15 16 20 13 15 17 19 20 22 28 35
38 41 41 46 50 52 44 38 42 37 23 36 23 34 30 24 22 21 15 22 21 14 14 14 15 15 17 21 19 13 13 14 15 15 15 15 14 14 15 11 12 15 14 14 20 27 34
35 36 37 40 43 47 44 29 31 25 25 26 23 24 16 16 13 14 12 14 20 13 11 10 10 8 7 14 18 17 17 16 15 15 14 13 12 15 12 12 10 8 9 17 22 27 37
31 32 32 35 37 40 39 30 19 21 5 15 19 15 11 7 7 6 9 10 8 10 10 9 10 11 10 6 12 16 17 18 17 15 14 11 12 10 10 9 5 5 10 16 21 25 32
28 29 29 30 33 35 37 31 26 13 10 5 3 18 13 9 9 11 10 9 12 12 13 14 15 14 11 12 10 14 17 17 16 13 14 12 11 9 7 5 5 8 11 14 20 24 26
30 26 27 29 30 30 32 32 25 22 12 12 8 14 22 19 11 8 12 14 13 12 13 13 13 12 8 9 11 13 14 13 13 13 13 13 12 11 7 5 7 10 10 16 18 21 25
27 25 28 27 29 29 31 31 31 23 20 17 16 16 16 18 22 25 23 22 19 17 15 13 10 11 10 14 16 16 15 13 13 14 17 15 13 11 9 7 8 11 13 14 17 18 20
27 25 28 29 28 30 31 31 32 32 25 23 22 24 25 21 22 22 21 27 24 21 18 17 15 15 16 17 18 19 17 16 13 15 18 16 14 13 10 9 10 13 13 13 15 18 18
27 26 29 32 29 30 33 34 34 35 35 30 23 28 35 26 26 21 22 23 22 22 21 20 17 17 17 17 17 17 16 16 16 15 18 18 17 14 13 12 13 13 13 12 14 16 16

GFSGBSN_500_spd_015.txt.gz
Wind_Speed
52 54 56 57 59 58 60 60 61 65 62 54 52 48 50 45 45 42 44 44 40 37 37 36 41 41 41 37 36 41 46 49 51 50 49 48 47 47 47 47 47 46 44 43 40 40 40
54 54 58 60 62 62 64 66 68 71 71 71 63 59 56 57 54 51 46 47 45 42 38 40 42 36 40 40 35 36 39 44 48 50 50 50 49 48 46 47 48 48 46 43 39 39 39
54 55 59 65 64 67 71 75 78 80 76 70 65 63 63 66 60 59 56 50 49 45 41 36 38 43 36 39 39 34 34 36 41 45 46 47 47 47 47 47 47 46 45 42 39 38 39
55 58 61 67 68 71 77 82 88 84 74 62 55 50 49 48 52 62 65 59 53 49 44 38 39 37 39 38 37 34 35 35 35 39 41 44 44 46 47 46 46 46 46 43 38 40 41
55 58 63 69 70 75 82 89 91 81 67 61 50 44 40 38 38 37 48 67 58 52 47 40 39 39 37 40 31 32 33 36 34 34 36 42 44 46 46 46 46 46 45 44 42 41 42
55 57 65 70 72 79 88 95 83 71 64 46 36 28 25 24 26 26 30 48 63 52 48 39 40 39 34 33 41 30 32 33 33 30 34 35 42 42 42 42 41 41 44 46 44 43 44
56 59 66 71 75 82 91 91 75 63 44 29 23 23 25 19 14 15 25 42 52 52 48 44 40 34 33 32 36 31 31 31 31 32 35 33 35 32 32 38 41 42 42 40 39 42 42
55 60 67 71 77 85 91 85 72 54 35 27 17 24 28 26 17 12 23 34 47 52 48 42 40 36 33 35 32 31 28 29 29 29 31 32 29 30 33 35 37 38 36 35 37 40 43
57 61 67 71 77 86 89 79 70 58 39 28 22 24 28 30 27 11 20 35 49 53 44 41 39 35 30 32 32 29 29 27 28 28 27 28 29 32 33 31 27 32 33 34 33 35 36
57 62 66 71 77 85 86 72 62 53 40 33 31 29 30 26 24 11 17 41 49 56 51 43 40 33 31 32 31 31 30 29 28 27 27 29 27 28 27 24 23 25 25 25 26 28 32
57 61 65 70 75 82 82 67 58 51 43 37 34 38 33 27 20 9 26 46 39 56 45 43 41 37 34 29 29 29 29 25 24 25 25 23 24 23 21 20 20 20 20 18 21 23 26
57 60 63 67 74 80 79 64 55 50 48 42 40 34 32 19 12 5 37 44 45 45 30 43 40 38 34 30 29 30 27 24 22 25 24 25 22 20 18 18 17 16 16 19 21 22 27
55 57 62 66 71 77 78 66 58 55 49 49 42 37 24 12 5 28 50 43 42 30 36 39 39 34 33 27 29 28 23 23 21 21 22 20 21 21 19 17 15 16 17 21 23 25 28
53 54 60 63 68 75 77 69 64 61 55 47 42 31 14 7 27 52 46 38 24 34 41 40 33 28 23 32 31 27 25 22 22 22 22 23 21 19 17 16 16 16 18 22 27 30 34
50 51 58 60 64 70 74 69 66 61 51 41 38 26 14 29 46 40 39 30 36 33 37 39 34 28 25 33 31 28 24 21 22 20 21 21 18 17 16 15 14 16 20 23 28 31 37
47 49 56 57 61 67 72 70 70 62 43 35 30 17 42 56 45 37 31 33 31 33 32 33 24 25 22 30 30 27 23 21 20 19 20 16 15 14 11 13 16 19 21 25 28 33 31
43 47 53 54 57 63 68 70 71 58 38 27 27 37 49 42 45 35 40 35 28 30 30 26 25 18 23 26 26 23 22 19 18 18 17 15 12 8 12 15 18 21 21 25 26 27 31
39 44 49 50 53 59 64 67 66 55 35 25 27 51 40 41 38 37 32 35 32 27 22 20 16 23 29 25 25 24 23 21 19 17 14 12 10 12 15 17 17 19 21 22 24 25 25
37 41 45 46 49 54 59 62 65 49 33 26 32 47 39 39 34 34 29 27 21 24 27 18 13 22 26 23 25 23 21 20 19 17 14 12 12 15 16 15 16 15 19 21 21 23 17
35 36 40 43 45 48 53 56 58 47 29 31 43 33 28 32 31 27 24 17 20 22 22 21 15 14 20 23 23 21 21 20 18 15 14 13 13 15 14 15 14 15 16 16 16 15 17
34 31 35 38 40 43 44 49 49 44 28 37 37 27 25 27 22 27 20 18 18 21 25 17 8 7 15 17 22 22 20 19 17 16 13 13 14 12 15 14 11 11 10 10 12 17 24
36 26 30 33 36 37 38 39 38 36 22 33 20 21 21 15 16 15 15 15 15 17 12 14 9 6 6 16 15 16 17 17 16 15 14 11 11 12 14 11 11 10 7 9 14 20 22
31 27 25 29 32 32 33 32 30 26 13 19 16 12 11 15 14 8 4 7 5 6 4 6 5 5 3 12 17 15 15 15 14 14 11 9 10 12 11 10 8 7 3 7 15 20 22
28 25 23 24 28 30 28 28 25 18 12 3 15 13 6 1 1 4 6 2 8 7 3 2 2 4 4 5 12 17 16 15 13 12 11 10 11 11 9 10 8 6 3 8 14 19 21
27 21 23 23 24 26 27 24 23 19 12 4 7 13 21 16 12 10 6 3 3 6 13 13 10 8 9 7 5 7 16 16 15 13 11 12 12 10 10 8 7 6 3 7 12 18 20
27 23 22 22 22 24 26 24 22 20 16 12 11 14 22 24 16 15 14 15 14 10 9 12 13 11 10 10 6 9 12 12 14 14 14 13 13 11 11 7 7 8 6 9 13 16 18
25 23 21 22 23 24 24 25 23 22 20 17 12 18 22 27 26 20 18 16 16 16 16 13 14 14 12 9 10 12 11 10 11 11 12 14 12 12 11 9 9 8 7 9 13 15 16
28 24 22 22 25 27 24 25 26 25 24 24 21 17 19 28 28 31 32 33 27 24 20 18 18 16 14 13 13 14 14 12 11 11 12 14 12 12 10 10 11 9 8 10 12 14 15
19 20 22 24 26 28 28 27 29 29 29 29 30 29 26 19 37 33 29 28 28 30 26 22 20 18 17 16 17 16 16 14 12 15 13 14 15 14 14 13 10 8 8 10 10 12 14

GFSGBSN_500_spd_018.txt.gz
Wind_Speed
44 49 51 52 54 60 63 65 69 76 80 78 71 70 64 56 60 61 53 49 48 46 43 39 39 42 39 46 36 48 49 54 55 54 52 49 48 49 48 46 47 48 45 43 40 40 40
47 48 52 53 58 63 66 69 75 82 81 73 68 61 51 42 47 62 60 55 50 48 45 40 35 38 49 37 38 39 43 47 55 54 53 52 49 49 49 50 51 50 49 47 44 41 41
48 48 55 55 61 65 70 73 82 85 76 66 57 46 36 37 36 43 60 59 54 50 46 43 39 42 30 41 40 36 39 42 44 54 53 52 51 50 49 49 50 51 50 48 44 41 43
47 51 56 60 63 68 72 77 84 79 72 60 46 32 27 26 25 37 40 59 59 52 46 43 40 38 38 40 36 38 34 37 38 44 50 51 51 51 49 50 49 49 49 48 43 46 45
49 54 58 62 65 70 73 79 83 72 68 59 39 35 34 34 25 21 30 41 62 55 47 43 40 37 42 41 33 37 34 33 34 35 39 46 48 50 50 50 50 50 49 47 44 45 45
54 54 60 64 66 72 75 82 81 68 62 51 42 36 35 35 36 18 18 31 53 59 50 43 44 41 40 31 39 32 35 32 31 29 30 37 44 46 47 48 47 45 46 46 45 46 46
48 52 59 63 67 71 77 83 79 68 59 47 41 36 33 35 32 31 13 26 43 60 53 45 45 41 41 35 40 33 32 30 31 33 28 32 38 42 39 42 45 45 46 46 43 44 46
50 53 59 62 68 71 77 82 77 65 60 49 42 38 35 36 31 31 11 25 37 57 56 44 44 38 37 37 31 38 32 31 30 34 31 31 29 30 34 38 42 43 43 42 42 43 45
51 54 58 61 68 71 76 81 79 64 61 51 44 35 35 27 28 28 9 23 37 55 56 47 45 36 32 31 33 28 36 29 31 32 33 31 31 33 32 33 37 37 37 38 40 39 40
52 53 57 60 67 71 75 81 79 67 62 49 47 33 31 29 19 24 3 23 41 56 59 53 44 39 32 31 31 28 31 28 30 32 32 32 31 33 31 29 30 32 31 32 32 33 36
51 53 55 59 66 69 74 80 79 72 59 47 35 32 24 22 10 11 12 34 48 54 51 48 43 36 33 32 28 28 29 28 27 26 26 25 25 26 26 25 26 27 23 24 26 27 29
49 52 53 58 64 68 73 78 81 70 52 39 37 34 17 10 5 2 30 44 51 53 29 47 41 40 32 32 28 29 27 26 25 24 24 24 24 24 25 25 23 21 21 22 22 20 24
48 50 50 55 62 65 71 78 82 66 50 37 32 21 6 1 12 34 39 56 56 20 37 42 42 38 31 30 27 27 25 24 21 22 21 19 21 22 23 24 22 21 20 18 17 17 17
47 49 47 53 59 63 69 77 78 61 42 31 23 17 12 22 47 40 42 50 32 20 33 42 39 34 31 28 27 26 24 24 21 18 19 22 25 25 22 22 22 19 16 15 16 18 22
42 45 44 50 57 59 67 75 74 49 35 30 36 47 56 60 55 42 36 31 31 37 38 38 37 32 30 27 23 25 25 19 18 17 21 23 22 22 23 20 18 15 14 13 17 21 24
40 40 41 46 53 56 62 72 63 38 42 48 52 50 40 37 40 35 33 32 30 31 33 29 30 28 24 25 24 22 19 17 17 20 23 24 22 22 18 16 14 11 11 14 17 22 25
40 37 36 42 49 52 58 67 48 37 43 49 38 31 37 40 40 37 31 25 25 29 30 26 23 21 16 22 25 21 20 18 21 21 22 22 20 17 15 12 10 10 12 15 18 21 23
36 36 34 37 44 47 51 60 39 32 41 41 25 25 37 42 41 36 38 32 25 25 24 19 18 16 17 24 21 21 22 20 20 19 18 16 15 13 10 9 9 11 13 15 15 18 21
33 32 32 32 40 41 44 50 37 24 34 36 29 26 18 30 21 28 19 19 28 25 20 13 12 11 21 24 23 23 21 20 19 18 15 14 12 11 10 9 10 11 12 13 14 13 15
33 29 29 27 33 35 37 38 36 14 23 28 28 23 14 13 24 18 21 16 16 18 13 7 10 12 21 18 19 20 20 19 17 14 12 12 11 10 8 9 8 11 13 11 10 8 9
29 28 27 24 26 30 31 28 22 15 8 10 10 11 17 8 9 9 7 10 17 16 13 13 11 12 17 15 18 18 18 16 15 14 12 11 11 9 9 9 9 12 8 7 6 7 12
29 29 24 20 21 23 25 25 11 5 5 5 4 5 4 5 6 5 7 1 5 8 9 6 7 7 12 13 15 16 16 15 14 13 12 12 11 10 11 10 10 8 7 5 4 13 18
32 28 22 18 18 20 19 19 18 10 8 10 12 4 2 3 3 0 1 5 7 5 7 5 2 3 6 13 13 13 15 16 16 15 14 13 11 11 11 10 11 7 7 5 6 11 16
34 28 22 15 16 17 16 15 14 15 11 10 10 11 11 9 4 3 2 4 4 0 3 4 6 9 8 5 16 14 14 16 16 16 14 12 12 13 10 11 10 8 7 6 7 11 13
27 26 24 16 14 16 16 15 11 11 12 10 8 9 11 15 14 13 7 4 10 13 9 9 6 4 4 3 3 13 19 18 16 15 14 13 14 12 11 10 9 7 7 7 7 9 12
27 25 26 19 16 16 16 17 16 12 14 12 11 10 8 12 17 26 22 19 14 11 11 13 12 10 8 7 8 7 12 18 20 17 17 15 12 12 13 9 8 9 9 8 8 8 10
29 26 30 24 19 17 17 19 20 19 15 16 15 15 16 13 16 21 27 25 23 22 22 18 16 16 16 12 10 13 12 14 18 18 16 16 14 13 13 13 10 9 8 8 9 8 9
32 26 29 23 21 19 20 22 22 23 22 21 20 20 21 20 23 21 23 30 27 25 22 23 22 21 18 16 14 17 17 14 14 13 13 13 17 14 13 15 13 10 9 9 7 7 10
28 25 27 22 19 20 23 24 27 26 28 27 28 27 27 27 28 31 29 35 35 37 34 27 24 22 22 21 20 20 20 18 18 15 13 13 14 16 15 16 15 11 9 9 6 7 9

GFSGBSN_500_spd_021.txt.gz
Wind_Speed
51 48 49 51 54 56 59 64 68 69 73 78 78 75 63 47 35 32 44 57 57 54 53 49 45 40 40 42 38 48 48 52 56 56 54 50 47 47 47 45 43 44 43 40 40 41 42
51 49 53 57 56 57 61 67 69 72 77 78 68 59 51 36 26 28 36 46 56 53 53 49 45 43 38 36 45 44 43 50 53 56 56 53 49 47 48 48 46 45 44 42 43 44 43
53 50 48 52 55 58 62 69 70 75 79 73 61 51 45 36 28 27 30 33 53 52 52 49 46 45 45 27 42 39 43 44 45 53 53 53 50 48 47 47 48 48 46 45 44 43 43
55 51 52 53 57 59 64 71 72 79 77 68 56 49 40 34 35 34 23 31 41 53 52 50 46 43 37 40 38 38 42 39 46 41 53 53 52 50 47 49 49 50 48 47 44 45 45
54 53 53 55 58 60 67 71 76 81 79 63 53 45 39 32 32 34 31 19 33 50 51 48 45 41 33 40 38 41 36 41 39 40 37 51 50 51 50 50 49 50 51 48 45 47 47
57 55 53 55 60 62 68 72 78 83 76 61 51 42 40 30 31 28 29 12 32 48 51 48 45 45 42 39 25 36 40 36 31 34 36 38 49 50 50 51 50 49 46 46 44 47 48
57 55 52 57 60 63 68 73 80 85 75 56 47 41 42 28 26 24 24 11 28 45 51 48 46 43 38 42 32 33 33 35 31 35 35 35 40 49 46 48 48 51 50 48 45 46 46
54 53 53 58 59 62 68 74 83 88 71 52 40 41 33 25 23 22 22 9 29 49 52 49 45 37 32 39 34 37 34 39 35 32 33 31 32 36 41 46 47 49 48 45 43 44 46
53 54 53 58 58 62 68 75 84 88 69 41 34 32 21 21 20 13 21 5 30 55 53 48 45 44 31 38 32 34 33 37 32 31 28 26 26 26 30 36 40 42 41 41 42 43 44
50 53 51 55 57 63 68 77 86 83 64 43 30 26 21 12 12 13 16 16 36 57 53 45 39 41 36 36 33 32 32 34 38 37 27 32 26 25 27 28 30 33 35 37 39 40 42
47 52 50 53 54 62 68 77 86 76 64 43 30 25 15 13 10 10 6 27 51 54 51 44 38 38 38 29 31 28 29 31 35 34 31 28 29 28 28 26 25 26 28 29 32 35 39
46 50 50 50 53 59 68 76 78 69 56 41 26 19 5 7 2 6 24 42 57 54 39 37 36 37 31 28 32 26 26 35 35 35 33 31 28 28 29 27 25 25 25 27 28 27 34
44 45 47 48 50 56 66 74 67 53 66 52 33 23 15 11 13 27 38 54 56 47 42 37 40 37 28 30 28 25 24 29 28 27 26 27 25 26 25 24 23 23 23 24 24 24 23
50 44 44 47 48 53 62 67 58 41 58 57 57 42 35 34 39 40 46 49 31 22 42 39 38 33 29 29 24 21 21 25 20 21 22 21 23 24 25 24 24 25 22 20 19 18 18
44 42 41 43 43 49 56 58 41 35 47 45 48 46 45 41 49 56 33 25 27 35 45 40 37 31 27 27 21 24 21 23 21 19 23 24 24 23 22 21 21 20 19 17 16 18 19
43 39 35 39 37 42 48 52 38 37 41 35 40 40 38 40 27 27 29 33 25 28 38 30 30 27 22 21 20 18 21 18 19 19 22 21 20 19 18 19 20 19 15 14 14 16 16
40 35 32 35 32 36 38 42 36 28 34 34 42 30 27 21 22 21 21 24 25 29 30 27 22 18 18 18 19 19 19 17 18 18 19 19 18 17 18 18 16 13 12 13 15 16 17
36 33 31 32 28 30 32 33 25 24 22 28 23 22 26 24 19 16 17 27 24 24 22 20 15 15 17 21 21 18 19 17 17 17 17 18 16 17 15 13 12 12 12 13 15 14 15
40 33 28 30 24 24 27 28 23 16 23 17 12 16 20 25 26 24 21 19 19 19 16 13 12 7 8 17 21 18 16 16 17 18 17 17 16 14 14 13 11 11 12 12 13 13 14
38 35 29 28 23 18 21 23 22 13 12 18 17 9 15 16 17 20 17 18 18 16 11 6 5 6 9 17 15 16 15 15 17 17 16 15 14 13 11 11 10 11 12 11 10 9 6
36 29 34 26 24 15 16 18 19 20 11 15 14 10 11 8 9 14 12 9 8 12 15 11 5 9 15 13 13 14 15 15 15 14 14 14 13 10 9 9 11 12 11 8 8 4 6
34 28 30 25 20 13 11 13 14 13 13 13 11 11 9 8 8 4 9 6 5 5 8 10 9 9 12 12 13 15 15 15 14 14 14 13 12 11 10 11 12 12 9 8 7 4 5
31 27 29 24 20 12 10 7 10 10 10 11 13 11 10 5 4 3 6 7 4 7 7 3 5 4 11 12 13 13 13 14 15 15 15 13 11 11 12 12 13 9 10 11 8 4 5
31 25 24 24 22 16 11 8 6 9 7 7 9 12 8 6 7 7 2 3 3 3 3 2 1 4 3 8 14 14 14 15 15 16 15 14 13 14 15 15 11 10 12 12 7 5 6
26 21 23 24 24 23 15 13 8 9 9 9 8 9 12 11 11 13 11 9 7 9 8 7 6 5 9 5 8 16 17 17 16 17 18 17 16 17 16 14 12 10 13 13 10 7 8
28 24 24 23 24 26 21 17 13 11 11 13 13 11 11 13 15 17 19 19 17 14 14 18 15 13 10 11 7 9 14 19 20 19 19 18 19 19 15 14 12 12 13 11 10 9 9
27 27 25 24 24 26 26 19 18 16 15 16 16 16 16 15 18 20 24 23 23 24 22 19 18 20 19 17 15 13 14 18 23 24 23 21 22 18 16 14 14 11 12 11 12 10 10
30 29 26 27 25 25 26 22 20 20 18 19 20 21 22 21 24 23 23 26 28 29 28 27 30 27 24 22 22 21 19 21 20 21 23 24 22 19 18 15 17 13 12 13 12 11 10
31 29 27 26 25 25 27 22 22 23 21 22 26 28 28 28 26 30 30 30 30 35 35 33 30 30 29 27 26 25 24 22 21 20 19 20 19 18 19 17 17 16 14 13 13 11 10

GFSGBSN_500_spd_024.txt.gz
Wind_Speed
55 54 56 57 55 54 55 57 59 64 68 70 75 76 62 50 43 39 34 27 31 34 54 58 56 53 50 47 43 41 46 49 54 51 51 50 47 45 44 43 45 46 46 42 40 40 39
54 56 58 58 55 55 59 60 63 68 71 76 79 64 50 43 37 32 32 27 29 32 51 54 54 52 49 47 41 40 39 45 48 48 50 50 49 46 45 45 44 45 44 39 37 35 38
54 55 57 58 54 56 62 64 67 71 75 81 75 45 42 40 36 29 29 28 21 33 45 51 51 50 48 43 38 36 39 43 46 48 45 50 50 49 45 45 46 46 44 41 36 33 39
55 55 54 57 57 58 61 64 70 75 82 82 65 43 36 34 37 27 27 24 21 29 41 48 49 49 48 40 34 41 38 38 43 41 49 51 50 50 47 46 46 48 45 42 37 35 41
56 57 55 58 60 60 62 67 73 79 83 78 60 39 31 34 31 26 22 22 23 24 39 47 47 48 47 44 30 38 42 37 41 30 45 50 51 51 50 49 46 47 45 43 39 39 41
62 66 58 57 59 59 61 68 74 81 84 75 46 30 41 27 23 21 18 19 21 23 42 47 46 47 43 41 32 24 32 32 30 27 30 46 50 49 50 50 48 47 45 42 40 40 40
60 63 66 63 57 58 62 70 76 82 80 71 41 31 29 28 17 15 19 15 9 24 46 47 46 42 37 30 38 32 33 34 37 26 32 31 47 48 47 48 47 47 45 44 43 43 44
59 64 62 54 55 56 62 70 77 81 75 64 37 24 19 19 15 16 13 20 15 32 49 47 44 43 45 25 37 32 36 32 38 32 23 27 29 42 48 49 49 49 47 43 39 40 43
59 58 55 54 55 56 62 70 76 75 75 65 35 28 17 15 11 12 18 15 25 46 49 46 43 44 44 28 35 19 31 33 32 29 24 24 24 26 38 46 46 45 43 40 40 41 43
66 52 57 52 54 55 62 68 73 68 78 67 37 19 14 11 8 10 14 15 34 54 47 43 39 32 31 32 35 31 31 28 25 26 21 27 25 23 20 29 40 41 41 40 40 41 41
63 57 53 52 52 53 61 64 66 68 73 55 43 29 8 11 7 6 15 30 50 51 50 43 41 34 34 33 32 25 27 24 35 32 21 26 27 22 26 29 27 30 35 37 37 37 38
60 53 56 50 52 50 57 59 59 62 62 57 49 36 23 16 12 25 33 48 51 47 40 44 39 34 33 38 28 22 31 30 33 32 34 18 29 25 29 29 25 23 25 28 30 32 35
57 53 49 47 48 47 53 50 52 54 51 64 70 58 38 27 32 41 49 49 46 39 39 39 36 30 30 31 25 21 22 26 32 34 35 25 29 27 25 25 22 21 22 25 26 27 26
52 54 46 41 45 43 47 42 43 46 40 55 60 57 55 42 49 51 52 40 26 35 32 32 31 31 28 27 24 21 22 24 26 28 26 24 24 20 20 22 23 23 22 22 21 22 20
47 49 48 40 40 39 41 35 34 37 36 47 44 47 47 33 37 39 28 25 29 33 32 33 33 26 22 19 16 20 18 22 26 25 25 21 22 23 22 21 19 21 20 19 19 19 18
45 45 45 45 38 37 36 34 27 30 31 38 44 35 36 28 20 18 13 21 26 28 30 27 26 20 20 19 15 16 20 24 22 23 25 24 21 22 22 20 21 20 19 18 17 17 15
48 45 45 38 39 34 30 31 27 29 27 34 38 40 28 27 21 17 11 16 23 20 21 19 19 11 13 15 13 18 15 17 17 18 19 22 19 19 19 19 19 19 18 18 15 13 12
48 44 41 34 33 30 23 25 26 26 29 27 26 32 35 32 25 20 22 23 23 18 16 16 13 12 14 15 16 21 18 15 13 14 15 18 19 19 18 17 18 18 15 14 14 12 13
48 44 37 27 28 28 19 18 18 21 19 24 22 21 26 28 22 18 21 21 19 15 13 10 10 7 11 12 15 14 13 13 13 14 15 18 18 18 17 17 15 14 14 12 12 10 12
43 39 35 28 26 24 21 12 12 13 14 17 14 18 18 19 19 16 16 15 12 11 9 7 3 1 3 10 15 11 12 13 15 15 17 17 15 15 15 13 12 11 11 11 10 10 9
37 34 34 26 23 22 24 11 9 7 10 10 13 13 12 12 11 14 9 10 13 13 10 3 2 3 12 15 12 12 11 13 14 16 15 14 12 12 11 10 10 11 11 10 10 7 9
35 34 33 27 21 22 23 13 9 4 6 8 8 12 9 9 5 5 8 7 4 7 9 11 8 5 12 11 12 14 14 15 16 15 14 13 13 11 10 9 10 10 9 9 11 12 10
38 36 30 26 21 19 22 19 12 7 3 4 8 10 10 6 5 1 1 2 3 3 4 4 6 2 9 9 10 11 12 12 14 15 14 14 11 10 9 9 10 11 10 12 13 12 9
38 33 25 22 20 20 22 24 16 13 8 5 5 8 10 7 7 5 3 3 4 4 3 5 1 3 4 11 11 12 12 13 14 14 14 13 13 12 12 11 11 11 12 14 15 13 13
38 33 25 22 21 22 21 25 23 18 14 10 9 9 10 11 11 11 12 12 10 8 7 6 8 6 7 6 9 14 13 13 14 15 15 16 15 15 14 13 13 12 13 16 18 16 15
35 34 28 23 24 24 24 26 28 20 19 16 13 13 12 13 14 15 16 16 16 14 13 15 15 12 12 11 9 7 12 19 19 18 17 18 18 18 16 17 16 13 13 17 20 18 15
35 34 28 27 23 25 25 25 27 27 21 21 19 18 17 17 20 19 19 20 20 19 19 19 19 21 20 18 17 14 11 12 17 21 22 21 21 20 20 19 17 14 14 18 20 17 13
33 32 29 29 28 26 27 28 28 29 25 23 21 22 23 21 25 23 24 25 25 25 23 23 25 25 23 23 24 23 20 18 16 19 22 25 24 22 23 20 20 15 17 18 18 16 14
34 31 30 30 27 26 25 26 29 28 27 25 24 23 23 24 24 29 31 31 33 34 31 29 28 27 29 31 29 27 26 26 25 24 23 23 25 25 23 24 22 20 19 19 17 14 12

GFSGBSN_500_spd_027.txt.gz
Wind_Speed
61 57 59 62 62 63 61 60 60 62 65 69 74 74 69 57 41 41 39 35 34 30 32 38 34 59 59 59 53 49 49 51 54 56 53 48 47 45 42 47 54 54 46 45 44 43 42
63 60 59 64 66 63 60 60 62 66 71 74 72 72 66 40 37 37 29 33 30 29 30 42 34 54 55 56 50 49 39 46 47 51 54 48 47 45 43 42 45 53 51 44 43 43 43
64 63 66 64 62 58 58 61 65 69 73 76 76 75 43 33 31 30 27 25 26 25 24 33 33 50 53 52 47 43 39 39 40 47 48 48 45 47 44 43 43 47 50 44 40 39 40
65 65 64 63 59 56 60 64 66 72 76 79 81 57 26 24 29 27 27 19 21 22 22 29 36 48 51 50 48 32 31 37 38 45 46 50 44 48 46 44 44 46 47 46 40 39 38
64 67 67 60 60 59 60 62 69 75 78 79 70 42 26 25 25 19 17 16 17 19 12 24 43 48 49 47 45 41 26 33 35 41 41 48 47 49 48 45 44 45 46 45 42 39 37
68 65 62 57 61 58 61 63 69 75 78 72 62 31 27 19 17 14 11 15 13 16 18 35 47 48 47 41 38 40 37 29 31 36 36 36 50 49 49 48 45 44 44 42 39 38 37
67 62 64 61 60 57 61 62 67 72 78 77 56 26 26 21 14 10 10 12 14 9 25 45 46 45 45 42 36 32 36 33 26 30 32 36 40 49 48 48 46 44 42 39 38 40 41
66 65 61 63 60 57 59 60 67 62 77 80 57 21 18 18 15 9 12 18 3 22 44 44 43 41 45 46 27 36 37 34 28 29 33 31 36 47 48 47 46 45 43 41 38 39 40
63 64 61 62 60 57 56 58 63 64 75 79 57 36 12 17 13 11 14 3 25 43 47 42 41 37 36 42 32 32 32 29 22 17 29 30 29 43 47 46 49 48 45 42 40 39 41
60 65 61 60 59 56 53 56 60 64 71 75 58 38 25 14 10 13 11 27 44 48 47 43 43 42 34 34 35 31 30 27 28 20 18 19 23 33 44 44 45 45 43 42 41 41 40
61 63 54 57 57 54 51 53 56 61 68 69 53 38 33 27 26 27 35 46 47 46 44 41 36 40 30 36 29 32 26 23 22 24 19 23 22 20 25 33 41 41 40 40 40 40 40
65 54 51 53 51 53 47 49 51 56 61 61 54 44 41 37 40 43 47 46 47 44 41 35 25 37 32 35 23 28 26 17 20 18 12 28 19 25 24 21 26 35 38 39 37 37 36
69 53 47 46 46 47 43 43 44 50 51 50 54 53 51 47 47 45 44 46 45 47 38 31 27 28 26 27 21 30 18 28 30 26 26 24 26 21 23 26 26 22 26 29 30 32 30
70 59 46 43 43 40 39 37 39 37 46 39 42 44 45 49 34 35 36 36 38 42 38 34 29 29 26 26 21 15 14 18 19 25 27 22 24 19 29 27 23 22 22 24 24 24 23
71 62 48 40 38 37 36 31 32 31 33 37 31 30 28 32 31 18 26 31 33 35 27 26 26 28 27 22 15 14 16 20 19 23 23 25 21 25 24 21 20 22 22 20 20 20 22
73 60 49 41 34 30 32 25 26 26 26 31 33 28 23 23 23 18 21 23 25 23 22 23 18 18 16 14 14 15 16 22 24 21 20 20 23 24 23 21 20 20 21 21 19 19 19
74 55 45 38 30 27 28 21 20 21 20 23 29 32 27 26 21 17 19 23 22 19 20 20 13 12 13 12 12 13 16 16 19 20 19 21 19 20 23 20 19 20 20 20 20 17 16
69 53 42 37 31 26 25 23 13 15 17 18 20 26 25 24 23 16 16 13 17 16 15 13 9 9 11 9 13 15 16 16 15 15 16 18 18 17 19 19 19 19 19 17 15 14 14
65 48 41 34 30 23 21 20 9 10 11 11 15 16 20 20 17 16 14 13 11 11 10 10 9 8 8 6 8 12 15 13 11 13 15 16 19 17 17 18 18 19 18 17 15 13 14
57 44 38 32 29 24 19 16 10 6 5 8 7 9 12 15 14 12 10 10 11 9 8 7 4 4 5 8 10 13 10 11 12 13 14 15 16 15 17 18 18 18 16 14 12 13 13
50 41 37 33 30 26 17 18 13 5 6 3 3 5 6 8 12 11 9 10 10 10 6 0 2 3 8 14 16 12 11 11 12 13 13 14 14 16 17 16 15 15 14 12 13 13 14
47 39 34 31 28 25 17 18 13 11 8 7 2 2 4 5 3 7 8 8 8 6 5 8 2 4 10 16 14 12 11 12 13 15 16 15 14 15 15 14 13 12 11 12 12 13 15
47 35 32 32 29 25 19 19 17 15 12 10 8 6 2 5 6 4 5 5 6 7 4 1 4 5 9 9 10 11 12 12 13 14 14 14 14 13 12 10 9 9 8 10 13 13 15
48 34 34 30 27 25 21 21 20 19 18 14 13 11 9 8 7 9 7 5 5 5 5 7 6 5 8 8 9 10 12 13 14 14 13 13 13 13 11 9 8 9 9 10 13 16 17
48 39 30 28 28 25 24 23 22 22 22 19 17 16 13 13 11 11 12 12 10 8 7 7 9 9 10 11 12 12 12 12 13 14 15 14 14 13 13 11 10 9 11 12 14 17 18
42 36 29 29 29 24 24 24 24 23 24 25 21 18 17 17 15 14 13 13 13 15 15 14 12 13 11 11 11 14 17 17 15 14 15 15 16 16 16 14 14 12 13 14 16 18 19
36 28 26 28 28 24 24 25 25 22 26 25 26 24 21 21 22 19 17 17 17 17 17 21 21 20 19 17 16 14 14 16 19 21 21 20 19 19 18 17 16 15 15 17 18 17 19
31 26 27 27 27 24 22 26 27 26 25 30 28 28 25 23 24 23 23 22 22 23 23 23 25 25 25 25 24 22 20 17 16 15 17 20 24 23 23 22 21 18 18 19 18 18 19
28 29 30 27 26 26 22 22 25 27 27 30 31 29 27 25 25 25 24 23 27 30 29 29 29 27 28 29 29 29 28 26 24 20 19 17 19 22 25 26 24 21 20 20 20 19 20

GFSGBSN_500_spd_030.txt.gz
Wind_Speed
62 65 64 66 61 56 57 56 56 60 63 67 71 76 69 56 37 26 27 30 35 39 42 37 40 39 47 66 72 67 65 51 60 60 56 51 53 50 47 49 50 51 53 52 41 42 45
63 65 64 66 62 60 59 55 59 61 66 65 74 80 56 22 24 23 26 32 29 31 30 33 34 30 37 44 63 59 59 54 53 55 56 53 50 48 50 47 46 50 49 52 43 43 44
65 67 64 65 64 64 58 57 60 64 68 73 74 73 36 18 20 23 26 25 21 25 23 24 26 29 38 41 57 47 47 47 54 50 53 51 51 46 48 48 45 48 51 53 43 41 43
66 67 66 66 64 62 57 59 60 65 70 74 78 53 33 17 16 19 24 23 19 21 20 19 25 23 29 49 56 56 51 28 44 47 50 50 53 47 50 49 48 46 48 52 49 40 40
67 68 68 64 61 61 59 59 62 68 73 76 67 40 29 17 16 14 11 11 16 17 15 20 17 26 42 52 58 35 50 36 37 44 46 52 54 53 49 49 49 46 44 44 49 48 43
67 70 71 63 61 60 60 58 63 68 74 73 58 41 19 23 19 14 7 8 11 14 15 15 23 41 46 50 52 42 38 35 33 40 46 50 46 53 51 48 46 44 43 41 41 46 43
69 71 74 65 57 58 59 57 63 69 75 67 55 40 12 17 16 10 11 11 12 5 15 26 42 45 48 49 46 37 29 36 33 36 41 45 40 41 51 48 48 45 42 41 41 40 41
70 71 74 65 57 57 55 56 62 69 68 63 56 39 22 16 15 12 14 10 18 23 36 44 43 45 45 48 50 40 38 37 34 33 40 39 34 38 48 50 48 45 44 41 40 40 41
71 72 75 66 53 54 50 52 59 60 63 68 57 46 28 19 14 15 25 31 43 46 46 41 43 44 44 44 42 38 33 17 32 29 34 32 32 36 46 48 47 44 42 39 38 38 38
69 71 74 68 51 50 45 45 51 52 60 71 63 48 42 36 36 40 49 50 48 47 43 43 38 42 40 38 43 37 25 24 27 22 36 33 30 33 41 48 47 45 43 40 39 37 38
68 68 73 65 48 45 42 38 42 47 48 60 63 50 47 46 49 50 50 49 47 44 47 38 29 36 38 33 42 40 21 27 27 28 33 32 30 28 32 43 46 46 45 42 41 40 40
67 67 70 60 47 40 37 33 35 39 41 45 51 43 42 43 42 43 44 50 49 42 40 34 29 26 32 25 33 25 18 21 21 21 23 27 23 22 30 40 42 40 41 41 41 42 42
66 67 68 57 45 36 32 28 27 32 34 37 39 40 30 35 38 38 37 41 36 39 40 28 27 29 25 21 18 22 12 15 19 21 24 28 24 24 22 35 39 37 39 39 40 40 42
65 67 67 50 43 32 27 24 22 25 29 29 30 31 25 24 30 32 34 31 30 30 33 27 27 33 23 28 26 24 15 17 22 22 18 27 27 18 20 23 28 33 37 38 38 39 39
66 65 62 45 40 29 24 21 17 17 22 24 22 24 23 19 20 27 29 25 23 28 24 20 23 19 17 15 12 8 12 13 19 20 19 23 24 21 21 23 25 25 23 26 31 32 33
69 67 56 41 39 29 23 17 12 11 16 20 22 22 19 18 18 22 24 22 22 23 20 18 17 20 18 14 11 9 9 12 17 18 19 22 21 23 26 27 24 23 24 23 23 25 23
68 60 50 36 36 30 24 13 7 7 10 13 14 17 14 12 16 17 13 13 14 17 16 16 15 13 12 11 12 12 10 12 14 13 16 20 24 23 22 24 22 23 23 23 22 22 23
61 57 47 37 32 30 24 13 7 4 4 6 9 12 15 15 12 17 15 13 15 16 13 13 12 12 10 9 10 15 15 15 14 17 16 15 22 24 23 25 22 21 22 21 22 20 20
58 53 43 37 29 30 29 15 7 5 0 3 2 6 11 14 15 14 12 11 11 11 10 9 8 8 6 5 7 10 12 13 14 15 16 15 17 19 20 25 25 22 21 20 20 22 22
57 54 45 30 26 26 29 21 11 8 7 3 5 4 5 8 10 11 11 10 10 10 9 8 6 5 6 6 7 12 14 13 12 10 12 14 16 19 19 20 21 20 19 20 20 20 21
56 54 47 32 27 25 25 24 14 10 12 9 6 8 9 7 9 11 11 11 10 8 6 7 8 9 9 11 13 14 12 12 13 13 13 12 15 17 18 19 19 20 19 18 18 20 18
57 56 54 34 30 25 25 24 14 12 15 13 11 9 12 13 10 10 8 11 11 8 5 4 6 8 10 15 17 11 10 10 11 13 13 15 16 16 17 16 16 16 16 16 17 17 20
59 58 54 36 26 28 23 25 17 15 16 18 16 14 11 15 16 13 12 10 11 9 6 3 4 7 6 12 15 12 11 11 12 13 15 14 13 14 15 16 16 15 15 16 18 18 17
58 60 57 42 25 27 24 25 22 19 16 20 20 19 17 14 16 18 16 13 12 9 8 8 7 8 11 12 12 12 13 13 13 15 14 14 12 14 14 14 13 13 13 14 14 15 17
57 57 56 41 22 23 26 27 21 21 20 21 24 23 20 18 16 16 18 19 17 15 11 9 10 9 11 13 12 12 13 14 14 15 15 14 15 16 16 14 13 12 12 12 13 14 16
55 55 55 34 26 24 27 25 20 20 20 20 25 26 25 23 20 17 16 16 17 18 18 16 14 14 13 12 13 14 15 15 15 16 16 16 17 18 17 16 14 13 12 12 12 14 17
55 53 49 23 24 28 29 24 23 23 21 22 25 27 30 28 25 21 20 18 17 18 18 20 21 19 19 17 17 14 14 18 19 17 18 19 20 19 19 19 18 16 15 14 15 12 16
50 47 31 25 27 28 28 23 23 23 25 23 24 29 28 29 29 25 24 23 22 22 22 22 23 21 25 26 24 21 20 17 16 18 22 23 23 22 21 20 21 18 17 18 16 15 16
51 49 32 25 29 29 27 23 21 23 24 24 25 25 29 29 31 30 28 27 28 29 28 28 27 26 29 29 29 30 28 25 23 20 18 17 18 20 23 26 26 24 22 19 19 18 19

GFSGBSN_500_spd_033.txt.gz
Wind_Speed
61 65 69 69 68 60 55 57 58 61 65 70 71 69 59 45 29 19 21 24 21 22 25 33 39 46 53 61 65 68 69 66 62 53 53 55 51 51 53 47 52 50 50 49 50 39 40
63 67 71 72 73 60 56 58 59 65 71 76 71 60 48 33 17 15 21 20 22 24 26 31 37 41 44 52 59 67 57 65 59 57 56 53 51 49 53 56 48 50 53 48 50 41 43
64 68 73 74 73 60 57 58 60 68 73 74 64 52 34 27 17 13 21 23 23 22 23 25 27 29 35 39 53 64 60 59 57 41 51 55 54 50 48 50 51 48 54 48 49 44 43
64 69 73 74 73 59 56 56 62 67 73 72 64 50 25 18 17 15 15 17 25 21 18 17 23 25 29 36 40 57 69 56 65 34 42 51 54 50 51 51 49 46 51 50 47 48 46
65 69 72 75 71 59 56 54 60 64 73 75 66 48 22 10 16 12 7 8 9 14 15 18 20 21 25 34 34 45 60 54 59 43 45 51 52 51 52 51 51 50 46 48 47 46 49
66 69 71 74 70 59 53 53 56 60 71 76 65 49 25 14 15 10 7 7 6 8 11 14 17 18 23 30 38 47 48 42 58 55 44 49 53 52 51 52 48 48 49 46 42 45 44
64 67 67 72 67 59 50 48 53 54 67 74 64 51 34 22 17 15 12 10 5 2 7 12 21 29 35 57 41 49 44 39 37 64 52 46 51 54 48 47 47 50 46 43 39 41 40
63 65 66 72 64 59 46 44 48 49 60 68 59 52 46 37 27 20 17 18 20 19 21 24 32 44 44 40 38 33 45 31 30 39 46 44 42 46 44 50 49 49 44 44 41 38 37
65 66 65 72 59 56 42 41 42 45 52 58 52 54 52 50 50 52 51 48 43 38 36 34 35 46 55 48 44 45 42 27 31 33 38 39 41 46 40 44 50 48 44 45 40 37 37
65 65 65 71 54 52 37 38 37 41 44 45 42 45 47 47 42 41 41 42 43 39 35 33 38 45 48 26 31 45 34 33 29 32 33 38 42 43 38 37 49 47 45 43 41 38 38
65 67 70 66 49 48 34 34 33 36 37 35 34 34 38 37 36 36 42 42 36 30 30 26 31 37 34 29 35 35 33 39 32 30 35 34 40 38 38 40 47 52 44 42 39 40 39
66 70 70 54 43 45 31 29 29 30 31 27 28 24 29 30 33 34 35 32 33 35 28 31 31 24 24 21 32 33 7 23 28 24 31 32 32 34 32 39 45 47 44 42 41 39 42
67 70 63 52 40 43 32 24 25 24 27 21 21 17 18 23 27 29 25 27 28 27 26 25 21 20 17 23 27 13 10 20 25 30 34 25 30 28 28 28 40 44 43 43 43 42 42
67 68 63 54 38 42 34 19 21 18 20 19 17 15 13 16 22 25 22 18 17 22 20 17 22 12 12 20 20 13 11 22 19 25 26 28 24 21 19 26 28 41 41 42 42 44 44
63 64 62 56 41 38 37 22 15 15 13 14 12 12 12 13 16 18 17 9 19 20 22 19 17 14 21 19 17 11 9 14 14 15 26 25 28 25 22 17 24 31 37 36 37 40 40
61 63 63 56 49 35 37 28 14 14 9 7 8 7 8 10 12 12 12 12 8 12 17 16 11 14 13 8 7 7 9 15 15 16 16 19 24 21 18 24 19 24 28 34 36 35 36
57 63 64 58 45 33 32 32 16 14 10 4 3 1 4 6 9 10 12 12 7 9 8 8 10 10 8 5 5 5 8 10 16 16 17 19 23 19 22 22 22 23 26 25 26 30 30
58 62 63 61 54 39 30 32 22 13 13 5 3 1 7 7 8 11 9 11 10 7 7 6 5 5 6 4 5 8 10 10 14 17 16 19 21 23 20 25 25 23 23 26 25 25 24
55 61 64 60 55 37 27 29 27 14 16 11 7 4 7 10 8 10 11 10 12 9 8 7 7 7 5 6 7 9 10 13 14 14 16 16 21 22 25 26 24 24 21 22 21 23 25
52 58 61 63 60 45 28 25 29 17 16 16 12 10 10 11 11 11 11 11 12 12 11 10 9 9 9 9 10 11 10 10 9 12 18 19 18 20 24 24 25 27 24 22 24 23 24
55 58 62 64 61 53 31 26 27 18 17 20 17 15 15 13 13 12 12 13 13 12 12 12 11 10 10 11 11 12 11 11 11 11 10 17 18 19 21 23 22 23 23 22 21 23 27
55 58 61 62 61 54 33 24 26 19 19 22 22 18 17 18 17 14 12 13 13 12 11 11 13 15 14 14 13 13 12 11 12 13 14 14 15 19 21 21 21 21 21 20 22 23 21
54 56 58 60 60 55 34 25 27 21 19 21 24 23 19 20 20 21 16 15 15 13 10 9 8 10 11 12 15 16 12 11 11 12 12 12 14 14 14 17 17 17 17 18 19 21 24
55 56 59 61 59 58 29 20 29 27 19 23 25 27 26 22 23 22 21 19 17 16 15 13 11 7 8 9 15 16 13 12 12 11 12 14 12 14 15 15 15 15 18 18 19 20 18
54 57 57 59 60 55 25 22 30 26 18 22 25 30 30 29 24 24 25 24 22 19 17 15 12 10 10 12 13 14 14 13 13 13 13 13 12 14 16 17 16 17 16 16 17 16 17
58 59 57 57 59 54 31 25 27 24 20 22 25 29 32 32 30 28 25 24 25 25 22 19 17 14 14 13 15 15 15 14 15 15 15 15 15 15 16 16 15 13 13 13 14 14 15
56 55 55 55 55 45 26 26 31 23 18 22 25 29 32 34 34 31 28 25 24 23 23 22 21 19 19 18 17 15 16 17 16 16 17 17 18 18 19 18 17 16 14 14 14 10 13
56 54 50 50 46 31 25 27 30 25 23 21 27 30 31 33 34 34 30 29 27 26 25 22 23 21 23 23 23 21 19 18 17 19 21 20 20 20 21 21 21 19 18 18 13 14 13
57 49 46 43 32 22 27 27 27 25 23 24 24 30 31 29 34 33 34 32 30 29 28 27 26 26 29 28 26 26 26 26 23 20 19 20 25 24 24 24 23 23 22 20 19 18 17

GFSGBSN_500_spd_036.txt.gz
Wind_Speed
61 65 69 71 75 76 70 65 61 60 65 68 74 71 54 29 30 25 14 16 16 16 15 19 27 36 53 65 59 64 63 60 57 55 50 49 48 46 47 45 48 48 45 43 44 47 42
63 68 70 72 72 74 68 65 59 61 64 70 76 69 47 23 22 14 15 13 17 16 14 14 22 25 35 48 54 63 61 53 59 56 52 48 45 47 45 48 47 46 51 47 47 43 40
65 68 71 72 71 73 66 63 57 60 64 71 77 67 42 16 16 15 13 15 17 16 13 15 20 21 24 33 45 52 60 62 50 55 48 50 46 47 46 47 48 48 50 48 47 43 41
65 70 72 71 74 70 63 61 55 58 64 71 74 63 43 18 17 18 15 13 16 16 14 13 21 22 27 33 36 43 52 46 60 52 51 45 45 45 48 46 47 49 49 52 45 44 41
65 69 72 73 79 64 60 57 52 54 61 68 67 59 50 29 18 14 10 10 5 9 12 11 13 18 26 29 33 39 46 50 54 53 51 42 44 46 48 47 48 52 49 47 43 43 44
65 70 73 77 71 59 57 51 50 50 55 59 57 57 63 53 32 18 10 10 7 3 5 9 12 13 19 25 32 35 45 51 47 45 43 38 48 53 52 50 44 41 44 47 42 46 42
67 72 75 78 68 55 55 45 47 45 48 50 52 52 52 58 57 46 29 16 10 5 6 7 10 14 17 26 29 33 46 52 48 54 58 36 42 48 48 37 39 43 44 46 38 42 45
68 72 78 76 64 51 52 42 43 41 43 43 46 46 48 46 49 53 49 39 28 20 14 14 21 20 22 22 28 33 49 55 45 49 61 33 30 34 38 45 45 45 46 46 41 39 43
66 71 76 75 61 49 51 42 40 38 38 37 39 40 42 43 44 44 44 42 36 30 25 20 25 42 48 36 45 41 39 51 46 47 47 40 31 34 38 43 45 38 44 42 46 42 37
63 70 74 74 61 48 49 42 35 35 34 33 33 32 34 38 39 43 37 29 30 28 29 33 26 29 22 32 24 20 21 40 43 50 47 42 34 34 39 41 42 40 41 41 41 38 38
62 66 72 71 67 51 45 44 32 30 30 27 27 27 26 33 35 36 32 30 26 27 27 19 21 24 22 14 26 29 29 33 32 40 55 61 38 34 35 38 36 43 43 43 38 40 40
59 64 71 71 64 57 42 43 32 26 26 23 22 22 19 23 28 30 29 21 17 28 32 17 18 23 20 34 38 25 26 27 27 26 32 47 47 40 39 41 40 37 41 41 41 40 41
56 62 68 69 65 54 38 42 36 23 21 19 18 16 14 14 20 24 26 18 17 22 23 23 17 25 37 36 27 18 22 28 23 27 28 31 34 36 37 39 39 36 39 45 41 41 41
56 60 63 68 67 60 36 40 38 26 18 17 12 13 10 9 12 16 18 15 9 16 18 16 12 18 31 27 12 17 12 21 25 25 28 30 28 35 32 33 33 37 36 43 44 41 40
50 57 61 67 69 63 41 36 38 32 19 14 10 8 6 4 6 10 14 12 9 10 14 13 10 9 14 12 16 13 12 11 15 23 23 26 24 24 25 23 26 25 35 39 42 42 43
47 53 58 66 68 65 59 40 33 32 22 14 11 5 3 2 4 3 5 8 8 6 10 13 12 13 15 11 12 12 15 16 12 13 22 26 22 28 23 17 18 23 26 36 38 38 40
48 53 56 64 69 68 60 41 34 36 22 17 11 9 6 4 4 4 4 3 3 2 2 4 7 7 3 5 5 6 8 12 11 14 14 19 21 22 20 20 18 10 21 27 33 36 34
48 50 54 62 66 69 63 51 31 32 23 20 14 11 9 6 9 8 7 9 3 3 2 2 4 2 2 1 2 2 1 3 8 10 10 15 20 22 19 18 20 16 17 19 22 29 32
47 50 52 60 66 68 67 56 38 26 29 19 16 14 10 12 7 10 11 13 8 6 4 3 3 3 3 4 4 5 5 6 7 10 11 12 15 19 20 21 22 17 21 23 27 25 24
46 52 51 59 63 66 66 58 37 19 29 17 19 17 14 13 12 12 12 11 12 11 9 7 7 6 6 7 8 8 6 6 8 10 14 18 19 21 22 22 21 21 25 23 20 20 19
45 52 51 56 63 65 65 56 33 20 29 19 19 21 18 16 16 15 16 14 14 13 12 11 10 10 10 10 11 10 10 8 8 9 12 16 20 21 22 22 24 25 25 24 19 18 22
46 51 51 54 59 62 62 51 37 18 28 21 21 23 22 22 20 20 19 17 15 14 13 12 13 15 17 16 13 11 11 10 9 10 13 12 15 21 21 23 24 25 24 24 24 25 23
45 49 47 51 57 59 59 57 42 29 30 26 18 21 26 24 25 23 19 18 18 16 14 12 10 11 12 12 13 13 13 12 12 12 13 14 15 15 17 21 21 21 18 19 21 22 22
46 48 48 51 55 57 58 57 43 23 28 28 17 26 25 28 27 24 25 22 19 18 16 15 13 11 9 9 10 13 15 12 11 11 11 11 14 16 15 15 18 15 16 16 17 18 17
50 48 49 51 53 55 57 54 39 27 30 24 16 25 23 30 29 27 26 26 25 23 20 18 16 13 10 8 8 9 13 13 12 11 11 10 13 10 12 13 13 13 13 14 15 16 17
51 51 51 53 52 54 54 45 35 28 29 17 16 20 27 22 33 31 29 29 28 26 25 22 20 18 15 13 11 13 13 11 11 11 11 12 12 10 11 12 13 10 13 14 15 15 15
52 54 55 55 50 50 51 39 31 30 28 21 18 18 26 26 24 37 36 32 29 29 28 26 24 22 21 19 16 14 14 15 13 11 12 13 14 14 13 13 12 11 11 12 12 11 12
52 56 57 55 49 49 47 36 27 26 29 26 20 20 21 30 24 26 38 35 34 31 29 23 25 23 25 22 20 20 18 15 15 15 15 15 15 15 17 16 16 14 15 13 11 11 13
50 53 58 56 48 48 43 32 27 29 30 27 23 20 21 25 30 24 26 33 35 33 30 27 27 26 25 24 24 23 23 23 21 19 17 18 18 19 18 18 17 18 18 16 17 16 15

GFSGBSN_500_spd_039.txt.gz
Wind_Speed
62 67 72 78 82 82 71 62 58 58 60 64 69 76 74 52 19 17 18 13 11 10 8 13 18 22 30 57 59 56 59 62 54 50 46 43 45 43 44 42 43 48 45 45 47 48 43
61 66 70 76 81 78 67 61 56 57 59 63 68 73 70 49 20 16 15 13 12 11 9 4 13 15 24 32 52 56 55 59 55 51 49 45 42 45 42 43 41 41 44 42 46 54 50
62 66 70 76 81 76 63 60 53 54 57 60 63 65 66 62 34 17 15 12 16 13 8 4 15 23 26 25 34 55 53 56 47 51 42 47 44 44 45 42 44 44 43 40 40 45 42
61 66 70 75 79 76 62 61 51 53 54 55 58 55 65 67 68 27 10 10 6 9 7 4 10 21 21 24 32 39 51 58 51 43 46 46 47 43 44 44 41 45 42 43 39 39 39
62 68 70 77 80 77 61 59 52 50 51 50 50 52 62 55 62 58 24 14 10 4 8 5 10 20 19 25 35 39 43 54 52 45 46 45 43 45 43 44 43 44 40 40 36 35 38
60 66 69 74 80 76 63 57 53 46 47 45 45 51 57 53 48 57 45 23 16 8 9 5 9 16 24 27 32 38 41 50 48 45 44 45 42 42 44 40 39 33 30 35 35 34 40
59 64 67 74 80 77 66 55 54 43 45 41 41 47 50 49 54 55 54 38 25 14 6 9 12 12 17 25 30 38 44 49 51 50 39 41 40 35 33 34 36 37 33 37 37 38 40
55 61 64 72 79 78 66 54 53 42 42 37 37 41 45 45 47 50 42 41 34 28 18 9 9 14 19 24 30 36 46 44 46 48 36 36 39 34 35 36 34 38 36 34 41 39 37
55 59 63 68 77 74 65 53 51 43 37 34 32 35 36 34 38 37 36 39 42 39 31 45 34 22 20 24 31 36 41 47 41 42 33 30 31 35 35 34 37 34 34 35 38 37 38
52 55 61 69 74 76 67 54 48 46 34 32 28 26 28 26 30 29 29 31 36 34 31 27 28 31 28 19 25 35 39 48 49 46 37 35 29 31 34 33 36 36 37 37 36 36 35
49 53 60 65 72 74 70 59 45 47 37 29 25 20 24 18 24 23 25 30 39 33 38 38 27 27 15 17 28 28 36 42 45 44 46 42 35 33 29 30 34 36 39 38 33 38 38
47 51 55 63 70 73 72 64 44 42 40 26 21 17 16 11 17 18 22 22 30 30 31 26 28 18 22 23 21 23 35 41 46 32 43 43 41 28 28 32 30 32 37 37 37 36 39
44 48 53 58 66 69 71 67 51 38 39 26 18 14 11 11 10 14 17 17 22 24 23 22 25 27 19 25 24 23 26 35 36 38 37 39 39 31 26 24 28 32 34 37 39 40 35
43 48 51 57 64 67 71 70 62 34 37 28 15 10 6 6 8 7 9 13 13 19 23 16 24 26 20 19 15 23 19 23 26 29 33 42 44 36 33 30 29 29 32 32 33 35 35
41 45 47 54 61 65 69 71 67 43 32 29 15 11 3 2 1 3 6 12 13 15 18 13 12 20 14 18 21 15 12 16 18 19 23 24 33 45 46 37 37 34 34 35 32 32 40
39 40 42 50 60 65 68 73 71 55 26 28 16 12 8 3 4 4 3 5 8 12 11 11 9 11 16 19 15 18 14 15 19 19 22 24 27 31 34 37 32 30 34 32 34 35 37
37 40 41 49 57 62 67 69 70 58 22 24 18 11 11 9 8 8 9 3 2 4 6 8 7 6 8 12 13 11 13 12 14 15 20 18 23 21 19 30 23 21 23 27 29 33 35
38 38 40 47 50 59 63 68 69 61 24 22 16 13 13 11 12 11 9 11 5 2 2 3 3 3 2 4 7 7 7 6 11 11 10 11 21 21 24 20 21 19 18 21 27 30 33
40 39 40 44 47 53 58 64 68 62 28 23 18 12 15 12 12 13 14 11 11 8 4 4 3 2 2 1 2 4 7 8 9 8 10 12 16 20 21 24 22 22 18 13 13 16 26
40 39 40 43 44 49 54 61 66 59 33 23 22 12 16 16 14 14 13 12 11 11 9 6 5 4 4 3 3 3 5 9 12 13 13 13 13 14 20 18 16 19 15 17 24 26 23
37 37 38 41 43 47 50 59 63 62 36 21 23 11 15 19 17 17 17 14 12 11 11 10 8 6 6 7 7 7 5 8 10 12 14 17 18 20 22 22 22 21 22 21 19 18 17
37 38 41 44 44 46 51 58 61 58 33 21 22 12 17 20 22 21 19 16 15 14 13 11 9 10 11 10 10 11 9 8 10 11 9 10 15 21 21 22 25 25 25 25 21 20 20
39 43 45 42 45 46 49 53 56 54 43 27 26 15 19 20 26 24 21 20 18 16 15 13 11 9 8 8 7 9 10 10 10 10 11 13 15 15 18 23 24 25 23 24 24 22 23
41 42 43 45 45 46 47 53 53 53 48 34 26 15 17 21 22 26 22 22 20 17 16 15 13 11 9 8 6 5 10 12 10 10 10 12 15 16 16 19 20 18 20 21 23 24 23
44 44 46 46 48 46 48 51 53 53 47 35 21 16 17 20 22 28 28 25 24 21 18 17 15 14 12 9 6 4 6 11 10 10 10 11 12 14 11 15 12 11 15 16 17 18 17
44 45 48 47 46 48 51 52 53 53 43 32 25 17 18 18 26 20 31 27 25 24 22 21 18 17 16 14 10 7 8 9 10 10 10 10 9 8 8 10 10 11 11 13 14 15 15
44 47 50 49 48 51 52 51 52 47 41 32 27 21 18 19 21 24 25 32 28 27 25 22 21 20 20 19 18 14 11 10 10 9 9 11 12 13 12 9 10 12 10 11 11 10 12
43 46 49 50 50 51 51 49 51 44 33 32 29 22 16 16 19 22 24 29 35 31 28 24 26 24 23 23 21 20 19 15 13 12 13 12 12 13 14 13 12 13 12 11 8 10 13
36 40 44 48 49 54 53 48 49 38 28 28 30 26 20 20 18 20 23 21 27 39 34 30 28 25 22 21 20 21 20 20 20 18 16 15 15 14 14 15 15 14 15 14 15 14 14

GFSGBSN_500_spd_042.txt.gz
Wind_Speed
50 57 63 66 71 77 83 76 67 63 55 56 58 60 66 64 64 42 16 13 11 12 5 5 9 18 37 59 57 58 56 60 65 57 52 49 49 47 50 50 50 43 48 43 56 45 46
51 54 62 65 70 77 82 78 63 61 52 54 55 62 62 64 64 45 21 13 9 9 9 4 9 18 28 40 61 58 52 53 55 52 53 51 47 47 45 48 45 47 45 47 52 45 43
51 55 62 61 70 77 81 76 68 60 52 51 51 56 55 61 63 54 28 18 9 9 9 6 11 9 24 29 48 61 53 52 48 49 48 50 48 48 45 44 45 47 51 48 46 41 53
49 55 61 63 71 77 80 76 62 60 49 48 48 40 50 56 63 60 44 24 12 6 6 4 11 12 19 33 33 59 58 53 50 47 45 49 49 46 45 44 45 45 49 54 45 39 48
47 53 60 63 69 74 79 74 60 56 47 43 40 38 44 50 56 63 62 39 16 5 7 2 10 17 13 24 29 44 54 54 51 43 39 44 49 46 45 44 42 44 42 43 51 39 41
45 50 57 62 67 74 79 77 61 54 45 40 31 33 39 45 49 54 56 54 29 15 7 2 6 16 15 21 30 40 55 54 48 44 43 39 48 47 43 42 42 29 27 29 34 40 41
42 48 56 60 65 73 78 78 71 52 46 34 23 23 31 37 44 51 49 47 45 25 3 4 8 13 20 26 31 40 49 50 46 42 38 39 43 42 42 37 37 37 31 28 26 38 43
41 46 54 58 64 71 76 78 72 57 48 33 20 15 27 30 40 46 46 43 41 39 26 8 7 13 21 27 38 39 44 47 51 49 37 39 36 39 41 37 34 34 38 30 32 32 35
40 46 51 55 60 69 76 77 75 51 45 29 23 6 18 24 30 37 38 40 44 37 30 27 12 15 23 30 42 39 39 41 53 45 37 40 35 38 39 39 33 30 29 33 30 31 33
38 43 48 52 57 66 73 76 78 64 45 33 22 13 12 18 23 31 35 36 41 36 31 23 25 16 22 33 42 49 40 44 51 41 38 33 38 32 36 36 33 31 28 30 30 29 32
38 41 47 50 53 61 68 75 75 71 44 33 20 14 9 12 16 25 30 32 32 25 31 23 23 26 22 30 37 46 38 48 48 41 33 29 31 34 32 29 30 32 31 30 29 30 31
38 40 45 47 49 56 67 72 75 76 57 33 18 13 8 4 11 19 25 27 27 25 24 20 18 23 28 23 38 39 40 43 43 40 34 29 33 32 32 32 31 32 33 33 34 32 33
44 39 44 44 46 54 62 70 73 76 68 33 17 11 7 6 7 10 18 19 21 19 19 22 20 23 17 21 27 39 37 50 41 38 40 33 38 32 27 28 30 29 28 30 34 36 31
47 38 42 42 45 52 59 66 70 74 71 35 19 7 6 6 5 5 10 14 17 12 17 17 21 24 20 14 21 26 38 35 29 25 33 29 25 25 26 25 22 22 25 26 30 32 32
46 38 40 42 45 49 56 61 65 70 72 47 22 9 6 6 8 2 5 6 12 13 13 14 22 20 19 15 15 24 29 35 33 32 31 40 36 36 33 30 28 26 27 26 31 33 32
43 35 41 37 42 47 52 56 61 67 70 51 23 12 7 8 10 8 5 3 5 10 13 10 15 21 16 16 16 16 19 22 28 30 29 29 33 35 34 33 31 28 28 27 30 35 35
43 37 37 40 45 46 49 54 59 64 69 48 22 15 10 10 11 13 9 6 2 3 6 9 9 10 12 14 12 11 11 22 20 19 20 21 22 34 42 42 41 37 33 31 34 33 35
44 43 37 41 44 45 47 53 58 64 69 41 23 17 11 13 10 16 11 7 7 5 4 6 5 5 6 8 9 9 10 12 14 17 19 20 19 20 20 25 27 31 34 33 34 35 33
48 42 36 41 45 45 46 53 55 62 65 54 26 20 10 14 11 13 17 15 10 9 5 5 6 5 5 5 5 7 8 9 12 14 14 15 19 24 26 24 29 32 28 27 25 26 33
49 41 37 39 44 44 45 51 56 59 65 60 37 20 10 14 16 13 14 14 11 11 11 9 7 6 6 5 4 6 9 12 12 10 11 13 13 16 19 19 24 24 23 25 25 18 10
51 41 36 39 42 44 45 49 55 59 60 59 45 25 13 15 19 18 17 16 13 10 12 10 8 7 6 4 4 4 7 12 15 17 18 18 18 18 20 22 23 21 22 26 20 16 23
48 39 37 39 43 44 46 47 52 54 57 58 49 29 14 15 19 20 16 16 15 13 12 11 9 6 6 6 6 7 8 9 14 17 18 20 21 23 24 25 26 27 27 25 23 21 18
44 37 38 38 40 43 44 45 52 53 56 60 53 32 14 14 18 22 20 17 17 14 13 13 11 8 6 5 6 8 9 11 12 15 16 16 17 19 21 24 25 27 24 27 26 26 22
42 37 36 35 40 41 43 45 50 51 54 60 51 30 17 15 17 20 23 21 21 17 15 15 13 11 9 6 6 6 10 13 12 14 14 15 16 16 16 19 22 18 22 23 25 26 27
39 35 35 34 40 42 43 46 47 51 51 61 53 35 23 18 16 20 17 26 22 21 18 16 15 13 11 8 7 5 7 12 15 13 12 14 14 15 16 15 15 16 17 20 19 22 26
37 35 34 33 37 41 44 47 48 49 52 59 52 33 22 20 17 15 24 20 25 23 22 19 17 15 14 12 9 6 6 9 12 13 13 14 13 12 13 11 11 14 14 12 15 18 18
36 35 34 35 36 40 43 48 51 49 50 57 52 34 23 19 13 12 17 21 23 24 23 23 22 20 18 15 13 11 10 10 11 11 12 13 14 14 14 12 11 13 12 13 12 14 16
34 32 33 34 36 40 44 47 51 52 51 54 53 37 26 21 16 13 12 22 20 29 26 23 23 20 19 19 17 17 16 15 13 13 14 13 13 15 16 15 13 12 13 14 13 13 13
29 27 27 30 34 40 42 43 49 56 55 54 45 32 27 22 15 13 16 16 24 21 31 27 26 23 20 19 17 16 14 15 16 17 17 16 16 15 15 16 16 16 17 16 15 13 13

GFSGBSN_500_spd_045.txt.gz
Wind_Speed
44 49 50 55 63 67 75 80 84 72 62 49 35 40 50 60 61 68 64 27 11 11 10 5 5 13 28 46 60 57 54 67 69 64 51 51 51 50 54 56 55 62 50 55 42 52 54
45 46 48 54 60 65 72 79 81 63 59 44 31 38 49 55 58 62 67 47 13 6 6 5 5 15 28 32 56 56 52 63 67 63 49 52 49 49 49 52 51 50 52 51 47 43 45
43 42 47 53 59 64 70 78 82 75 57 42 29 36 46 50 55 60 61 60 32 4 3 4 8 6 29 32 52 53 49 53 61 60 47 50 50 49 47 50 50 52 53 46 44 44 48
40 40 46 51 58 61 67 75 80 72 61 43 27 32 41 44 51 54 60 57 47 9 4 3 4 6 21 25 48 49 45 48 53 54 46 47 50 49 49 47 50 50 50 45 45 41 47
37 42 46 48 55 59 66 74 82 79 59 44 27 28 36 39 44 51 57 52 52 27 4 6 4 5 14 24 34 51 47 48 40 51 52 44 53 49 49 47 49 51 50 49 48 39 45
38 40 44 46 52 58 64 72 80 79 71 42 27 26 28 37 39 44 52 48 48 41 14 9 2 11 13 24 24 49 52 49 43 42 41 41 50 53 48 49 44 47 44 47 48 43 42
38 38 43 44 52 55 61 69 79 82 72 51 28 24 24 30 36 40 47 44 43 43 31 11 3 9 14 20 23 43 56 51 53 43 44 37 41 50 45 43 41 39 39 40 50 47 43
38 40 42 44 46 55 58 66 76 81 79 56 30 23 21 24 32 36 41 40 38 39 36 19 5 8 14 15 24 35 53 54 55 43 38 37 35 45 42 41 41 39 35 35 36 33 46
37 44 42 42 47 52 57 64 71 79 82 64 37 21 19 20 26 32 36 39 31 33 33 31 9 9 14 20 27 37 52 52 54 46 32 34 35 45 44 40 36 36 35 33 32 32 36
36 42 42 40 44 50 57 60 67 78 81 70 40 20 17 16 19 27 32 34 30 29 31 28 13 10 13 22 27 37 45 47 45 43 38 34 35 37 45 41 36 34 34 35 32 29 28
33 41 41 40 41 47 53 59 66 75 79 77 41 21 14 14 15 23 28 28 26 26 25 25 24 12 18 23 36 38 32 44 43 47 37 32 33 36 40 39 37 33 33 30 30 31 28
33 39 39 41 41 46 51 57 63 71 77 78 48 24 13 11 13 19 22 23 22 25 23 21 20 14 22 26 34 35 39 50 42 39 33 29 35 35 33 34 36 34 31 28 26 28 27
30 36 37 38 43 44 46 56 61 68 73 79 56 28 13 12 10 12 14 18 19 24 23 21 17 24 25 27 23 33 39 49 40 36 38 33 36 31 33 34 34 34 31 30 30 29 26
26 32 38 39 41 43 43 53 58 61 70 78 64 33 17 11 9 7 9 13 12 15 24 22 15 16 19 30 27 23 33 41 41 33 28 27 30 29 26 28 29 30 31 30 31 27 25
24 31 39 37 36 41 41 48 56 60 67 74 69 36 22 12 11 8 5 6 9 11 15 22 14 9 18 25 24 23 29 28 33 29 28 25 25 27 28 28 30 31 30 28 27 24 23
26 32 40 33 34 39 39 45 55 59 64 70 69 40 22 16 12 11 7 2 4 5 8 14 18 12 8 16 23 23 35 33 30 28 29 27 25 26 25 26 27 28 25 26 24 24 23
29 33 39 32 34 38 38 42 52 56 60 68 70 48 26 19 15 14 10 7 2 0 4 5 10 13 13 11 19 25 28 20 22 25 31 30 30 29 29 33 30 27 27 25 23 25 28
30 34 40 33 32 35 38 42 50 54 58 65 71 54 36 18 16 13 13 9 8 4 4 4 5 5 7 10 11 14 21 25 29 28 24 22 24 25 28 34 34 32 32 33 34 33 29
31 35 41 29 32 32 37 42 46 52 54 60 69 61 38 17 15 13 12 13 10 9 6 6 6 5 5 5 5 8 11 16 22 22 21 25 27 28 30 35 44 46 42 39 40 34 30
32 34 38 32 31 33 35 43 44 53 54 57 65 61 39 22 17 15 12 13 14 13 12 10 9 8 7 7 5 7 10 13 14 14 17 20 20 20 21 23 21 22 23 27 28 29 27
35 33 37 30 28 32 35 39 46 51 54 55 62 63 47 21 16 17 14 14 13 13 14 14 11 9 10 9 8 8 10 12 16 17 18 17 18 16 20 24 24 25 23 26 30 25 29
36 33 34 29 27 31 33 39 44 50 54 57 60 66 51 23 17 18 16 16 17 15 14 15 14 12 12 12 10 10 10 12 14 18 21 22 20 20 20 22 23 24 26 25 22 25 25
35 31 32 28 28 31 33 37 42 48 53 57 59 63 54 32 18 17 20 17 16 18 17 15 15 14 14 14 13 13 14 14 15 17 19 20 22 25 24 25 26 28 25 29 28 28 28
33 33 31 29 30 32 33 37 41 47 54 55 54 63 55 35 20 16 18 20 20 19 18 16 15 14 13 11 9 8 11 15 16 17 18 17 18 18 18 21 24 18 21 27 29 28 30
36 34 32 31 31 33 33 32 38 46 53 51 52 60 55 33 19 17 12 20 23 23 20 18 17 15 14 11 10 8 8 11 16 16 16 15 16 17 18 19 17 16 20 22 23 22 28
41 35 34 32 32 34 35 32 36 42 47 51 54 54 55 36 25 17 11 17 17 23 23 20 19 18 15 13 11 9 8 8 12 15 16 15 16 16 16 17 17 15 17 17 15 16 25
36 35 34 34 34 35 37 37 35 39 44 49 53 49 53 37 27 19 12 11 23 17 25 23 21 19 16 14 13 12 9 9 10 13 16 16 15 16 17 13 11 14 13 15 18 15 17
39 35 35 35 35 34 36 37 36 38 43 50 52 45 47 37 27 19 15 13 14 22 21 24 24 22 20 18 16 14 12 12 12 12 14 14 14 14 16 16 15 14 14 15 17 15 13
42 38 34 34 32 31 32 34 34 36 42 45 50 44 44 33 24 20 15 12 13 19 18 26 24 22 22 21 18 16 14 13 16 17 18 16 15 14 16 15 16 16 16 16 15 16 14

GFSGBSN_500_spd_048.txt.gz
Wind_Speed
37 36 40 47 46 52 59 66 75 81 85 87 71 45 41 42 48 55 62 62 61 29 7 4 10 10 17 30 46 65 61 56 63 70 63 57 55 51 52 47 62 56 51 51 55 46 50
36 39 39 45 46 51 56 64 73 80 84 87 75 44 37 42 44 52 58 58 59 40 9 8 9 9 12 25 32 59 60 56 59 66 67 51 55 51 50 47 50 60 69 49 41 43 51
34 39 39 43 44 50 55 64 72 77 82 84 72 45 32 40 44 49 54 52 56 46 16 11 10 8 12 26 21 51 57 55 53 63 68 51 51 52 50 46 45 55 64 62 46 49 40
31 36 38 40 42 49 55 63 72 77 85 85 73 45 35 36 42 46 51 48 51 49 24 13 6 3 15 19 28 33 48 54 47 58 57 54 50 48 49 43 45 49 55 57 56 43 44
28 34 39 40 41 48 52 62 69 74 83 85 73 46 34 31 39 44 48 47 46 47 34 19 4 2 9 22 35 35 46 41 44 58 55 50 47 48 49 48 45 50 52 53 49 50 43
27 33 38 41 40 46 51 59 67 74 80 83 76 48 34 29 33 39 45 46 42 42 41 23 8 4 5 16 22 38 40 41 46 53 57 40 43 49 50 49 40 33 46 45 40 41 45
27 33 38 41 43 44 48 58 64 71 77 82 80 55 33 27 28 36 41 43 40 41 40 30 12 6 10 19 19 38 38 45 44 52 58 46 39 35 44 46 43 37 40 42 42 38 46
28 32 38 40 44 44 46 54 62 66 74 79 81 57 33 27 22 31 38 37 38 36 37 33 14 5 13 13 18 40 38 40 34 47 45 46 40 33 41 44 45 38 37 41 40 42 44
29 30 35 39 40 44 44 52 59 63 70 76 80 60 31 25 23 25 34 34 37 35 35 34 15 4 13 14 19 43 43 37 26 47 33 32 33 39 42 43 42 40 34 35 38 39 42
30 30 32 37 36 41 42 48 55 62 67 73 80 64 35 23 21 23 29 30 34 33 32 35 17 5 8 11 19 42 48 47 39 35 28 36 30 34 41 43 38 39 33 34 35 38 34
30 30 30 33 34 38 41 42 52 58 63 70 78 70 36 22 21 22 24 25 31 30 26 32 19 8 7 9 23 41 49 49 42 37 29 32 28 34 42 40 37 36 34 34 32 30 34
27 28 28 32 34 34 39 40 47 56 61 66 73 74 39 23 18 16 19 21 24 30 23 26 19 11 6 14 22 39 48 45 31 33 29 30 31 34 38 37 34 32 34 34 33 31 28
24 22 24 30 28 32 35 39 45 55 59 64 70 76 38 28 17 13 15 18 18 25 25 24 23 11 17 22 34 32 39 40 35 31 30 27 26 28 33 34 35 34 33 32 31 29 29
17 19 23 28 26 30 34 37 42 52 58 61 68 73 40 31 17 10 10 12 14 18 27 22 24 13 14 18 20 12 33 38 32 32 22 26 26 31 33 35 39 39 35 31 32 29 24
15 21 26 27 24 29 33 36 41 48 56 59 67 72 46 31 21 10 7 8 10 10 18 21 19 20 18 20 15 16 35 35 30 34 26 25 28 31 31 30 30 33 36 31 30 28 23
22 23 24 27 21 27 31 34 40 47 53 58 65 69 52 33 22 12 6 4 5 6 9 13 16 15 15 13 15 11 29 35 24 29 27 24 28 25 23 25 26 27 27 30 29 29 26
23 24 23 26 19 26 30 34 38 44 51 56 62 70 66 38 21 14 7 5 4 1 3 7 11 14 14 14 15 15 18 31 22 24 20 21 21 26 27 26 26 29 32 33 32 31 29
18 18 20 25 21 23 29 32 37 40 50 53 60 69 70 45 20 14 9 9 9 5 4 2 5 10 13 13 15 17 22 24 21 20 20 21 21 25 23 19 21 26 28 29 31 29 25
15 14 16 22 20 21 27 32 35 38 47 50 59 68 70 52 18 13 9 10 11 9 6 6 3 4 9 12 17 20 16 18 22 20 21 23 26 25 24 26 29 31 31 29 30 30 31
16 16 17 19 21 21 25 31 35 38 42 52 58 68 70 59 25 12 8 9 14 12 10 8 8 6 6 7 10 14 20 21 20 24 24 27 25 25 27 30 30 33 34 36 39 43 42
19 17 18 21 23 21 23 29 35 36 40 51 55 63 68 63 33 15 8 11 12 14 14 13 11 10 10 9 8 10 12 14 20 24 24 26 27 26 25 23 25 25 24 29 35 31 32
16 17 17 21 21 22 24 28 32 35 40 48 52 60 65 63 36 21 9 14 14 13 15 16 14 13 13 13 12 10 10 12 14 16 18 21 22 23 25 23 23 26 28 28 29 23 27
15 13 16 19 23 26 26 28 31 32 37 42 51 58 62 61 44 24 13 12 16 18 18 15 16 15 15 16 14 12 12 13 13 14 17 20 21 22 21 22 22 19 19 24 24 24 25
16 14 15 18 23 28 28 28 31 32 34 39 47 54 57 56 44 27 18 7 17 17 18 18 16 17 17 16 14 14 15 16 17 16 16 16 18 20 19 23 24 18 20 24 27 26 30
19 19 18 21 24 27 29 30 31 32 32 37 43 49 52 53 45 29 19 10 15 20 19 18 17 17 17 16 15 14 13 13 16 19 18 17 16 16 16 17 18 17 19 22 25 23 29
24 25 21 24 27 29 33 31 32 32 31 35 40 45 49 47 43 32 20 14 8 19 21 19 18 18 18 16 15 13 12 10 11 14 17 17 16 16 16 17 15 15 19 20 21 22 23
29 25 31 27 29 34 35 33 32 32 30 32 37 44 46 43 39 33 25 14 8 14 18 22 20 19 20 18 16 14 13 10 9 9 12 15 15 16 17 15 12 16 13 15 18 18 20
32 30 32 32 32 32 33 32 32 32 32 32 36 41 43 42 37 33 27 16 8 6 18 20 23 22 20 20 18 16 14 13 11 11 12 14 15 14 14 15 15 15 17 17 16 15 18
37 36 41 39 38 35 34 28 29 29 28 30 34 37 41 42 38 32 25 21 10 7 11 17 23 24 24 23 21 20 18 15 15 16 18 19 17 16 16 16 17 18 19 19 18 15 14

GFSGBSN_500_spd_051.txt.gz
Wind_Speed
31 31 33 36 38 40 44 50 58 64 71 77 82 79 52 37 38 44 50 53 54 54 50 23 9 12 18 24 28 49 60 58 43 63 69 61 54 57 55 53 57 51 50 37 42 47 53
30 27 31 37 36 40 44 49 58 63 70 77 80 81 58 36 34 40 47 51 52 52 50 25 11 12 12 17 31 38 61 58 42 46 72 48 57 53 55 53 51 51 53 52 38 48 46
28 25 29 35 37 40 44 47 56 63 68 74 81 81 57 35 31 37 44 49 49 50 48 28 15 10 11 11 23 36 55 55 54 47 61 49 54 53 55 53 51 47 47 53 45 44 47
27 23 29 36 39 42 45 46 54 62 67 72 80 82 56 36 29 34 42 46 48 46 47 33 14 10 5 11 16 25 52 49 43 51 51 53 47 55 53 53 49 48 40 46 59 41 37
27 26 30 36 40 41 43 45 51 59 64 71 79 82 59 38 29 31 39 43 45 43 46 36 14 6 2 14 8 18 50 56 51 47 49 58 44 51 54 51 47 47 35 41 45 39 32
28 28 31 36 40 40 43 43 49 57 62 69 76 81 59 42 30 28 34 41 43 42 42 39 18 3 3 18 18 23 42 39 47 44 50 46 47 49 55 51 47 46 38 37 42 53 42
28 29 32 34 38 40 41 43 46 54 60 67 74 82 64 43 30 28 31 37 42 39 40 40 19 3 4 13 23 28 37 30 28 47 51 33 49 45 52 51 45 42 39 35 42 41 48
27 29 31 33 34 40 39 40 45 50 57 65 72 79 70 43 30 27 29 32 38 38 38 37 19 2 10 11 26 43 35 29 34 45 46 35 41 38 44 45 43 41 35 37 37 37 40
25 27 30 31 31 36 33 36 42 47 55 63 70 77 72 42 31 27 25 27 33 35 36 35 20 3 10 10 27 41 36 29 32 38 49 38 33 37 39 38 41 39 34 31 35 36 34
24 26 28 28 29 32 30 34 38 45 52 60 67 75 75 44 30 24 22 24 30 34 34 33 19 7 4 11 26 39 40 32 40 38 45 50 32 32 32 37 39 36 34 30 31 38 35
24 23 24 25 26 26 30 34 36 42 50 57 64 72 73 51 32 23 19 21 26 32 30 32 18 13 4 10 29 37 34 30 32 35 41 47 40 30 26 29 33 32 34 31 29 33 37
21 21 18 20 22 26 27 30 34 40 49 54 61 70 74 51 33 22 16 19 23 28 24 27 18 15 7 13 32 41 34 29 31 34 33 21 35 31 31 35 35 30 31 33 29 31 32
19 15 16 21 19 21 24 28 31 38 46 51 58 68 77 62 32 21 14 15 17 23 28 25 16 16 12 17 34 42 39 28 31 34 25 28 28 30 33 37 36 32 31 34 33 31 29
14 10 17 20 22 20 22 27 30 35 43 48 56 65 75 63 40 19 12 11 14 18 23 22 12 16 22 16 29 40 37 28 29 28 23 29 28 26 31 32 31 34 32 32 32 28 26
15 16 18 20 22 16 22 26 29 32 39 47 54 63 73 68 46 17 10 7 10 12 18 19 13 15 16 21 21 28 30 25 29 26 25 26 26 24 28 30 33 35 31 29 26 24 21
18 17 16 20 19 18 21 25 28 31 36 44 52 61 69 69 54 22 8 6 5 6 11 16 14 15 18 14 17 18 22 30 19 21 20 25 23 26 27 30 35 33 28 27 26 23 24
16 13 13 18 22 20 20 24 27 30 35 42 49 58 65 66 55 26 6 5 3 1 6 10 13 9 10 11 12 18 26 29 20 24 20 23 20 22 23 26 25 26 27 28 28 29 28
14 12 12 11 15 14 20 23 26 30 33 39 48 56 63 65 53 32 5 5 6 4 2 4 8 11 12 14 10 14 26 24 25 24 20 19 19 21 19 20 21 22 24 26 29 30 30
14 9 10 11 11 13 18 22 24 29 31 36 44 53 61 62 58 35 11 5 8 6 2 1 3 7 6 8 12 12 23 21 24 22 21 19 20 22 23 24 25 25 23 27 29 33 36
16 10 10 12 12 14 15 20 24 27 30 35 42 49 58 61 60 35 13 6 9 8 5 3 3 4 9 9 12 16 15 21 22 22 20 22 21 21 23 23 25 24 23 27 30 34 34
21 14 13 12 10 12 14 20 24 27 30 33 38 46 53 58 57 39 16 7 9 13 10 7 6 5 8 10 11 13 16 18 20 21 20 20 21 22 24 26 26 27 26 29 32 34 38
23 18 14 12 10 11 16 20 23 27 30 31 36 43 50 53 55 38 21 3 11 12 15 12 10 9 9 10 11 12 13 15 18 20 21 21 22 25 29 28 26 24 23 26 27 25 25
22 18 15 11 10 10 13 17 22 27 29 29 34 39 47 51 51 42 23 15 10 14 14 15 13 13 12 12 12 11 11 12 15 18 19 19 21 22 23 25 25 22 22 23 26 25 27
21 18 16 10 11 10 12 17 24 26 27 29 31 36 42 46 47 44 32 16 2 16 17 15 14 15 15 14 14 13 11 12 13 14 16 18 20 21 20 21 20 17 18 18 18 20 25
36 22 18 12 13 12 14 21 24 25 26 27 29 32 38 41 43 40 34 17 9 11 16 16 17 16 15 15 14 13 12 12 13 14 16 17 16 17 17 18 17 16 17 18 18 22 23
31 24 21 14 11 12 16 24 25 25 22 24 26 30 34 35 39 38 34 23 10 1 16 16 16 17 17 16 15 15 14 14 12 12 14 16 17 16 15 15 15 16 18 19 19 20 21
31 31 26 15 12 13 17 24 25 25 20 21 24 26 30 32 33 35 32 25 16 7 8 19 18 18 19 18 17 16 14 13 12 11 10 12 14 14 15 14 17 18 17 17 20 20 19
34 31 29 20 17 15 22 24 17 23 18 18 20 23 27 30 30 35 32 27 20 7 5 15 21 21 20 20 19 16 14 13 13 14 13 13 13 15 15 15 17 16 17 17 17 18 16
31 32 29 27 25 23 27 26 14 20 18 16 16 21 24 27 29 31 28 26 21 12 5 11 18 22 23 22 20 20 17 15 16 16 18 19 18 17 17 17 18 17 18 19 19 20 19

GFSGBSN_500_spd_054.txt.gz
Wind_Speed
26 27 28 27 29 34 38 43 44 48 55 62 68 76 82 64 48 32 32 39 43 48 46 49 36 13 13 18 28 34 43 63 44 40 53 55 52 64 60 60 49 52 55 53 51 52 61
26 27 28 26 31 35 39 43 44 48 53 59 67 75 80 63 47 31 31 37 42 46 43 45 33 18 11 14 25 36 42 59 53 44 44 54 53 61 61 59 53 52 54 50 49 46 55
26 27 28 29 34 37 40 42 44 46 52 58 65 73 80 65 45 32 31 35 40 44 41 44 33 13 12 13 14 33 35 61 47 37 34 49 54 60 59 57 55 53 54 60 53 49 45
25 27 28 31 34 37 40 43 44 45 50 56 64 70 80 69 47 32 31 34 38 42 40 42 31 11 11 6 10 28 35 55 49 39 39 50 51 57 57 58 56 46 46 57 38 46 39
25 27 29 32 34 35 34 39 37 42 48 54 62 69 78 65 49 32 30 34 35 40 39 41 28 9 6 4 7 21 37 52 60 43 39 56 46 61 51 55 56 48 40 43 38 39 42
24 26 28 31 33 32 32 37 36 41 45 53 59 68 76 71 50 34 31 31 34 38 38 39 26 10 4 8 4 18 43 41 47 43 46 48 45 50 52 52 55 51 45 34 37 40 39
23 25 27 28 30 30 30 33 34 39 43 50 57 66 74 74 50 33 28 29 33 35 36 38 25 10 5 11 9 46 45 36 40 43 42 51 34 39 57 49 50 49 45 42 34 36 48
23 24 24 28 28 26 28 28 34 37 42 48 55 65 74 79 50 33 27 27 31 32 33 31 22 8 4 10 16 47 43 39 39 43 47 50 39 37 45 52 45 45 42 39 37 29 31
22 24 22 25 25 25 25 30 32 35 40 46 53 64 72 77 50 33 25 26 30 32 31 29 22 6 8 13 24 39 41 29 38 37 44 43 43 35 35 45 48 44 40 36 34 32 30
22 22 21 23 21 23 26 29 31 33 37 43 52 61 70 76 53 34 24 22 27 30 30 26 20 7 9 23 40 37 34 28 26 39 45 31 31 36 35 35 43 41 38 33 30 34 35
22 21 19 21 18 22 24 22 28 31 34 41 50 59 69 75 63 32 21 20 24 28 29 24 22 11 14 30 33 28 33 34 34 37 41 35 27 39 34 27 37 35 35 32 27 25 28
23 21 18 17 16 22 25 23 26 29 32 39 47 58 65 72 62 31 17 18 21 25 25 21 23 11 15 32 34 24 27 32 34 41 46 35 29 31 32 28 30 34 29 30 29 28 25
24 20 18 14 16 21 25 21 24 29 30 37 43 54 63 71 64 38 15 15 17 22 26 21 24 16 20 34 35 22 21 26 34 44 47 34 35 31 28 28 27 30 31 30 31 30 28
24 21 19 16 16 23 21 20 24 28 29 35 42 52 60 68 66 41 13 11 14 18 21 19 25 20 20 36 30 27 23 24 28 32 36 21 35 29 25 28 26 30 31 31 33 30 26
25 23 21 21 20 23 21 22 23 25 29 31 39 48 57 65 65 46 13 8 11 14 18 18 19 24 26 42 36 29 29 26 35 23 22 22 29 29 28 25 28 30 29 30 30 30 25
27 24 21 20 20 23 24 22 22 23 27 28 36 45 53 62 62 48 16 5 6 9 15 15 16 20 20 32 27 25 30 34 26 28 24 27 27 30 27 25 27 29 31 29 26 25 23
28 23 20 19 18 21 21 18 19 21 25 27 33 41 51 58 59 50 22 2 1 4 10 12 9 12 17 17 19 29 26 23 22 24 23 25 24 21 24 30 31 27 28 28 26 26 24
29 22 19 18 16 17 14 15 17 19 23 24 30 38 48 55 57 51 28 7 3 1 4 9 12 9 15 15 17 24 26 19 24 18 21 23 19 18 19 19 22 24 27 27 28 28 27
30 19 19 17 13 11 11 12 13 17 20 22 28 35 43 52 56 50 34 5 4 5 4 5 8 8 7 10 15 19 25 20 21 20 17 22 17 20 20 21 24 23 22 26 28 27 27
30 23 21 17 11 8 8 9 11 14 19 22 26 33 39 46 50 49 34 11 6 8 5 6 5 4 7 9 11 17 25 24 21 22 19 18 17 18 20 19 20 21 23 26 29 31 27
37 28 25 19 13 6 4 6 8 12 18 22 24 31 31 42 46 46 34 14 7 11 9 6 6 6 6 9 11 13 28 27 26 25 21 20 19 20 20 20 22 23 24 25 26 23 30
38 27 26 21 15 8 5 2 6 11 17 20 23 28 29 38 42 45 35 21 5 12 13 11 8 8 7 6 9 12 15 20 20 21 23 20 19 20 24 26 26 26 23 24 28 29 32
40 29 28 24 18 10 5 2 6 10 16 19 21 24 26 32 36 40 38 26 4 13 14 15 12 10 9 9 10 10 12 13 16 19 22 24 23 24 25 25 27 28 27 29 28 29 32
40 33 25 23 15 11 6 2 7 10 16 17 18 21 22 27 34 36 37 29 8 12 15 16 16 15 14 12 13 14 13 13 13 13 14 17 19 19 19 21 21 21 24 25 25 26 27
42 32 24 19 17 9 6 1 7 9 12 15 16 18 19 23 30 31 33 29 16 4 16 18 17 16 16 15 14 14 14 14 13 14 16 17 18 19 19 20 22 22 23 24 25 26 25
44 35 34 28 19 11 7 3 7 9 9 13 16 15 16 20 24 29 31 31 21 6 12 18 18 18 16 15 15 15 14 14 12 12 13 15 18 20 19 19 21 23 25 25 26 28 26
43 37 30 25 20 14 9 4 8 10 7 11 12 11 13 18 19 24 27 28 25 14 3 17 19 17 19 18 17 16 15 15 13 14 12 11 13 17 19 18 23 21 21 21 23 24 22
45 37 34 30 23 18 13 8 7 9 7 8 9 10 11 13 15 19 20 25 26 20 10 5 16 18 16 18 18 20 18 18 17 16 15 13 13 13 15 17 20 18 17 19 19 19 18
40 37 38 32 23 23 20 17 16 23 15 4 5 10 6 8 14 17 16 19 25 22 15 8 6 14 17 19 20 20 19 19 19 19 19 17 16 16 16 17 19 19 18 18 19 19 21

GFSGBSN_500_spd_057.txt.gz
Wind_Speed
28 28 29 30 34 35 38 40 42 44 43 48 52 57 66 74 76 70 52 37 35 36 40 43 44 40 24 15 32 33 35 43 62 38 51 59 55 59 64 60 57 54 55 52 57 53 59
27 27 28 31 33 34 37 37 37 40 42 47 50 57 65 74 75 71 50 36 33 36 39 40 42 36 18 14 16 35 37 40 59 40 50 58 53 57 64 64 59 58 55 57 54 43 48
26 28 28 31 33 33 36 36 34 38 42 46 48 56 65 73 76 66 45 35 33 35 39 39 41 30 14 11 14 25 35 37 59 41 37 51 55 52 61 71 54 47 51 49 57 56 47
26 27 27 31 32 34 34 33 33 36 40 43 47 56 64 73 75 66 46 34 33 35 38 39 38 23 12 10 11 17 32 40 62 38 33 43 49 48 56 66 50 50 46 46 57 50 50
26 26 28 30 31 30 31 32 33 33 39 42 46 55 63 73 75 66 45 33 33 35 37 40 35 19 11 2 3 18 35 48 60 42 40 38 43 46 50 54 58 62 44 38 53 52 50
26 26 27 29 29 30 29 30 30 34 39 41 44 54 63 71 76 63 43 31 32 35 35 36 30 16 4 3 4 13 37 53 50 44 39 32 50 49 50 43 62 53 44 39 42 51 48
27 26 27 28 28 27 27 30 30 35 39 40 43 53 62 70 75 65 42 29 31 35 33 34 27 13 4 5 4 21 37 48 53 46 39 36 38 38 47 41 54 50 46 41 39 39 49
27 28 27 27 27 26 27 30 30 34 37 37 42 52 61 68 74 63 37 27 29 32 33 30 22 10 1 2 13 27 41 48 51 53 54 26 32 33 41 47 51 55 48 46 33 32 42
27 28 27 26 26 24 26 29 30 30 34 34 40 50 59 66 72 59 37 26 28 33 31 29 21 5 4 2 14 30 23 38 48 51 47 31 24 33 34 46 46 54 48 43 37 30 25
27 29 27 26 25 24 25 27 28 30 32 33 39 48 56 64 71 62 33 22 26 31 30 29 17 1 3 9 17 33 27 31 39 40 41 41 25 29 25 39 42 43 40 38 36 33 27
27 30 27 25 25 22 25 26 29 28 31 32 36 46 54 62 70 60 33 21 24 29 26 28 17 5 4 13 28 19 24 31 35 36 43 32 30 29 29 29 43 40 33 31 28 28 29
29 31 27 26 24 22 24 25 28 25 29 31 33 43 52 59 68 62 27 18 22 25 23 22 16 6 8 27 26 18 21 24 33 39 33 33 25 26 25 26 30 40 39 29 25 24 27
31 30 28 27 24 23 24 24 25 24 27 29 30 40 48 56 65 61 30 16 18 23 22 24 16 14 22 38 20 22 23 23 34 43 22 29 26 24 27 23 19 25 35 30 31 30 29
33 31 28 27 24 24 26 25 26 23 25 26 27 36 44 51 62 59 32 14 14 18 21 21 12 21 24 22 25 25 27 24 30 41 33 28 32 25 29 27 20 23 28 30 32 31 31
36 31 29 26 25 25 28 26 27 23 23 22 25 32 40 49 58 57 39 13 11 16 19 18 10 23 24 17 20 22 22 28 32 38 39 27 27 25 27 27 25 23 28 33 33 33 31
35 34 31 26 26 24 27 25 27 18 19 19 22 28 37 46 52 53 40 13 8 12 17 17 11 26 25 23 23 19 21 26 26 32 36 23 23 28 21 24 24 22 25 29 29 27 25
38 31 34 27 25 23 24 22 20 14 16 15 19 25 34 43 49 50 42 17 3 7 13 14 16 26 25 23 23 20 20 26 24 24 28 19 25 25 21 21 21 24 25 27 28 26 22
41 35 36 28 23 23 21 17 15 10 12 12 17 22 31 38 46 49 45 21 5 3 7 12 15 16 20 17 18 21 23 19 19 19 17 21 22 22 23 22 22 24 27 27 27 24 24
47 34 34 29 25 22 16 13 10 7 7 10 14 19 28 34 44 47 44 26 3 2 4 7 13 10 12 18 18 22 23 22 20 18 22 23 20 18 20 22 21 21 23 22 24 26 26
47 28 34 30 20 22 13 12 8 4 3 9 11 16 25 32 39 44 43 31 6 6 4 5 5 7 9 11 22 22 17 23 17 16 16 19 16 15 19 18 15 17 19 21 26 29 26
46 41 37 32 29 21 13 12 10 5 3 7 10 15 21 27 35 40 42 36 14 8 8 6 6 6 8 10 14 25 23 18 16 16 15 16 16 16 17 17 17 18 20 23 25 20 26
53 47 44 28 26 23 17 14 10 5 2 6 7 12 17 23 30 35 39 36 20 8 12 9 8 8 7 9 11 14 28 27 21 19 19 19 19 18 19 20 20 19 22 25 25 23 28
50 42 32 34 25 26 22 15 10 5 1 4 5 9 13 15 25 29 35 37 26 8 12 14 11 9 9 8 9 12 21 22 24 24 25 24 23 22 21 22 23 25 25 27 29 29 31
52 46 41 39 29 28 23 16 10 7 4 3 4 6 10 13 19 26 30 36 31 13 11 15 15 13 11 10 11 12 14 16 21 22 24 25 25 26 25 26 28 28 28 30 32 35 35
52 38 43 39 29 31 23 19 10 7 6 3 3 5 8 10 13 22 26 30 30 21 6 14 16 16 14 14 12 13 14 16 17 18 19 20 22 22 23 24 28 29 30 30 31 31 30
43 44 40 36 30 29 24 18 10 7 6 4 4 4 6 9 8 14 22 26 30 24 11 10 17 16 16 16 16 15 16 16 17 17 17 18 19 21 21 23 25 27 25 26 28 32 29
56 40 40 41 34 26 18 20 13 4 8 6 9 5 5 6 8 9 17 22 25 24 16 7 14 17 19 19 16 16 16 16 17 18 17 16 16 18 20 23 27 24 23 24 27 30 28
43 48 44 42 33 30 21 21 14 7 1 8 10 7 5 7 8 6 7 17 21 24 20 14 5 14 19 19 19 18 17 17 18 17 17 17 16 15 16 18 22 21 22 24 25 26 26
42 51 43 41 35 24 32 23 15 8 8 9 13 12 7 9 8 6 6 10 16 16 20 18 14 4 12 18 19 18 17 18 17 17 18 17 18 18 18 18 19 21 23 25 24 23 24

GFSGBSN_500_spd_060.txt.gz
Wind_Speed
30 32 29 32 33 35 36 39 38 37 40 43 44 45 49 57 66 73 77 65 43 34 32 34 39 42 44 36 18 28 49 35 34 49 40 59 58 58 58 58 57 60 56 48 50 47 53
32 30 31 31 33 36 36 38 38 36 38 41 43 44 49 59 68 73 76 64 39 32 32 36 38 43 41 30 12 29 34 36 38 53 39 52 47 54 56 58 57 52 50 58 55 51 48
35 33 31 32 33 34 35 36 37 36 38 40 44 43 49 60 68 73 76 59 37 33 34 38 39 41 37 16 14 15 29 32 39 57 45 45 51 56 56 52 55 52 46 49 59 42 60
36 34 32 34 33 33 34 36 36 36 39 40 44 44 50 60 67 72 75 57 36 32 35 38 38 39 24 15 12 17 27 30 43 60 34 38 52 54 51 54 42 55 61 40 47 48 53
36 36 33 35 35 34 34 35 35 36 38 41 43 42 50 60 66 71 73 51 34 32 36 37 37 32 17 2 6 15 24 32 40 51 34 41 51 51 52 49 51 52 46 49 37 62 27
39 35 36 35 35 33 33 32 34 36 37 39 39 40 50 58 66 71 70 48 34 32 36 35 36 26 9 6 13 7 25 31 44 56 39 46 40 49 45 46 51 49 51 55 50 52 56
42 34 37 35 35 33 32 31 34 36 37 34 38 39 49 58 64 70 67 41 33 33 36 35 33 19 5 9 9 6 30 36 47 38 35 37 47 48 47 28 44 52 49 38 43 22 45
43 39 37 37 35 33 32 30 33 35 35 33 36 37 47 56 62 69 66 41 29 30 35 34 28 13 4 10 2 15 36 41 52 42 36 36 37 33 41 36 45 47 42 40 39 26 36
47 43 34 35 35 36 31 30 33 34 34 32 34 35 46 54 61 67 60 39 28 32 33 33 25 7 7 7 4 21 35 37 48 35 29 28 44 41 41 39 41 36 42 32 32 26 27
54 45 34 37 35 33 31 31 32 32 32 31 32 33 42 50 59 67 55 36 27 32 33 32 19 5 6 8 9 27 28 37 28 31 28 29 42 42 37 37 39 35 35 47 37 26 21
58 47 39 37 37 33 32 31 32 31 29 29 30 30 40 47 56 65 57 34 25 30 30 30 14 7 6 9 22 11 34 31 35 39 34 35 34 27 32 40 37 32 35 24 36 36 29
60 52 41 36 36 35 30 31 31 28 27 28 28 28 37 45 54 62 54 31 25 29 28 25 11 10 15 15 17 23 27 28 33 31 27 31 29 24 23 30 35 35 34 44 38 34 32
69 58 44 38 36 34 30 31 31 28 28 27 25 25 34 43 51 58 54 29 22 26 29 19 10 10 22 19 15 15 29 27 27 31 29 32 32 24 21 19 26 32 32 35 31 33 33
73 59 50 39 34 34 28 29 31 29 27 24 20 22 31 39 46 55 53 30 20 23 25 12 9 21 20 9 15 17 24 32 30 32 26 22 26 21 21 19 18 26 32 33 38 37 30
69 58 55 39 34 33 27 28 29 28 26 18 16 19 29 34 42 53 49 28 22 20 21 12 18 24 17 14 14 9 19 28 30 27 24 28 24 16 19 20 17 19 26 29 33 37 35
68 57 58 41 34 30 31 26 27 25 22 14 11 16 25 31 39 49 48 32 17 16 19 12 18 14 14 17 14 12 17 25 36 27 26 25 28 21 20 22 18 16 19 23 27 28 27
65 56 58 44 35 29 32 25 24 21 18 9 7 13 22 29 35 46 45 32 15 11 16 9 20 13 17 16 19 17 18 21 26 31 23 23 19 20 21 23 21 20 17 21 26 27 20
61 58 54 48 33 32 27 24 23 17 15 6 4 10 20 23 31 43 43 34 18 8 11 6 14 15 12 12 12 14 22 20 21 26 32 25 18 23 23 18 20 21 20 20 22 24 22
59 62 51 48 36 36 30 26 23 15 12 4 2 7 14 22 27 39 40 36 22 5 5 9 11 16 11 10 8 19 19 20 20 20 22 22 19 23 20 16 18 17 16 18 18 22 24
59 60 52 50 30 30 28 24 21 16 13 6 3 5 11 20 22 34 38 36 28 7 0 2 3 8 17 13 11 15 16 15 14 14 14 15 15 16 15 13 13 13 16 18 21 22 19
59 55 56 48 35 33 26 24 20 19 14 8 5 4 7 17 20 27 36 35 33 12 4 3 2 4 6 15 18 16 16 15 14 13 13 14 15 13 12 13 15 16 18 21 23 18 24
47 59 59 46 32 37 30 26 23 20 15 10 7 3 4 8 18 22 30 33 33 23 5 6 4 3 4 7 18 24 18 17 17 13 12 12 15 14 11 12 12 14 16 18 18 19 22
48 63 56 40 28 29 32 26 25 22 17 11 9 5 2 4 15 19 25 27 31 25 11 8 7 4 5 5 9 21 27 22 20 15 14 14 14 14 12 14 15 18 17 18 19 20 23
50 56 60 37 38 28 28 30 27 23 19 14 10 6 1 3 6 17 19 22 29 26 15 5 10 10 9 7 7 11 16 24 24 22 20 20 20 21 20 20 22 23 22 24 25 26 27
62 60 62 34 35 31 24 33 30 24 21 17 12 8 5 2 3 10 17 21 22 25 21 9 8 14 12 12 10 10 10 16 17 18 20 21 23 24 25 28 31 31 31 29 30 30 31
61 58 41 38 37 33 27 34 31 26 22 18 13 9 8 4 4 5 12 16 19 23 24 19 7 10 14 14 14 14 14 14 16 16 17 19 20 22 22 24 27 29 24 25 28 30 27
50 54 50 39 39 35 35 38 30 25 22 18 13 10 7 7 4 6 5 12 17 17 22 22 18 8 13 15 14 14 15 16 17 17 19 20 20 20 20 22 23 23 24 25 28 29 27
60 63 46 38 40 36 33 41 33 25 22 15 13 10 8 9 7 7 7 7 13 13 15 19 21 16 9 12 14 16 15 15 15 16 17 18 18 19 20 20 19 19 20 23 25 25 26
64 58 47 37 39 38 34 28 31 28 22 10 13 15 14 14 10 7 7 6 8 10 14 14 19 21 13 7 10 15 15 16 16 17 18 19 19 19 19 19 20 21 21 23 22 25 27

GFSGBSN_500_spd_063.txt.gz
Wind_Speed
37 37 36 35 38 38 37 38 36 38 38 40 43 42 42 45 49 58 67 71 73 63 44 33 32 36 38 40 37 22 33 39 36 42 32 49 59 56 58 59 65 52 49 49 52 56 57
38 37 36 35 38 37 38 37 37 37 39 41 41 43 44 43 50 60 67 71 72 59 41 33 35 38 39 41 31 16 24 46 35 38 43 40 58 54 57 58 65 56 39 55 46 50 58
43 45 42 39 35 38 39 37 37 37 39 40 42 42 39 41 52 61 68 72 69 53 39 34 37 39 39 35 23 14 18 42 42 29 39 43 45 48 54 57 64 56 46 48 39 54 54
41 42 47 45 42 36 38 37 36 38 40 40 40 40 38 40 52 61 68 71 66 48 37 36 38 39 35 23 9 10 18 27 43 37 48 42 45 48 44 50 62 57 46 44 52 52 47
47 44 43 49 47 39 36 39 36 37 40 39 39 39 39 41 51 61 69 70 61 44 36 36 36 37 26 9 8 12 13 23 37 40 58 35 45 43 44 47 51 53 55 51 52 40 38
47 48 48 47 52 44 35 37 36 37 39 38 38 39 38 42 51 60 67 68 57 43 36 36 37 31 15 9 14 9 10 25 39 43 54 38 49 42 47 44 46 48 49 46 49 61 32
49 47 50 50 50 52 35 35 36 37 39 38 37 36 36 42 51 60 65 65 50 38 36 36 36 19 10 16 13 8 11 29 42 40 41 35 47 40 39 41 40 28 42 46 49 27 39
58 53 50 50 51 53 40 34 32 36 37 36 36 35 35 42 50 59 63 62 45 34 36 38 32 14 14 14 10 5 22 27 41 41 41 33 42 41 39 40 36 37 36 47 49 37 22
68 62 52 52 51 55 49 36 34 35 37 36 34 32 33 42 49 56 60 60 40 32 34 38 23 14 15 15 13 15 29 26 35 36 33 39 29 41 40 35 35 36 38 36 38 37 32
70 71 63 60 55 52 56 36 32 34 36 33 31 30 32 40 47 53 60 55 37 31 34 31 19 15 14 15 12 23 25 27 31 31 27 31 29 32 32 33 30 33 38 40 29 32 38
82 75 74 65 54 51 55 40 26 35 33 32 29 28 31 39 46 51 57 51 36 31 34 26 18 15 25 21 11 15 29 32 22 21 27 34 35 25 32 38 32 25 37 36 25 30 29
92 86 76 71 58 49 54 50 26 32 31 30 28 25 29 36 42 48 56 47 34 28 26 21 10 14 19 15 14 26 21 24 21 28 27 37 39 32 28 32 30 28 24 24 37 29 24
103 91 85 76 62 51 53 51 34 31 31 28 26 23 26 33 38 44 54 43 27 25 22 19 13 9 15 12 14 22 25 22 23 26 32 38 31 24 33 31 29 26 25 26 33 33 32
84 93 81 72 66 49 51 48 27 33 31 26 23 19 23 29 34 40 52 41 25 24 17 14 17 14 13 15 12 16 15 18 30 29 30 30 29 25 26 30 32 34 30 34 26 25 25
63 66 68 65 59 49 51 48 28 32 26 21 19 14 20 25 31 37 47 41 23 22 14 18 14 8 9 13 11 18 14 11 21 26 26 33 26 21 15 16 25 32 31 27 25 27 28
48 61 63 58 54 50 51 49 24 26 23 16 14 12 16 20 27 35 42 39 17 20 13 13 12 11 14 7 11 12 15 14 21 18 20 28 22 15 15 15 15 17 24 27 26 28 29
46 62 63 56 51 52 48 47 20 29 21 13 13 11 12 17 23 31 39 36 19 16 16 13 7 6 10 17 10 12 19 17 19 15 19 22 14 14 17 21 19 16 18 23 28 29 26
45 62 59 56 55 52 45 42 24 19 21 15 14 10 7 13 20 26 37 34 28 13 15 10 8 7 8 16 13 17 17 19 22 17 16 17 23 15 13 19 20 17 17 19 21 23 23
51 64 59 53 54 49 47 41 22 22 22 17 16 7 4 11 16 21 31 32 26 12 11 13 14 4 5 11 12 12 21 19 22 22 17 18 15 11 13 16 15 15 16 16 17 22 25
60 61 57 47 55 50 48 33 22 23 24 22 17 9 1 9 15 17 27 29 30 20 9 9 6 9 7 4 8 17 18 18 16 21 21 22 22 15 16 18 12 14 15 16 18 19 20
66 61 54 41 48 46 47 30 23 29 28 22 18 12 6 9 11 15 22 27 30 25 14 5 5 5 1 7 7 13 16 17 16 14 15 15 18 14 15 14 13 15 16 18 18 17 21
67 63 44 46 45 46 44 29 29 23 31 23 19 14 10 8 12 15 18 23 26 28 19 5 4 3 3 6 12 13 11 10 10 10 12 14 14 13 9 9 10 10 12 12 12 16 18
68 58 46 47 56 46 38 25 26 27 30 25 21 16 13 11 10 12 15 19 23 26 24 12 2 2 1 2 8 16 15 11 11 9 8 7 8 8 8 8 9 9 11 11 11 13 14
70 54 54 43 51 50 33 28 30 33 31 28 23 18 14 11 7 8 13 17 19 23 24 20 6 2 2 2 1 7 19 20 17 15 14 11 12 12 13 15 15 14 15 16 16 17 18
67 44 48 46 44 45 31 26 32 38 32 29 24 20 16 11 9 4 8 14 17 19 23 25 18 8 6 6 5 4 5 12 23 23 23 21 19 18 17 17 20 20 20 21 22 23 24
66 54 55 55 55 45 30 26 31 40 32 31 26 21 17 13 8 6 2 9 13 17 18 21 22 16 5 7 9 9 8 9 10 15 18 17 17 19 21 23 23 23 21 21 23 25 26
61 62 56 50 48 31 30 32 33 42 34 31 27 21 17 13 9 6 3 3 9 12 16 17 20 22 12 5 4 9 12 14 15 16 17 19 20 20 22 23 24 24 24 25 27 28 29
53 55 48 53 43 31 34 31 38 43 36 33 27 22 18 15 11 8 4 5 3 8 11 15 19 20 22 15 8 4 10 14 15 17 17 19 21 22 23 23 23 24 23 23 25 25 27
51 56 47 56 45 35 37 28 42 43 37 32 27 24 20 15 12 10 7 5 4 4 7 10 13 13 17 21 21 13 6 7 12 13 16 17 21 22 24 24 23 24 24 25 26 27 27

GFSGBSN_500_spd_066.txt.gz
Wind_Speed
46 43 42 42 44 45 44 42 38 37 36 37 39 40 42 42 38 41 48 57 63 69 72 63 47 37 36 38 40 43 38 22 39 28 26 29 46 52 58 62 67 59 66 44 58 56 55
48 47 47 46 43 43 43 44 43 39 36 37 39 41 41 41 39 42 51 59 64 71 68 56 43 38 40 42 42 38 30 21 45 36 27 31 43 53 54 64 57 62 63 52 47 57 56
48 48 51 51 48 43 43 46 45 38 36 37 41 41 41 40 41 44 52 60 66 70 64 49 41 40 41 42 35 22 14 15 47 44 40 30 45 53 54 65 54 45 57 49 42 53 58
47 49 50 47 51 52 49 44 46 46 34 35 41 40 41 40 42 47 54 60 66 66 58 46 41 41 41 32 14 7 13 16 45 48 34 30 44 51 52 63 65 48 59 65 42 55 51
50 51 53 50 47 48 50 45 44 50 38 32 40 41 41 40 42 48 55 61 66 62 50 46 42 40 29 14 12 13 16 13 40 37 34 37 40 49 52 55 63 52 55 45 45 48 53
54 52 53 55 51 51 50 48 50 48 45 30 35 40 38 40 43 49 54 60 63 55 47 42 41 32 18 16 14 11 11 13 37 37 39 37 36 50 44 49 59 52 56 58 33 53 52
58 56 55 57 55 54 50 50 47 49 49 36 33 38 36 40 45 48 54 59 57 49 44 41 34 22 14 13 17 14 5 17 40 40 44 43 35 49 45 37 50 52 51 34 40 45 41
60 60 59 60 58 53 50 47 48 49 50 44 31 38 33 39 45 48 53 57 50 47 40 34 27 15 13 11 17 7 5 27 37 36 40 36 36 46 33 37 47 51 56 54 41 41 32
77 76 71 66 61 58 52 50 48 48 51 48 31 35 31 39 45 46 51 54 45 38 35 29 19 14 15 9 9 8 18 29 36 34 50 31 48 37 41 39 35 36 39 41 45 34 37
76 78 80 82 78 69 68 63 58 49 52 53 28 31 31 38 41 44 49 48 44 34 28 20 19 24 23 25 21 21 23 24 30 29 38 34 52 32 36 38 29 28 32 32 38 35 35
95 93 93 88 83 81 75 69 53 48 51 52 35 27 31 35 39 42 46 44 39 30 22 13 14 15 16 14 16 23 23 25 26 34 26 33 44 29 38 30 32 24 21 21 22 31 32
106 103 104 102 90 82 83 70 64 50 49 51 39 23 29 33 36 38 42 43 32 24 15 9 16 14 16 22 18 23 22 20 28 25 26 26 26 27 27 29 24 15 22 24 20 22 24
93 85 83 89 91 83 79 75 66 52 48 50 28 23 28 30 32 35 37 39 25 19 16 8 8 15 11 18 13 10 16 21 25 26 30 33 28 23 34 30 28 16 20 27 24 24 23
56 43 40 51 56 57 64 73 67 54 46 47 19 24 27 25 27 31 34 34 24 17 18 14 8 11 9 13 19 13 14 19 19 26 35 30 24 29 33 34 32 23 20 24 26 34 22
14 13 9 14 56 58 57 53 61 51 46 47 17 22 24 21 23 26 31 30 19 15 16 15 10 11 13 13 8 11 15 24 22 23 32 28 22 24 26 25 25 25 20 27 29 31 27
7 11 11 26 58 60 58 50 54 44 40 37 17 24 17 16 18 21 28 26 18 13 12 13 12 12 16 11 6 6 10 22 21 25 27 22 21 25 22 23 23 24 27 28 27 23 22
8 6 16 24 61 59 48 45 44 38 38 28 16 22 14 10 11 18 25 23 18 12 10 13 11 9 14 13 9 7 7 11 18 23 29 23 19 15 16 16 21 29 32 31 27 26 27
13 14 21 46 60 56 40 45 39 37 47 29 20 19 13 4 8 16 22 23 19 14 14 14 13 11 11 14 5 7 9 9 13 19 16 18 11 8 9 13 13 15 19 26 28 25 23
23 21 26 48 65 64 44 45 43 42 40 20 22 18 12 3 6 13 20 23 17 15 18 16 14 15 11 13 6 8 13 10 9 9 10 13 13 9 5 7 13 15 13 15 18 20 23
27 23 34 59 69 46 46 41 41 33 33 23 26 19 13 7 9 10 18 22 20 15 16 16 12 12 11 16 13 16 14 13 13 12 6 6 12 10 3 6 10 10 13 15 16 19 22
29 26 46 67 62 49 51 44 43 34 27 27 26 22 14 11 12 10 16 20 21 18 16 15 14 11 10 7 9 14 18 16 14 17 18 18 19 19 15 13 14 13 14 16 16 18 20
34 37 65 72 62 50 42 48 41 35 25 21 27 23 17 14 15 11 15 19 22 25 18 13 14 13 13 11 13 13 15 20 15 13 14 16 16 14 11 12 14 14 15 18 16 20 23
31 54 71 74 59 54 40 49 36 25 30 30 31 24 19 18 17 12 14 16 21 26 23 15 14 11 12 12 12 12 11 11 11 10 10 9 10 11 11 10 10 11 12 13 13 14 14
45 65 70 60 62 49 38 41 31 32 24 37 33 26 22 20 18 16 12 12 18 24 24 22 13 11 9 9 8 12 13 12 10 9 9 8 9 9 10 11 11 11 11 13 14 15 17
49 57 66 64 54 48 42 36 29 24 25 35 31 27 24 22 18 16 13 13 15 22 24 25 22 12 9 9 9 7 3 12 17 16 16 16 15 15 14 15 15 16 18 20 22 22 23
72 79 73 51 47 47 41 36 35 27 32 36 32 27 25 25 20 16 11 11 12 16 21 23 23 22 15 6 5 7 7 7 5 9 19 23 20 21 20 21 23 21 21 22 23 25 25
76 75 63 50 51 49 36 36 34 31 36 36 31 29 27 25 21 16 12 10 9 12 16 18 22 20 21 20 10 2 5 8 9 11 12 14 17 20 21 23 25 25 24 25 24 25 26
70 63 49 54 48 44 41 35 34 32 41 35 32 30 28 25 21 17 12 9 8 8 11 13 15 19 20 22 20 16 8 2 7 12 15 17 20 22 24 24 23 26 27 27 27 27 27
49 45 49 49 46 42 43 34 30 34 40 35 33 31 27 24 21 17 13 10 7 5 5 7 10 12 15 16 17 16 18 15 8 4 8 10 12 18 20 22 24 24 25 28 29 30 31

GFSGBSN_500_spd_069.txt.gz
Wind_Speed
46 47 47 47 46 44 45 45 45 44 43 43 43 38 39 39 40 42 44 47 50 54 60 64 66 64 57 47 45 46 47 48 44 31 30 30 22 13 36 47 57 50 52 55 48 53 53
48 48 47 46 47 49 45 45 44 46 42 43 46 43 37 38 40 42 45 50 53 57 61 64 64 60 53 51 47 46 43 37 29 23 36 31 28 31 42 31 52 49 57 55 38 54 55
50 49 49 47 47 48 48 48 46 46 45 46 46 49 37 35 39 42 47 50 54 58 62 63 61 57 53 49 43 32 23 15 16 26 35 31 33 33 40 37 48 56 52 57 51 54 53
53 51 50 50 48 48 47 49 47 47 46 47 46 48 53 40 38 42 48 51 55 59 61 61 56 53 49 42 25 19 17 16 15 34 33 33 35 47 23 40 51 62 43 33 63 60 53
56 55 53 53 51 49 50 48 49 48 47 43 47 48 53 50 41 46 49 51 56 58 60 54 54 49 41 27 21 18 16 18 15 36 44 30 32 38 25 43 54 73 39 44 57 57 50
57 56 56 56 56 54 51 51 51 50 45 45 43 46 51 57 43 47 48 52 55 56 53 51 48 43 30 19 15 16 15 13 13 35 39 35 37 39 37 48 55 54 26 32 64 48 39
57 57 58 60 62 61 57 55 55 50 46 44 45 44 48 58 51 49 47 52 54 52 49 48 42 31 22 18 17 17 19 9 17 31 33 36 32 39 43 48 56 50 24 37 49 50 40
58 60 61 62 62 61 60 61 62 55 47 45 46 49 52 57 53 49 46 49 53 51 43 39 25 25 23 17 15 17 6 6 30 32 28 34 26 35 43 42 42 54 42 32 40 32 49
65 66 69 70 70 69 67 68 61 57 54 51 51 50 52 53 58 52 44 47 50 41 38 27 22 20 21 19 14 9 6 19 34 34 27 25 25 34 33 33 35 36 42 28 28 56 19
75 80 82 84 83 79 77 74 68 64 59 55 48 49 47 50 54 50 41 44 44 35 28 18 17 19 14 15 16 14 13 22 29 30 23 30 28 38 37 15 24 31 37 41 34 35 33
87 93 97 97 98 93 86 82 74 65 61 57 52 49 46 53 57 48 38 41 38 32 21 16 13 15 11 15 19 19 22 26 23 31 29 28 35 32 23 26 29 25 32 29 35 39 27
91 86 82 82 82 80 80 79 72 67 64 61 51 51 43 53 53 41 34 37 33 22 14 7 11 12 11 18 20 23 16 18 18 18 28 31 40 21 23 23 28 22 20 11 11 28 31
75 63 65 62 33 31 40 59 58 60 63 60 51 46 43 50 51 37 31 32 24 13 10 3 6 11 9 13 22 13 10 14 19 22 25 35 39 17 24 23 22 17 20 19 17 20 23
59 57 55 18 17 19 16 31 58 54 56 52 46 44 44 46 41 26 28 26 15 8 4 5 8 13 11 11 16 11 13 15 17 21 23 24 31 12 20 23 20 13 10 14 16 14 17
53 53 27 17 11 14 6 42 65 55 44 39 42 44 43 46 28 22 24 21 7 3 8 9 12 16 10 12 14 15 13 16 17 27 30 24 25 22 25 22 18 14 7 13 18 15 19
48 58 27 20 24 23 12 53 59 49 41 36 35 42 44 36 22 19 19 13 4 7 9 10 11 16 9 11 10 11 14 15 19 27 21 14 19 18 28 23 16 13 11 16 13 19 23
49 44 19 16 15 20 29 61 54 48 39 34 35 39 42 20 16 16 14 6 4 11 9 11 12 18 13 8 10 15 13 15 23 22 18 11 15 23 19 18 17 17 17 17 17 17 21
47 28 22 13 14 12 38 52 48 37 36 32 27 33 26 17 11 11 5 4 7 15 11 11 15 17 13 9 7 19 19 18 21 21 17 16 16 10 9 11 16 21 22 23 23 20 17
46 22 19 17 14 25 47 63 50 42 34 33 32 32 18 15 10 7 5 9 13 16 14 14 14 15 13 10 9 11 11 16 15 13 17 13 7 10 9 7 8 9 14 22 27 27 26
42 27 26 22 18 40 51 45 45 46 36 31 27 33 17 15 10 4 9 15 15 16 19 17 14 13 17 14 9 12 9 7 10 13 10 5 8 8 5 2 7 12 13 12 14 17 25
30 29 26 22 23 40 50 44 52 39 33 24 28 20 19 15 12 10 12 19 19 17 19 17 17 15 15 16 11 9 11 12 6 6 6 3 5 7 9 7 6 7 7 11 13 14 18
20 28 32 20 33 52 59 53 51 36 30 28 26 20 22 18 14 14 17 20 23 21 20 18 17 17 14 12 13 16 16 13 10 8 9 13 14 16 13 10 9 11 9 10 12 16 17
15 23 28 37 57 58 53 56 43 34 30 25 25 24 23 19 20 19 19 21 21 24 23 19 17 18 18 16 14 12 13 15 15 13 12 11 12 11 10 8 8 9 11 13 15 17 18
14 30 31 56 64 53 54 50 44 33 31 30 31 30 26 23 23 22 20 22 23 22 25 20 17 17 17 16 15 14 15 15 13 10 7 7 5 6 6 8 9 10 11 11 11 13 15
26 42 47 60 56 55 53 46 37 34 31 28 28 31 27 26 29 24 21 22 22 25 24 25 20 19 17 15 14 13 14 14 12 11 10 8 9 9 10 11 12 13 15 15 17 19 21
48 57 65 63 45 57 49 43 39 30 30 24 31 30 29 28 30 26 22 21 23 23 25 23 23 21 17 15 12 11 10 9 8 10 13 16 16 15 15 18 19 18 20 21 22 24 25
62 63 62 49 49 51 42 41 37 33 30 33 33 30 30 29 28 27 22 20 19 21 23 22 22 22 21 18 12 10 8 8 6 8 10 9 10 13 16 18 20 21 24 25 25 25 28
68 65 55 44 38 41 43 35 34 34 35 36 34 31 32 30 28 25 22 19 18 17 17 19 18 18 19 19 17 15 12 9 5 4 3 4 7 11 14 16 17 16 20 21 24 27 28
62 51 54 35 34 40 40 34 31 29 37 36 33 31 31 30 26 22 20 17 14 14 14 13 14 14 14 15 14 11 11 10 10 10 7 2 4 3 5 6 11 13 15 17 19 20 23

GFSGBSN_500_spd_072.txt.gz
Wind_Speed
43 45 44 41 42 43 44 43 44 45 43 43 43 44 44 43 45 51 44 39 39 46 49 52 55 57 60 63 59 63 57 55 50 42 45 45 43 40 34 37 53 67 65 61 50 43 60
45 47 47 46 44 45 46 46 44 46 45 44 42 43 46 45 44 50 52 50 42 50 49 52 56 59 62 62 58 57 55 47 37 35 34 31 29 27 31 20 38 40 54 62 51 41 45
48 49 49 50 50 49 48 48 46 44 44 44 46 44 44 47 44 47 52 62 47 53 51 52 57 60 62 59 57 52 43 35 27 24 19 24 31 31 27 12 30 28 46 54 50 47 54
53 52 52 52 52 52 52 50 48 48 45 45 45 47 44 46 45 46 52 62 54 56 53 54 57 60 59 56 50 43 30 26 21 16 15 31 26 30 29 25 26 29 41 45 47 45 55
56 56 54 52 53 53 52 52 50 49 48 47 47 46 46 44 46 46 50 59 63 61 54 53 58 57 54 47 43 34 22 17 18 17 19 27 27 28 23 25 24 42 42 43 52 53 49
59 56 53 53 54 54 56 54 53 52 53 52 52 49 48 49 44 51 53 57 63 62 54 54 54 54 45 41 38 30 24 20 21 14 32 27 29 29 31 16 26 45 49 39 46 51 37
61 58 57 58 58 59 61 58 56 55 57 56 57 55 49 50 45 52 52 55 61 63 54 50 51 40 38 33 29 22 22 17 11 16 33 29 28 38 23 16 28 42 45 40 50 42 35
64 62 62 64 65 65 64 65 65 63 59 58 55 49 48 53 46 49 44 56 58 60 51 46 41 34 24 25 25 17 9 6 11 22 33 25 25 35 19 18 31 41 60 25 36 32 43
68 71 73 75 75 76 76 73 71 70 66 64 57 53 48 51 47 49 49 47 55 64 45 40 28 20 19 18 18 21 20 13 27 26 25 21 21 32 22 18 25 39 55 28 14 24 47
76 78 80 78 75 74 74 76 76 73 72 65 62 53 46 49 47 43 48 48 54 62 39 28 20 14 15 12 13 12 16 22 26 19 15 16 13 23 19 19 23 35 54 38 20 25 37
82 82 77 75 68 61 59 65 71 76 72 64 59 48 43 47 40 41 41 42 51 53 33 18 8 10 15 15 17 21 21 23 21 17 17 16 22 19 15 13 21 21 33 30 29 28 33
81 77 71 65 60 58 59 26 25 34 64 64 54 45 46 34 36 37 41 43 48 37 24 13 4 3 10 13 16 15 13 12 15 17 17 22 32 33 19 21 16 14 14 12 18 17 26
74 66 63 57 58 51 29 13 24 25 37 60 49 48 39 35 32 34 37 38 44 31 17 5 7 7 13 7 8 7 6 8 7 15 20 21 26 19 16 22 17 15 12 13 13 10 24
67 61 58 54 45 46 23 20 22 29 31 59 52 49 31 31 28 31 32 39 36 22 8 6 8 7 11 12 9 10 10 12 15 18 20 30 18 25 21 20 19 27 19 15 17 13 16
63 60 54 44 50 22 24 23 25 26 51 58 52 36 30 25 26 31 34 36 24 14 4 16 12 9 11 10 12 12 12 13 17 21 28 26 17 18 18 19 21 17 16 10 14 14 16
58 52 42 42 28 13 16 22 16 35 61 46 37 32 27 23 25 33 30 31 17 11 5 15 15 12 14 11 11 11 10 20 27 20 14 13 10 11 18 17 13 10 8 9 8 11 18
53 43 41 39 2 8 6 11 4 46 47 41 37 32 23 21 27 29 28 17 13 9 9 16 18 13 14 17 15 15 14 24 23 20 12 15 8 15 13 13 10 10 9 7 7 12 13
45 40 39 8 5 3 6 17 33 35 44 36 36 25 25 22 26 27 20 9 12 12 12 19 20 16 14 20 19 20 19 22 22 17 14 16 15 12 10 7 9 10 11 8 10 11 14
45 37 37 11 9 4 15 25 45 33 26 42 34 30 17 21 18 17 13 5 13 14 13 22 22 18 13 18 21 21 24 22 19 20 20 15 14 14 11 6 2 5 7 10 12 17 16
44 39 22 17 11 10 19 26 49 31 52 35 30 26 23 18 14 11 7 11 17 17 21 23 25 20 17 15 16 17 19 17 17 17 9 10 15 13 11 7 1 2 2 5 9 14 18
42 33 6 19 14 20 27 42 48 39 41 40 30 23 15 17 16 10 10 17 20 19 20 23 22 21 21 18 13 9 10 15 13 9 8 7 6 3 6 6 4 1 2 5 7 9 10
37 14 13 21 16 25 29 42 35 35 48 32 33 21 19 19 13 11 13 20 23 23 20 19 22 21 22 23 18 13 12 8 4 2 3 3 5 6 10 4 3 3 5 3 4 7 11
24 7 28 17 17 35 41 46 30 39 42 34 26 19 19 17 17 20 20 22 24 25 24 22 22 21 20 18 17 15 17 15 9 5 5 8 6 8 10 4 3 1 3 6 7 9 11
11 20 31 22 43 52 38 35 32 39 34 28 23 20 22 20 23 25 26 27 25 24 24 23 23 23 22 19 15 13 14 17 17 10 7 4 6 6 6 5 3 5 5 6 7 9 11
6 30 50 52 51 43 42 32 37 35 32 31 27 23 21 23 28 26 27 28 30 30 24 25 22 20 19 17 16 16 15 16 14 12 11 7 6 5 5 5 6 7 10 11 13 15 17
18 52 54 53 48 52 37 33 35 34 30 29 26 25 22 25 30 30 29 29 28 27 26 25 25 23 19 17 14 14 13 13 15 14 14 13 12 12 12 12 13 13 16 17 18 20 22
38 57 58 50 42 44 36 29 31 29 28 27 28 25 23 29 33 30 28 27 26 27 27 25 24 22 21 18 15 13 12 10 6 8 8 7 9 9 10 12 13 14 17 18 18 17 21
47 51 47 39 38 39 36 30 26 24 26 31 30 25 26 31 34 31 28 26 24 23 24 22 21 20 20 18 16 15 14 11 9 9 7 6 4 5 4 7 8 8 10 11 11 12 15
45 47 46 45 34 40 33 26 24 22 23 31 29 27 29 31 33 31 26 22 20 20 19 18 18 17 16 15 13 12 10 9 7 6 4 2 2 1 3 5 6 8 10 12 14 17 20

GFSGBSN_500_spd_075.txt.gz
Wind_Speed
48 48 48 48 47 45 44 46 46 45 44 44 43 42 42 42 43 43 43 43 44 42 49 54 45 48 47 49 49 53 56 60 60 56 57 50 45 47 49 48 50 53 49 53 50 49 41
50 52 53 53 52 49 49 49 48 49 48 46 46 46 44 43 44 43 44 44 46 44 49 57 58 55 55 54 50 54 58 59 60 53 45 40 37 37 37 43 47 44 49 49 54 50 43
54 55 56 57 57 56 54 51 51 50 51 50 47 46 45 45 43 46 43 46 47 51 52 55 58 62 60 54 54 55 56 58 57 43 30 32 26 26 19 23 36 41 44 51 56 50 43
60 61 63 61 59 58 55 52 49 49 50 51 51 47 46 46 43 44 44 46 47 50 55 55 60 61 63 54 54 56 55 52 40 25 21 22 17 21 20 15 27 21 34 50 56 52 44
65 67 67 63 61 57 53 50 53 51 51 53 53 51 49 47 46 44 46 47 48 47 54 54 59 65 60 52 54 51 48 38 29 24 19 18 17 26 24 11 17 15 16 33 38 53 50
71 73 71 68 61 54 52 52 53 58 60 59 58 56 51 49 46 46 47 51 46 45 51 57 56 67 52 48 44 43 42 30 23 20 15 16 22 24 21 17 14 20 22 30 43 52 46
72 74 74 70 68 67 63 62 60 60 60 64 62 57 51 48 45 45 48 50 45 43 50 54 55 60 45 39 38 35 35 16 12 12 14 28 24 19 18 16 8 24 22 29 37 45 45
74 73 72 75 76 75 72 72 69 66 66 66 64 63 56 50 45 45 45 45 35 43 41 50 49 38 31 30 30 23 27 6 2 13 30 23 23 26 18 16 18 23 32 31 22 40 44
74 73 76 77 78 77 76 72 70 68 69 67 69 63 60 54 48 47 45 36 36 45 37 48 37 27 25 26 20 11 15 22 17 28 21 17 21 27 9 15 14 29 35 34 17 29 43
72 75 77 77 71 67 68 60 53 55 52 57 65 67 61 57 49 44 41 32 34 35 41 41 23 18 19 19 9 12 21 22 18 22 17 11 14 23 17 15 10 25 34 28 20 23 28
75 77 74 67 68 66 56 52 48 49 53 58 59 66 58 58 47 46 34 28 42 28 40 23 19 11 8 14 14 11 21 19 18 13 8 6 10 13 5 11 15 17 41 26 25 19 18
77 71 65 63 64 55 50 50 48 50 40 27 29 42 60 57 47 39 26 26 36 29 19 22 12 5 3 6 10 11 15 15 8 7 13 22 19 13 14 8 10 14 29 31 22 10 20
71 67 63 63 54 43 40 38 37 32 32 31 33 31 56 53 44 32 26 31 29 24 18 17 6 5 5 3 3 5 8 11 11 12 21 31 24 19 18 14 13 9 8 11 12 9 17
69 64 59 53 45 38 39 19 12 25 31 29 31 32 51 48 37 31 24 25 25 13 19 8 9 2 6 9 8 7 7 9 10 18 30 25 20 24 22 25 20 18 14 10 15 17 22
67 59 52 48 41 23 9 11 11 21 31 26 23 50 51 42 33 23 24 25 12 12 4 7 11 4 6 8 12 15 13 16 14 22 25 25 27 22 21 25 22 19 14 14 15 19 23
63 55 46 41 20 4 8 24 20 20 10 37 48 48 41 37 30 25 12 8 7 3 4 20 11 7 10 11 10 14 20 21 17 22 23 21 19 22 21 19 23 23 20 20 20 20 17
58 51 44 31 0 2 12 21 17 24 22 37 40 40 38 33 27 14 10 7 6 4 7 25 14 12 13 17 18 27 31 28 21 16 12 11 16 19 17 15 13 10 8 11 12 12 16
53 47 37 5 4 3 8 16 24 30 23 38 40 33 31 27 20 14 1 7 2 14 12 26 16 15 17 21 23 26 26 24 18 17 22 19 19 14 15 13 11 11 11 8 4 4 7
53 45 30 13 8 3 10 23 25 27 42 40 28 29 22 15 18 6 4 2 14 16 19 26 19 20 23 22 24 26 26 20 19 20 22 24 23 18 15 11 8 9 6 6 8 7 8
52 38 14 20 8 6 15 32 29 30 28 22 20 23 20 14 4 1 2 11 15 15 25 26 23 20 24 28 26 23 25 26 20 23 24 24 22 20 17 13 10 9 7 7 6 6 7
47 24 13 22 10 17 21 33 27 27 26 27 29 20 13 9 5 4 6 14 16 16 29 28 26 24 25 27 22 21 21 19 20 20 19 15 14 12 13 11 10 10 10 9 5 5 7
33 6 17 20 24 27 30 38 35 33 27 30 28 20 13 10 7 9 13 17 20 25 28 28 24 24 23 25 18 16 18 16 12 11 9 8 5 5 7 7 8 6 7 8 6 5 5
12 16 22 24 31 34 39 29 41 30 30 29 25 19 16 8 10 14 20 21 25 29 26 32 26 23 21 21 16 13 10 9 6 5 6 5 3 5 5 4 4 4 3 1 2 3 3
14 38 40 34 36 36 31 39 34 35 25 22 19 17 12 13 15 23 26 29 26 25 26 25 30 24 23 21 17 15 13 11 7 5 2 2 1 1 1 1 2 2 2 2 3 5 6
31 47 46 41 41 33 25 33 38 29 23 22 18 16 15 13 20 25 28 29 29 29 25 25 23 25 18 16 15 15 17 19 13 9 7 4 2 2 2 3 5 4 6 6 8 11 13
43 46 38 44 35 23 29 30 27 21 22 19 17 19 14 16 24 28 29 31 31 30 28 26 24 24 21 17 16 13 12 12 13 13 11 8 8 8 8 8 9 11 13 13 13 17 19
45 40 35 35 30 24 19 23 22 22 18 17 17 17 18 24 29 30 29 29 30 29 27 25 23 20 18 16 14 12 10 9 6 9 11 10 8 6 8 8 7 9 10 11 11 12 15
39 34 36 35 25 18 19 22 20 18 16 20 17 20 23 27 31 31 30 29 28 28 25 23 21 21 21 18 15 14 12 9 9 8 6 4 3 4 3 4 5 8 8 9 11 13 15
34 41 37 30 21 19 20 17 17 18 16 18 18 23 27 28 30 30 28 27 25 24 23 21 20 19 17 17 14 13 11 9 7 5 4 3 2 3 5 6 7 8 11 14 16 18 20

GFSGBSN_500_spd_078.txt.gz
Wind_Speed
49 49 50 51 51 53 52 52 52 53 54 54 54 53 51 49 48 47 45 44 42 39 40 42 43 45 51 53 54 51 50 45 45 45 47 51 56 60 60 53 49 51 48 51 51 53 47
53 54 55 55 55 56 58 59 57 54 54 56 56 54 53 52 50 48 47 45 44 42 40 44 44 47 51 53 56 55 53 47 47 48 51 55 57 57 49 42 44 45 50 50 50 51 50
55 57 57 58 59 60 61 59 59 57 56 54 56 56 54 54 52 50 47 45 44 44 42 44 46 49 51 54 54 55 57 53 51 50 50 52 51 44 38 32 33 36 45 46 49 48 50
57 59 60 62 64 65 66 66 61 52 53 54 56 57 55 53 54 51 49 47 44 44 46 47 48 49 52 54 60 61 57 52 51 49 46 45 40 31 19 12 9 14 32 41 41 43 48
60 61 62 62 64 68 67 65 60 58 53 59 60 59 58 57 53 54 51 49 47 44 45 48 47 50 51 52 54 50 46 48 50 48 40 33 27 16 18 15 10 17 19 27 42 44 44
63 63 64 66 65 65 64 65 66 64 60 59 62 64 63 61 56 53 50 51 46 44 43 44 41 45 42 44 40 43 42 45 47 41 26 22 16 17 20 14 8 10 11 15 34 46 43
64 66 65 64 65 67 69 71 72 71 68 64 66 70 68 64 60 53 48 49 44 44 41 36 37 41 45 38 37 39 39 39 33 20 15 9 19 26 19 12 15 3 9 11 25 36 41
69 71 68 69 72 74 75 70 66 62 58 55 55 60 68 67 64 58 50 45 42 43 37 32 37 39 30 27 31 27 24 20 10 5 10 23 23 19 14 13 9 9 17 18 18 31 45
71 70 72 74 75 68 64 63 60 57 59 63 57 51 56 60 59 58 51 46 41 41 32 32 35 24 17 22 16 13 15 10 18 21 18 17 17 17 11 4 12 17 18 21 16 28 40
70 73 75 73 64 64 60 54 53 51 47 43 37 34 34 38 48 54 50 47 43 36 28 33 29 12 11 11 11 13 14 20 21 19 17 9 13 19 18 13 14 19 28 20 17 17 28
73 75 72 65 63 55 52 48 40 36 34 33 34 37 33 36 29 46 47 46 42 27 25 23 14 2 6 11 13 11 14 8 14 15 12 14 16 16 15 18 20 29 23 31 32 22 20
74 73 65 62 54 47 44 37 35 33 29 28 29 31 28 33 38 43 46 44 34 24 24 17 3 2 6 6 10 9 5 7 5 13 20 14 10 10 18 20 16 23 17 19 16 22 18
76 67 63 53 46 40 36 28 10 10 13 19 27 22 21 17 32 44 42 39 26 24 22 5 7 9 7 7 3 4 5 5 10 24 23 11 12 16 14 28 20 19 19 9 7 11 19
73 65 55 49 39 30 18 9 12 20 19 21 22 23 19 17 41 35 36 28 27 20 5 13 11 10 11 7 5 8 7 8 23 28 18 17 22 22 26 24 19 9 9 3 7 22 20
68 59 49 41 27 17 6 15 24 26 18 15 22 21 21 25 40 34 32 23 17 11 19 20 13 14 7 9 8 11 10 13 31 27 17 16 21 20 26 26 19 13 11 16 19 22 20
64 51 50 27 13 5 17 21 22 17 19 28 31 38 46 44 38 31 26 17 15 23 26 21 15 12 11 8 13 16 15 24 27 23 23 21 22 21 22 24 21 17 16 19 24 21 18
60 47 39 5 6 12 12 15 21 30 33 37 42 48 45 42 38 32 23 15 27 25 29 20 18 15 14 15 27 24 24 29 28 25 27 25 21 22 27 23 22 25 20 19 17 16 11
55 47 14 10 12 13 14 24 26 33 30 27 37 40 36 33 28 20 21 33 28 32 29 22 18 17 23 33 30 29 25 19 16 21 23 24 23 21 24 21 19 17 18 19 16 16 12
51 36 13 17 10 14 21 20 29 24 31 29 26 32 29 19 20 23 29 35 29 36 28 23 20 25 30 27 27 26 22 25 26 24 23 22 18 14 18 18 16 16 15 13 12 12 12
39 13 21 19 18 21 17 22 24 32 35 33 22 19 20 23 23 34 37 32 32 39 30 27 25 31 29 28 23 21 25 28 31 33 30 27 22 17 15 16 14 14 15 14 13 10 10
20 20 26 23 27 23 22 28 27 23 22 21 19 17 20 23 31 33 33 30 34 36 31 26 27 31 29 25 29 26 28 29 27 25 23 21 20 17 15 14 15 15 15 14 12 13 11
22 28 26 27 31 32 28 26 20 18 21 24 23 19 12 28 28 33 33 31 36 37 29 27 25 28 26 26 24 23 25 21 18 16 14 13 14 14 15 13 15 15 12 12 14 14 13
34 33 29 31 28 26 25 22 19 21 20 20 19 20 20 23 28 30 26 33 43 40 32 30 27 25 23 23 20 17 13 12 14 13 13 12 13 12 11 11 10 10 10 8 8 7 7
32 29 32 29 20 20 22 24 22 22 20 18 18 20 19 21 24 25 29 37 41 37 33 31 29 24 21 19 16 12 9 5 4 8 8 8 7 7 7 6 5 5 6 6 5 5 6
28 25 24 19 17 20 19 21 18 17 18 18 21 22 20 20 22 28 32 33 34 33 30 29 26 24 21 17 12 8 7 6 3 4 3 3 3 5 3 2 1 1 4 5 6 8 9
24 19 17 17 20 17 18 18 15 15 17 19 21 19 19 18 25 29 34 34 31 29 27 25 24 22 20 16 14 11 12 12 11 10 7 4 3 3 3 4 6 8 8 8 9 11 10
19 18 18 17 15 14 13 11 15 18 18 19 20 20 22 24 26 29 30 31 30 29 27 24 21 18 16 15 14 13 10 8 4 3 2 1 2 2 1 3 4 4 5 6 8 10 12
17 14 15 12 12 13 13 12 13 13 16 18 19 23 25 28 30 30 30 30 30 28 26 24 20 19 17 14 13 12 10 8 7 7 6 4 3 1 0 3 5 7 9 10 12 14 16
19 15 9 7 10 11 13 13 9 10 16 19 20 23 25 26 28 28 27 26 25 24 23 20 18 17 16 14 13 11 9 7 5 3 2 2 2 4 5 7 9 12 14 16 19 21 23

GFSGBSN_500_spd_081.txt.gz
Wind_Speed
59 59 57 56 56 57 58 60 61 62 61 58 55 55 55 55 56 57 58 58 56 53 50 49 48 45 45 45 47 46 46 49 45 50 47 44 44 43 44 46 47 47 50 52 56 60 60
62 61 59 57 58 60 62 62 62 63 62 61 60 55 53 55 57 57 58 58 56 56 51 48 48 47 46 48 47 49 49 49 51 48 48 48 45 42 43 46 45 45 52 56 57 58 56
64 62 62 62 62 62 62 64 66 64 63 62 60 56 52 54 56 58 56 55 55 55 52 48 48 46 46 48 50 48 51 51 52 54 49 46 46 43 42 40 41 47 52 50 51 55 53
63 61 62 64 65 65 65 64 66 65 64 57 58 55 54 55 58 56 55 53 53 53 49 48 48 46 47 45 44 47 48 49 49 48 48 48 44 40 36 34 32 31 32 30 34 45 43
59 62 65 65 66 67 68 68 66 65 63 63 62 58 57 57 59 57 53 50 50 49 48 47 48 46 45 42 40 45 50 46 46 47 48 45 36 29 25 17 8 4 2 3 13 28 37
64 65 65 68 69 69 68 68 68 68 67 67 67 68 66 60 61 60 55 49 49 44 44 45 47 44 40 37 40 47 42 41 44 45 39 29 21 16 10 16 6 7 5 11 15 21 31
64 65 68 69 69 69 70 69 66 62 58 54 54 55 56 53 58 62 60 51 46 44 41 40 41 39 34 37 41 42 39 37 36 32 18 9 7 10 19 12 5 5 10 18 17 23 30
69 70 70 70 72 71 66 61 58 55 53 49 48 46 45 41 43 50 59 54 47 40 43 39 35 31 32 35 35 32 26 24 17 5 5 9 14 21 12 7 10 5 8 6 5 8 30
70 70 72 72 67 61 57 50 42 38 35 32 35 37 35 39 41 37 41 47 45 43 40 36 30 29 31 27 22 14 10 16 17 16 17 13 12 9 7 5 7 4 5 4 4 12 24
71 73 72 66 59 50 38 36 38 38 35 31 26 27 26 26 29 31 36 36 39 39 37 32 25 25 22 12 5 7 16 17 16 11 13 17 11 7 7 5 9 7 14 12 3 14 21
77 74 67 56 46 36 37 34 32 31 30 25 22 20 20 20 18 28 35 31 24 40 32 27 21 19 8 3 6 10 9 14 12 14 13 15 12 12 9 14 17 15 21 15 12 8 13
77 68 55 44 35 35 28 25 24 17 12 19 18 17 17 20 19 24 27 26 31 31 23 18 17 14 12 8 7 6 6 8 11 16 13 8 11 16 14 13 20 21 22 15 26 12 8
73 58 47 35 36 26 22 18 11 13 25 22 20 11 15 20 23 25 26 30 25 22 24 18 10 14 13 10 7 6 2 10 14 11 9 7 10 14 17 14 18 12 12 15 21 16 11
61 54 41 37 21 15 18 27 24 24 27 12 11 17 17 26 25 28 32 27 19 25 20 13 18 15 13 10 8 7 4 19 16 13 7 15 16 20 17 15 10 10 11 18 17 16 20
60 50 39 15 15 26 27 20 24 17 18 13 10 22 26 18 29 35 31 27 22 19 17 23 21 16 12 11 10 8 8 20 17 13 20 23 24 24 22 17 10 4 12 19 19 17 17
56 36 19 18 28 27 24 24 21 21 21 20 26 25 23 40 45 37 32 20 20 17 32 25 21 15 13 12 13 10 13 22 17 12 11 26 21 22 21 14 15 15 24 22 21 22 20
33 27 20 22 31 26 23 20 36 42 50 53 50 52 52 47 41 35 30 19 22 33 28 26 19 17 17 16 17 15 25 19 17 15 20 21 21 22 24 18 17 18 20 18 16 12 18
26 24 20 22 27 31 25 25 33 37 36 44 40 45 40 36 35 29 23 32 39 30 27 24 22 21 27 25 24 28 21 21 26 23 23 29 26 22 23 25 24 20 17 15 12 15 13
30 29 18 28 30 24 27 30 32 30 33 29 33 38 39 29 27 27 32 38 34 30 27 26 29 32 29 27 25 23 22 23 24 23 22 24 23 23 21 19 21 20 21 19 16 15 15
33 26 19 24 30 26 29 30 33 30 26 22 22 15 20 23 29 34 40 37 31 30 29 30 35 32 29 24 22 23 20 22 24 18 17 17 19 15 16 17 17 17 15 15 13 13 12
35 31 24 27 32 29 24 24 22 20 17 16 16 20 22 30 35 39 42 36 31 28 33 34 32 29 26 27 27 31 32 31 26 22 18 16 13 12 11 12 14 14 14 14 12 11 7
31 28 27 26 27 28 23 22 24 27 29 21 20 22 34 37 37 39 41 36 32 30 31 31 31 28 28 28 30 27 24 21 18 16 16 15 13 12 11 10 10 10 9 10 10 10 12
27 26 23 23 23 26 29 27 29 33 29 26 27 29 36 36 36 40 40 37 34 32 33 30 27 30 29 28 24 19 18 18 16 14 12 14 13 13 12 11 10 8 7 6 6 7 8
22 24 26 28 25 28 29 30 33 32 31 30 28 30 34 33 39 42 39 37 36 34 29 28 26 24 20 19 15 12 10 9 12 12 10 9 10 9 8 6 5 5 4 4 4 4 5
18 21 28 26 27 32 32 31 31 32 33 35 34 30 28 28 41 37 36 35 33 31 30 27 25 22 18 14 9 5 1 1 3 6 6 6 6 5 6 5 2 2 2 4 5 7 9
13 17 21 23 27 28 29 31 33 32 31 29 25 28 27 28 33 31 32 32 30 28 25 23 20 17 14 10 7 4 5 4 4 3 4 3 1 2 1 2 1 1 3 3 7 9 9
9 11 17 20 23 24 25 27 28 24 26 28 31 33 33 31 27 26 23 22 21 21 19 18 15 12 9 6 4 4 4 6 4 4 2 4 4 5 6 6 5 5 6 8 7 11 13
6 6 11 15 16 17 21 23 22 22 23 26 29 30 31 32 30 28 27 25 24 23 20 18 14 13 13 10 8 7 8 9 9 8 7 6 5 4 5 6 7 8 9 11 15 17 20
6 4 4 7 10 12 16 19 20 20 21 24 25 26 27 26 25 25 24 22 21 19 18 16 15 14 12 10 9 8 8 6 5 4 3 4 5 6 7 10 12 15 16 18 21 23 26

GFSGBSN_500_spd_084.txt.gz
Wind_Speed
63 66 67 66 67 67 65 62 63 63 64 65 66 67 65 63 62 61 61 60 59 57 56 55 53 52 52 51 51 48 48 48 49 51 48 49 48 46 43 41 44 43 48 51 52 56 58
66 68 68 68 67 65 63 64 64 65 66 66 68 69 70 67 62 61 60 60 59 57 55 54 54 50 49 49 49 47 48 50 50 53 51 50 47 47 45 49 48 46 44 49 52 55 56
69 69 66 62 62 63 64 67 69 69 70 69 69 70 69 68 64 60 57 58 56 54 52 52 52 49 48 47 48 46 47 50 52 51 50 50 51 49 51 53 51 46 43 45 48 49 51
69 64 61 61 63 66 68 70 71 72 72 72 70 67 67 64 61 58 57 56 53 50 47 47 49 45 46 45 44 44 45 48 50 49 51 51 56 60 57 53 47 40 38 37 41 46 47
65 63 63 64 65 67 69 70 70 69 67 66 62 61 60 58 55 53 51 52 44 40 41 41 44 44 43 43 41 40 42 45 47 47 51 56 57 57 53 43 31 21 17 17 13 14 20
65 65 65 67 66 67 69 69 67 64 62 59 55 52 52 51 50 47 47 47 43 42 38 37 39 41 38 35 35 37 39 42 44 48 53 56 55 42 31 21 12 8 3 5 7 11 15
65 67 67 65 70 71 63 57 53 51 49 47 45 43 41 41 43 43 39 31 41 42 46 36 35 35 31 31 31 31 34 40 47 50 51 45 25 10 6 12 6 0 4 6 13 18 20
65 69 68 78 71 59 54 43 33 32 29 29 27 28 29 32 33 31 28 30 28 32 30 34 33 30 28 26 25 28 32 40 42 33 10 5 14 17 12 5 1 4 6 9 12 13 17
68 70 83 70 57 45 30 31 29 31 30 28 26 25 23 20 25 26 22 27 35 33 30 22 21 24 21 20 22 26 29 24 7 5 11 13 11 9 8 4 2 1 3 3 8 9 6
68 79 78 59 41 30 30 29 26 26 22 22 18 14 11 17 26 29 35 23 26 31 29 31 26 19 17 15 18 18 13 2 2 9 14 7 5 3 2 6 9 1 1 9 9 9 12
71 71 66 46 35 28 22 20 20 23 19 10 13 11 7 9 22 29 31 25 22 34 26 20 17 14 11 13 14 7 7 5 7 7 9 11 6 5 7 13 8 5 6 8 12 8 8
65 58 38 29 28 26 24 24 21 18 17 12 11 11 5 9 22 31 30 25 23 25 19 13 14 13 10 10 8 12 6 10 12 7 8 9 8 4 8 15 10 10 12 4 11 10 4
41 36 35 37 37 30 28 23 25 19 13 18 16 6 7 23 23 31 32 34 30 26 20 17 12 8 10 11 13 9 8 16 10 4 6 7 13 17 10 14 12 7 13 10 7 7 4
43 40 39 40 39 38 34 36 32 19 15 11 4 14 18 24 21 30 40 35 21 24 20 16 13 14 15 14 13 7 9 14 8 5 5 6 11 11 12 10 7 5 8 15 6 4 6
42 42 41 42 46 49 47 35 23 25 15 5 17 26 29 30 33 40 44 32 21 26 23 15 24 18 18 11 11 8 12 13 9 4 9 11 17 16 12 8 9 14 20 18 14 18 22
43 40 43 43 43 48 47 56 39 31 31 32 31 38 39 37 42 40 29 10 19 21 21 27 20 17 17 16 13 10 14 16 10 11 16 19 19 13 12 13 15 19 16 14 12 14 19
48 47 46 44 44 43 44 46 48 47 37 36 35 40 44 40 40 38 31 25 14 22 34 24 19 17 20 19 15 14 17 12 7 12 18 16 18 13 13 15 18 15 16 18 19 16 17
46 46 44 44 44 44 43 40 37 41 44 44 43 42 41 37 31 26 20 14 39 30 26 21 20 22 25 23 23 19 15 13 15 19 14 21 20 19 17 19 18 16 19 19 16 18 16
45 46 43 41 40 39 33 27 28 30 34 33 26 30 30 31 27 27 33 36 28 27 24 22 22 24 24 24 24 21 23 21 27 24 20 21 22 22 21 21 19 17 17 15 15 18 17
43 40 42 45 45 43 38 33 24 13 13 20 17 17 25 30 40 39 34 31 27 26 28 30 31 30 26 22 18 16 21 21 20 19 18 18 16 14 17 18 17 17 17 16 16 14 14
44 40 39 45 51 51 44 37 30 20 16 15 17 14 26 43 39 34 31 30 28 32 32 29 27 28 28 25 20 19 17 14 14 13 11 10 10 12 12 11 12 12 12 10 10 11 10
42 42 44 47 47 48 44 38 31 27 22 23 25 25 40 40 36 33 30 30 34 36 31 28 29 31 32 31 31 27 23 18 17 13 12 10 7 7 5 5 4 3 3 3 2 2 1
42 44 45 46 48 50 49 43 43 35 31 32 34 38 38 38 36 34 32 34 33 27 26 27 32 31 29 27 26 22 18 15 12 12 12 12 10 10 10 9 8 7 4 1 2 4 4
38 40 43 45 48 52 55 53 50 47 41 38 40 38 37 35 35 33 33 31 29 27 28 28 29 25 21 18 16 15 15 15 13 9 8 9 9 7 7 5 4 4 4 3 2 1 2
31 35 38 38 43 46 49 47 47 47 44 40 39 35 35 33 34 34 32 28 24 24 26 23 18 17 12 9 8 8 9 8 9 8 7 4 3 4 5 5 2 3 2 0 2 4 5
20 25 28 31 35 39 43 44 45 47 45 41 37 36 29 29 28 25 20 19 17 16 14 14 11 8 5 3 4 6 5 6 6 8 7 7 8 8 8 9 8 9 10 10 8 8 12
14 17 20 22 27 30 34 35 37 38 39 40 39 38 34 28 23 20 17 13 11 12 10 8 7 6 7 7 8 9 10 10 10 10 11 11 11 10 10 10 8 8 8 9 11 14 15
8 9 11 15 16 20 23 27 29 30 31 31 31 30 30 30 28 25 24 19 18 17 15 14 12 13 13 12 12 13 13 12 11 10 9 9 8 8 8 8 10 12 13 14 17 19 21
1 1 4 7 9 11 14 18 20 22 23 24 24 24 23 23 22 21 20 19 18 16 15 14 13 12 11 11 10 9 9 8 8 9 9 9 9 10 11 12 12 14 16 17 19 20 22

GFSGBSN_500_spd_087.txt.gz
Wind_Speed
64 64 64 65 66 65 64 63 62 61 61 62 64 66 67 66 64 63 62 60 58 56 56 58 55 53 52 51 49 49 49 49 48 48 48 49 49 48 48 48 49 45 42 44 44 46 50
67 68 67 67 65 62 61 62 63 64 65 65 65 66 67 67 65 63 61 59 58 57 55 56 54 52 51 50 47 46 47 46 47 46 47 49 50 51 51 52 52 47 45 45 45 50 53
71 68 64 63 63 63 63 63 64 65 68 67 66 63 62 61 62 61 59 54 55 55 52 52 51 48 48 46 44 43 44 44 43 44 44 47 50 51 51 54 53 51 52 49 51 54 53
75 69 64 62 62 63 65 64 60 66 66 67 67 63 58 54 49 48 48 49 46 48 47 50 50 46 45 42 39 40 38 39 40 41 42 46 50 51 54 54 55 57 57 55 54 53 55
70 67 62 61 62 62 64 67 64 63 65 62 57 52 51 47 43 41 38 35 35 31 36 38 40 41 36 38 36 34 34 35 36 38 40 46 49 51 55 54 61 65 61 53 42 41 45
67 63 64 62 66 63 72 58 52 46 36 30 32 37 39 38 35 35 28 33 26 27 32 26 22 27 30 25 29 29 29 30 31 34 40 45 47 50 57 63 56 39 19 14 14 20 21
58 61 61 65 75 69 50 36 27 22 21 21 23 23 19 22 27 27 30 27 22 16 32 25 22 26 23 23 21 22 23 26 30 38 41 44 49 52 45 17 6 9 7 7 13 13 11
48 45 39 41 42 33 30 24 21 23 20 22 20 22 22 16 17 24 29 34 34 28 27 26 27 19 23 19 15 16 20 21 28 33 37 26 12 3 9 8 5 1 1 4 7 15 19
44 43 38 44 39 34 29 23 19 20 18 17 17 13 15 14 16 26 29 34 39 27 23 23 27 22 18 14 12 11 11 15 24 15 1 3 5 3 4 3 5 4 6 5 5 9 8
48 44 43 44 44 38 29 29 23 19 14 12 8 10 5 12 19 30 34 35 23 24 25 22 15 18 16 11 10 8 7 15 8 5 5 3 7 5 2 9 6 8 8 9 7 9 10
49 46 49 49 42 37 31 34 25 22 17 11 6 5 1 7 16 38 40 37 33 22 22 24 23 12 9 11 9 7 6 4 12 4 4 3 2 6 10 8 7 3 3 8 10 9 9
52 51 56 53 53 47 42 34 24 29 14 12 11 4 2 6 25 36 29 30 33 29 24 27 18 14 16 12 13 9 8 15 12 4 2 2 5 9 8 7 8 10 5 7 8 10 8
52 56 58 59 59 57 33 40 29 18 7 4 4 2 5 16 30 32 28 29 28 30 21 27 24 21 18 18 18 13 11 17 10 3 2 8 8 8 10 7 4 7 6 10 5 5 3
52 54 56 58 58 59 56 41 40 25 9 15 12 13 17 35 38 39 35 33 32 26 26 29 29 26 21 21 18 13 15 15 8 2 6 11 9 9 8 8 5 7 12 6 3 4 7
55 56 57 50 49 52 55 54 48 49 31 26 23 28 30 45 45 39 38 21 24 22 30 28 31 26 22 20 15 13 13 11 5 6 11 12 10 6 5 9 13 17 18 12 12 16 19
56 58 59 57 45 42 45 50 55 54 47 42 33 35 46 44 38 29 27 26 16 28 29 27 25 24 19 19 13 11 15 9 8 13 19 15 10 12 12 14 15 13 15 15 13 17 21
54 56 60 51 45 39 33 39 48 53 49 44 43 50 55 41 31 35 30 29 30 26 25 23 22 19 20 16 16 19 15 11 15 18 15 13 13 12 12 17 13 15 15 18 20 19 18
53 54 54 52 46 36 26 29 34 39 42 41 33 29 30 32 35 29 30 33 26 26 23 20 19 20 19 20 22 18 11 14 19 15 13 15 15 14 17 18 18 17 18 18 14 18 18
53 55 53 50 47 40 32 19 26 28 31 30 25 23 27 28 31 42 37 33 27 24 23 23 24 25 25 25 19 14 13 20 17 17 15 17 17 15 14 14 14 12 17 18 17 18 18
56 55 54 51 49 41 37 26 20 14 18 26 17 16 28 39 39 33 31 29 26 26 28 29 30 32 28 21 20 20 20 19 17 17 17 16 14 14 16 15 14 12 15 13 12 14 14
55 57 59 60 57 42 40 41 34 26 28 34 29 35 38 36 32 33 37 38 37 32 31 30 28 24 23 24 24 20 20 17 15 13 11 10 10 10 10 10 11 11 11 11 10 8 11
52 57 62 65 65 57 50 48 43 39 42 43 37 33 36 36 39 41 39 36 34 33 31 29 24 24 23 21 21 21 19 17 14 11 9 7 6 5 5 4 4 5 3 3 4 2 3
44 50 56 61 64 63 62 59 48 47 44 42 41 45 44 42 39 37 35 34 36 37 37 35 33 32 28 24 20 16 15 15 14 13 12 11 9 7 6 5 5 5 3 4 5 4 4
36 41 45 50 55 57 59 59 53 47 45 43 41 40 39 37 34 32 30 32 34 32 30 28 25 21 20 20 19 18 16 13 11 10 10 9 8 6 6 4 6 6 7 8 11 11 13
27 32 35 38 41 45 48 51 54 51 44 42 36 30 31 28 28 26 24 23 23 24 22 19 15 15 13 12 12 11 9 9 8 7 6 6 6 6 6 6 8 8 8 9 9 14 17
18 23 26 29 32 36 38 39 40 42 44 44 43 35 29 26 22 21 19 17 14 11 11 10 10 11 12 11 12 11 10 8 9 10 12 12 13 13 13 13 13 15 15 15 12 13 14
8 13 16 20 23 26 29 32 33 33 34 35 34 34 34 31 27 22 21 17 15 13 14 14 13 12 14 14 14 14 13 15 15 15 14 13 13 12 10 10 10 9 9 10 11 12 14
3 5 8 11 14 16 19 22 24 26 26 27 28 28 27 27 27 25 23 20 19 17 15 15 14 14 14 14 14 13 12 12 12 10 9 9 9 9 9 9 9 9 10 10 11 12 14
4 5 3 5 8 10 11 12 17 18 20 21 22 23 22 22 20 20 19 18 17 16 16 15 14 14 14 13 12 11 11 10 9 9 9 9 9 9 8 9 9 10 11 11 12 12 15

GFSGBSN_500_spd_090.txt.gz
Wind_Speed
71 64 61 63 63 61 58 64 63 57 55 55 56 56 56 57 56 59 62 63 62 58 54 54 53 53 49 48 46 47 47 45 46 47 48 49 49 49 49 49 50 50 49 50 47 46 47
52 48 48 52 52 56 54 57 62 60 59 56 53 50 49 50 48 47 53 59 60 59 58 57 54 55 48 47 46 45 46 45 45 45 47 46 46 48 49 50 52 51 51 50 50 52 51
47 41 42 48 52 60 57 57 58 61 58 56 52 55 54 49 44 43 39 44 50 58 55 52 51 52 49 49 45 44 44 43 43 43 44 44 44 47 48 51 52 52 51 53 57 59 57
40 46 48 47 42 46 47 57 43 43 49 50 54 52 48 50 49 49 45 29 34 40 45 43 45 44 46 45 43 43 39 39 38 41 42 41 42 44 47 50 52 54 56 57 63 64 63
49 52 53 49 42 39 42 35 27 23 23 18 21 23 25 28 31 30 27 33 22 25 30 33 28 34 33 38 36 38 38 37 35 35 38 37 39 41 45 48 51 54 57 61 63 66 65
52 54 53 48 43 40 37 31 22 17 17 14 14 16 14 14 15 19 18 20 21 20 28 26 35 28 34 33 32 31 31 28 27 29 33 33 37 41 45 48 51 55 60 62 55 47 48
53 54 54 52 41 36 31 30 25 21 18 14 12 15 15 14 9 22 25 24 25 27 30 33 23 22 23 22 25 20 17 19 20 24 28 29 32 36 40 43 43 33 17 12 15 19 10
52 54 55 55 48 31 28 34 31 24 20 13 13 14 9 10 9 30 31 40 31 31 24 28 24 26 22 22 19 14 15 14 13 16 17 22 28 24 18 11 7 4 7 7 11 14 17
52 52 55 59 51 31 33 31 33 27 19 13 9 7 8 7 13 40 25 30 34 33 28 27 26 15 14 17 16 14 10 10 11 8 11 17 10 7 7 6 6 5 7 7 7 11 14
57 54 52 58 59 46 29 35 34 12 18 15 10 6 8 6 19 38 42 24 35 25 31 19 27 19 15 18 16 13 13 8 6 7 6 7 6 9 8 7 6 7 4 3 2 6 9
60 67 54 55 59 50 35 35 27 6 8 16 8 6 4 7 20 36 39 29 28 24 23 29 27 27 18 18 16 15 11 11 14 8 5 6 6 5 5 6 3 1 6 6 3 5 5
62 59 51 50 54 52 43 38 22 8 6 2 1 8 8 11 20 43 38 38 28 27 33 35 29 26 23 20 17 16 13 16 14 7 4 5 6 5 3 7 3 6 6 12 7 8 8
62 56 51 45 50 50 51 43 37 22 15 11 13 12 9 19 37 34 35 36 23 25 33 36 30 27 23 19 19 17 13 18 12 4 2 2 6 10 10 4 8 10 9 13 8 10 6
61 53 46 41 45 47 56 47 41 39 32 28 21 20 31 49 40 36 32 29 24 24 22 22 25 25 20 21 17 14 18 16 8 4 6 8 8 8 4 3 4 9 7 1 1 4 6
60 54 46 39 38 41 52 56 52 47 42 45 44 38 42 41 40 39 35 31 30 28 26 28 28 24 23 21 15 16 19 13 6 7 8 10 8 1 5 10 7 9 6 9 8 10 13
56 51 45 34 29 36 40 48 53 49 51 52 43 39 34 37 34 28 28 28 23 21 33 31 29 26 23 16 16 21 16 8 10 11 11 9 8 9 12 10 8 8 6 8 12 13 14
51 50 47 36 28 31 35 37 41 44 42 39 38 32 30 29 29 30 24 24 28 30 33 29 25 21 19 20 23 19 14 15 17 15 9 10 12 11 10 15 15 11 13 16 17 15 18
54 50 48 43 35 28 28 31 33 34 35 34 32 32 32 32 34 36 34 35 30 28 26 25 25 22 25 23 19 12 16 20 15 11 13 15 14 11 11 15 17 15 18 18 16 16 17
61 62 55 52 49 41 35 26 31 25 27 31 28 25 23 25 29 33 30 27 26 28 28 28 29 28 25 19 12 18 22 16 14 13 13 14 14 10 10 13 17 12 17 17 16 17 17
61 65 64 63 65 55 51 46 45 42 39 43 39 35 35 32 31 29 29 31 31 32 34 32 30 25 18 15 19 21 18 17 18 17 16 14 13 11 11 13 12 11 14 14 16 14 15
51 56 62 65 68 66 61 56 51 45 44 43 42 43 41 41 41 41 40 41 40 39 36 30 25 24 25 22 21 19 16 16 14 11 12 13 12 10 9 9 10 10 9 9 11 8 10
41 48 54 57 62 64 62 57 50 46 46 46 42 42 41 39 37 37 36 35 34 30 29 31 29 24 24 23 19 15 13 11 9 8 9 9 7 4 3 2 3 4 2 2 2 3 4
33 38 43 46 51 54 57 56 52 48 45 40 39 37 37 38 38 39 39 38 38 37 34 30 26 25 23 20 18 16 14 11 10 8 6 5 4 4 3 3 2 2 4 5 5 6 7
23 29 34 38 41 46 48 50 49 49 48 44 38 35 34 33 34 34 33 32 31 29 26 24 23 21 19 18 15 13 12 10 10 10 9 8 8 7 7 6 8 9 9 11 12 12 11
15 19 24 31 33 36 40 42 43 43 44 45 41 36 32 27 27 24 23 24 21 19 19 19 16 16 15 12 9 8 7 7 7 7 8 9 8 8 9 11 12 12 11 9 10 13 13
7 10 14 19 26 28 30 34 35 35 35 37 38 36 34 31 30 27 25 23 20 17 18 19 19 18 18 17 15 14 14 13 12 12 11 11 11 10 11 10 10 10 10 9 9 11 11
3 2 5 9 15 20 22 24 27 28 28 29 29 29 29 29 29 27 25 24 24 22 22 21 20 19 19 18 18 18 17 15 15 14 12 11 9 8 8 7 6 7 7 8 8 8 11
9 5 5 1 4 10 15 17 18 22 23 22 23 23 23 23 23 23 22 21 20 20 19 17 17 16 16 15 15 14 13 12 10 9 8 8 7 6 6 5 5 6 7 6 7 8 10
14 11 9 7 5 3 6 10 11 14 16 17 18 19 19 18 18 17 17 16 16 15 15 14 13 12 11 11 11 10 10 10 9 9 8 8 8 7 7 7 8 9 10 10 9 9 10

GFSGBSN_500_spd_093.txt.gz
Wind_Speed
61 53 46 48 49 50 53 53 52 55 55 56 55 58 50 47 46 52 59 54 60 62 60 56 56 56 53 51 50 48 47 47 46 46 45 44 44 45 45 46 47 47 48 49 51 52 54
53 48 51 51 53 55 58 52 49 51 53 50 44 49 49 44 45 40 41 50 42 51 55 53 54 51 51 49 50 47 45 45 45 44 45 44 43 45 46 48 47 47 49 50 51 54 56
52 55 55 52 51 56 58 47 42 40 33 28 30 27 26 38 38 39 35 36 38 35 45 50 49 46 45 49 47 45 43 44 43 42 42 43 43 44 45 47 47 48 49 51 52 56 58
57 59 61 55 54 60 54 40 32 30 24 21 19 14 13 15 23 26 30 32 28 30 35 43 43 46 47 41 42 44 43 40 40 39 40 41 41 42 43 45 48 48 49 50 53 58 60
59 62 59 56 56 59 46 33 26 27 24 25 20 14 13 6 12 15 17 24 27 24 28 35 36 39 39 31 36 40 39 38 37 39 39 40 40 43 43 43 44 45 47 51 54 59 60
63 59 54 54 59 57 40 28 27 27 23 20 14 11 10 9 6 21 24 12 18 21 24 27 31 38 39 47 43 37 34 32 31 31 32 33 34 35 35 35 38 41 44 49 53 61 62
65 64 60 50 58 58 36 30 34 23 20 17 9 8 7 8 5 24 35 39 21 24 34 34 30 24 25 28 29 28 25 23 24 26 24 25 25 25 26 30 35 40 43 43 38 33 25
69 58 60 54 59 54 36 31 26 24 21 9 8 6 5 1 13 33 37 36 34 37 34 37 35 28 24 30 28 21 20 20 16 15 14 15 16 19 25 29 27 23 20 19 18 22 21
70 59 58 55 55 54 42 38 28 19 2 7 5 3 4 5 17 32 34 38 32 38 42 32 32 23 20 29 28 27 22 16 14 12 10 12 14 17 19 16 16 13 14 19 16 16 20
70 63 55 52 54 55 50 37 19 4 5 3 1 2 6 15 20 32 45 39 35 28 24 26 27 29 26 27 26 22 18 16 14 11 11 10 11 11 11 11 7 11 13 16 15 12 15
64 59 50 48 53 59 56 30 26 13 8 10 10 9 4 17 28 32 42 33 37 32 39 33 30 29 27 27 24 22 18 16 15 13 9 10 9 5 3 2 7 6 9 9 17 11 10
62 53 44 44 54 60 61 46 30 24 22 18 15 18 16 20 37 35 45 32 28 30 29 34 29 26 28 27 23 20 16 15 16 12 11 10 7 3 3 3 6 12 18 19 17 17 15
61 50 39 40 49 52 56 60 54 39 34 33 29 27 24 23 36 41 31 26 27 29 31 32 30 27 28 24 20 18 14 18 13 7 6 7 7 9 6 6 12 16 14 13 12 14 10
58 50 36 36 45 47 50 48 50 48 43 40 37 36 34 27 31 35 25 30 30 33 35 34 30 29 23 21 20 17 18 16 10 6 9 14 9 4 6 9 7 5 12 9 8 11 8
61 50 37 35 41 45 43 49 50 43 43 46 41 38 35 33 35 29 28 30 35 37 30 31 29 22 21 19 16 17 18 11 9 14 12 13 6 2 2 3 3 8 10 7 5 6 9
66 61 48 37 36 40 41 38 44 43 43 41 40 36 34 29 24 20 20 23 25 27 28 25 20 23 20 14 17 19 13 11 14 14 14 7 5 6 4 6 6 7 7 7 6 5 5
66 68 60 53 39 38 38 36 33 36 36 35 35 32 29 25 22 22 16 18 23 23 25 22 23 21 20 22 20 14 14 17 15 11 8 8 10 8 8 6 7 10 11 10 8 10 9
62 67 66 62 57 51 45 42 45 32 30 35 36 33 34 32 29 27 27 26 25 28 27 26 23 24 25 22 18 17 19 16 12 12 11 11 12 11 12 14 15 14 15 16 15 16 16
55 59 64 64 59 54 56 50 49 50 47 43 39 37 36 33 31 30 30 31 30 30 27 27 29 25 21 19 23 20 16 15 15 15 14 12 12 12 13 15 18 15 17 17 15 17 17
46 52 56 59 60 56 54 53 49 51 54 49 45 44 40 35 34 34 33 33 35 35 32 28 22 24 29 26 21 18 17 18 18 15 12 11 11 12 12 13 14 12 15 14 16 15 15
39 43 48 52 55 56 52 51 50 45 46 48 47 47 46 45 44 42 39 37 33 29 30 31 32 31 27 22 19 19 18 17 15 14 12 10 10 10 9 8 7 7 8 8 11 9 9
31 36 41 45 48 51 50 51 51 48 46 42 39 39 39 38 38 37 36 36 35 34 32 29 27 24 23 20 17 14 12 11 10 10 9 8 5 3 2 2 3 4 4 3 3 2 2
23 29 32 37 40 43 46 45 44 46 45 43 42 38 37 38 37 38 36 34 32 31 29 26 23 20 18 16 13 11 9 7 6 4 3 2 3 5 5 4 3 1 1 3 5 7 10
14 19 24 27 31 34 38 40 39 40 42 40 39 38 35 33 32 31 28 27 27 26 25 22 20 17 14 12 11 8 7 5 3 3 3 3 2 3 5 7 8 10 11 10 10 11 10
6 10 15 19 23 26 29 32 33 34 34 35 36 34 33 31 30 29 27 25 24 22 19 18 17 14 13 11 10 9 8 9 9 7 6 7 8 9 9 10 9 7 7 5 5 4 4
6 3 6 11 15 18 21 23 26 26 27 28 28 30 29 28 27 27 25 24 23 22 20 20 19 17 15 14 14 13 12 12 10 8 7 6 6 6 6 6 6 6 5 4 3 4 3
11 8 5 2 6 10 13 15 17 20 20 21 21 22 23 24 24 24 23 22 21 21 20 19 18 17 16 15 14 13 12 11 10 9 9 8 7 7 6 6 6 5 6 4 4 3 4
16 12 10 9 4 1 5 7 10 12 13 15 16 17 17 17 17 18 18 18 18 18 17 15 15 14 13 12 11 10 10 9 8 7 6 6 5 4 3 3 3 2 2 2 3 4 5
21 16 14 14 13 10 5 2 1 4 7 8 8 10 12 12 12 12 12 12 12 13 13 12 12 11 11 11 11 11 10 9 8 7 6 6 5 5 5 5 5 5 6 6 8 9 11

GFSGBSN_500_spd_096.txt.gz
Wind_Speed
62 61 61 58 57 55 55 51 50 56 61 59 51 49 49 47 43 47 49 53 59 58 53 65 62 60 61 58 55 52 50 49 47 45 45 46 44 42 43 43 44 44 42 43 45 45 46
61 62 61 65 58 56 56 52 54 60 51 38 32 34 31 26 30 42 38 40 48 52 51 52 61 58 57 58 52 51 50 49 46 44 43 43 42 42 42 42 43 44 44 44 45 48 49
63 62 63 59 55 54 52 57 59 46 32 24 25 26 24 22 25 27 29 40 25 44 46 43 50 53 39 54 45 50 49 46 45 43 41 41 41 40 40 42 44 45 46 47 48 50 52
67 64 63 62 56 57 60 58 41 29 24 22 24 21 19 13 25 29 29 38 30 34 44 40 46 43 45 39 48 48 47 44 43 42 40 39 38 38 38 40 41 43 44 46 49 52 55
71 67 65 55 57 61 61 49 38 27 28 26 20 16 13 10 13 26 23 28 35 25 43 42 34 45 46 31 32 40 43 42 39 37 36 36 36 36 36 37 38 40 41 44 48 50 51
73 66 55 55 59 60 58 44 33 26 27 17 11 9 10 7 6 19 29 19 22 23 39 38 36 39 42 35 32 33 35 37 36 36 34 33 32 31 31 31 33 35 37 40 43 46 49
73 61 52 57 64 65 46 36 27 23 22 14 6 4 4 4 8 17 34 25 19 30 37 40 38 34 38 31 26 30 31 29 29 27 27 25 25 25 25 26 27 30 33 35 42 46 49
67 52 54 57 62 73 48 41 25 7 7 5 2 2 3 5 10 23 33 39 25 38 41 35 38 35 37 40 32 30 25 24 22 20 20 19 18 17 18 21 24 27 31 34 32 32 29
61 49 55 60 61 66 60 42 26 12 14 3 2 3 7 2 10 33 33 33 29 38 38 29 27 34 27 27 29 26 23 20 18 16 15 13 12 14 16 19 22 23 22 21 17 18 26
56 47 54 59 58 62 59 51 32 20 16 11 8 7 7 9 23 26 37 35 32 32 34 31 31 24 25 23 22 20 16 17 17 16 14 13 13 12 13 16 17 14 15 15 15 21 28
56 45 51 55 58 60 61 56 47 29 20 17 12 14 25 43 35 40 35 28 39 29 37 29 27 25 26 27 21 18 19 19 18 17 15 14 10 8 9 10 6 10 12 16 23 28 27
59 45 47 50 55 60 61 61 60 56 46 37 33 34 35 39 33 28 35 30 39 34 32 30 29 27 27 28 26 24 23 19 17 14 12 10 8 5 7 4 5 11 20 24 23 21 21
66 50 44 46 48 54 59 61 53 51 43 40 42 43 39 37 25 24 32 34 36 33 35 30 29 27 29 26 23 20 17 14 15 9 7 6 4 7 5 3 10 14 13 13 11 13 17
70 61 48 46 44 47 51 53 43 40 40 50 46 43 43 35 35 33 26 27 32 33 34 34 32 29 25 24 20 16 16 17 10 6 7 6 9 5 0 6 6 9 12 11 11 14 14
68 70 60 53 48 43 46 47 43 40 37 42 40 40 42 34 30 32 30 27 32 34 30 29 28 23 21 19 16 18 18 11 6 9 13 12 6 3 3 3 6 10 13 9 11 13 11
61 67 64 62 59 49 39 40 42 38 34 30 30 32 29 32 25 27 22 35 32 26 24 24 20 22 18 17 20 17 12 12 14 15 13 9 8 5 3 6 8 9 10 9 11 11 10
55 60 61 59 60 63 52 45 40 38 37 37 36 31 23 28 32 30 30 25 26 26 25 24 22 19 22 23 17 14 18 17 14 12 11 11 9 9 10 9 8 11 11 12 12 11 11
48 53 56 58 56 57 60 59 47 42 39 38 37 35 35 32 27 20 22 25 23 27 26 25 26 28 23 18 21 21 17 14 15 14 15 13 13 13 15 17 15 15 14 15 17 17 16
41 46 49 52 53 53 52 54 54 53 50 44 39 39 38 36 28 25 30 33 33 31 30 27 25 22 22 25 23 18 18 19 18 16 16 15 14 13 14 15 17 16 15 15 17 18 20
33 38 44 46 48 48 48 47 48 47 48 48 47 48 47 45 44 41 38 35 31 27 26 29 31 30 26 21 20 22 22 19 17 16 14 14 14 13 12 13 13 13 13 12 11 13 13
26 31 36 40 43 44 46 46 44 41 41 43 42 42 42 39 36 35 34 35 35 34 34 31 27 25 24 23 22 21 19 16 14 12 11 11 10 9 8 7 8 9 10 9 7 6 7
21 24 29 33 36 39 40 44 46 44 37 37 35 35 37 37 36 35 34 34 34 32 29 26 24 23 22 20 18 15 13 12 9 8 7 5 5 4 6 8 9 9 8 7 6 4 3
15 18 22 25 29 31 34 35 38 40 40 36 37 37 35 32 30 29 29 28 27 25 24 23 20 18 14 13 11 10 8 6 5 2 1 4 7 9 11 9 7 3 2 3 4 4 3
11 12 15 18 21 24 26 29 30 32 36 36 32 32 32 33 31 29 27 24 22 20 18 16 14 11 8 5 3 0 1 2 4 7 7 6 3 2 3 4 4 5 6 5 4 5 5
19 11 9 11 14 17 19 21 23 25 26 28 29 28 28 28 28 29 27 26 24 22 20 18 16 14 10 8 8 8 7 7 7 6 5 5 5 4 3 3 3 1 3 2 3 3 3
19 19 12 7 7 9 12 14 16 17 19 20 22 23 22 22 23 23 22 22 20 20 19 19 17 16 14 13 11 10 9 8 6 5 4 3 2 1 0 1 2 2 2 3 3 4 4
17 19 20 14 7 3 4 7 8 10 11 13 14 15 17 17 17 17 17 17 16 15 14 13 12 11 11 11 10 9 8 6 6 6 6 6 5 5 6 5 6 7 6 7 7 7 8
15 16 16 21 16 11 4 3 3 3 4 6 7 9 10 11 11 12 12 12 11 12 12 11 10 10 10 9 9 9 9 8 7 7 6 7 7 6 6 6 8 7 8 9 9 10 11
16 12 14 15 21 17 16 10 8 7 5 2 2 2 3 6 7 6 7 7 7 7 8 8 8 7 7 7 7 7 7 9 9 9 9 9 9 9 10 9 10 11 13 13 15 16 17

GFSGBSN_500_spd_099.txt.gz
Wind_Speed
76 73 57 48 46 49 52 53 51 47 42 38 35 32 24 24 29 40 42 46 49 54 61 58 59 61 64 63 62 60 57 54 51 49 47 46 45 45 44 43 42 42 43 43 43 43 44
77 63 48 49 54 56 59 55 44 33 29 29 22 18 17 20 25 28 27 36 33 47 53 63 54 53 56 63 62 60 57 53 51 49 46 45 43 44 43 42 41 40 42 43 43 43 44
75 51 49 55 53 56 56 48 38 32 27 25 18 17 17 19 24 20 25 36 34 35 46 50 54 50 46 49 56 57 55 51 50 47 44 43 41 40 40 39 39 39 40 41 42 45 46
67 49 53 56 54 58 52 37 27 19 16 15 15 17 19 19 18 19 27 31 29 29 34 40 49 45 51 50 47 49 48 54 48 46 44 42 39 38 38 37 38 37 37 38 42 44 47
61 52 56 61 61 55 49 34 22 6 8 10 15 20 13 12 10 14 24 31 25 26 28 40 43 37 42 45 44 42 44 41 48 41 39 37 36 36 35 35 34 34 37 39 41 43 44
59 54 58 63 62 56 44 35 18 10 8 4 1 3 6 6 7 10 19 21 20 24 34 46 40 41 38 46 38 33 38 38 38 40 34 32 32 30 29 31 33 34 34 36 38 38 38
57 53 60 65 64 67 39 33 23 20 9 3 8 1 4 7 8 10 18 35 22 28 42 49 46 42 32 32 29 29 29 35 37 34 34 32 30 30 29 29 29 29 30 30 32 33 35
55 52 58 64 65 72 46 30 22 24 20 14 7 3 8 9 3 10 22 24 24 25 40 45 42 30 28 34 28 24 24 24 24 26 24 23 22 22 22 23 23 22 24 26 31 34 37
55 51 56 60 62 69 72 43 29 24 18 15 12 11 13 5 3 24 32 23 28 44 40 37 36 32 31 27 25 24 20 19 17 15 17 18 18 18 17 16 17 20 23 26 29 28 26
57 48 53 57 59 63 66 68 62 42 31 31 34 26 15 17 22 19 25 21 41 36 37 29 26 24 32 28 25 22 20 16 16 17 18 18 16 15 16 15 16 18 20 20 19 21 26
63 46 50 53 55 58 63 61 58 51 56 48 41 44 44 36 35 29 33 37 34 37 38 28 24 24 17 26 27 20 18 18 19 20 18 16 16 14 11 11 13 11 11 14 21 24 25
67 54 44 50 49 46 57 59 66 56 51 47 43 39 39 32 27 28 32 32 29 37 35 26 27 29 26 28 26 24 21 21 20 17 15 13 10 10 8 6 6 7 14 18 18 19 21
65 62 46 43 46 38 45 45 51 52 48 43 39 35 37 33 31 31 30 29 32 33 33 26 26 29 28 22 21 21 18 14 11 10 9 8 7 7 6 2 6 8 9 10 11 13 18
58 63 58 45 42 42 34 37 36 40 43 41 41 38 35 36 35 31 30 32 33 36 34 28 27 26 24 20 19 16 14 14 12 9 8 8 6 5 2 2 3 5 7 7 10 13 12
52 56 59 57 47 41 41 41 38 31 33 40 38 38 38 34 33 34 33 27 34 31 27 24 23 20 17 16 14 14 16 13 10 7 10 12 7 3 4 2 4 7 6 6 6 8 12
47 50 52 54 57 52 43 41 39 34 32 32 35 29 36 42 39 34 22 33 30 29 27 23 21 22 19 17 18 17 14 15 18 18 13 11 7 6 6 6 8 7 7 7 10 10 13
42 47 48 48 51 53 54 48 41 39 37 31 30 30 34 37 29 26 28 27 27 23 22 22 20 20 24 22 18 19 22 19 16 15 14 13 12 14 14 13 11 11 10 10 10 11 12
37 40 46 44 46 47 49 52 52 49 41 36 24 24 35 31 22 17 24 28 29 24 22 26 29 25 22 24 24 20 19 18 18 17 16 17 17 17 17 15 14 12 13 14 15 15 15
31 35 39 42 42 42 45 47 46 47 48 48 42 45 42 36 25 22 26 32 34 33 30 28 29 29 26 23 23 22 19 19 19 17 17 17 16 16 15 14 14 14 13 12 13 14 15
26 29 32 36 40 39 37 38 42 43 44 44 41 43 41 37 35 33 31 31 31 33 33 31 28 27 27 25 23 22 20 19 18 17 16 15 15 13 11 11 11 12 11 11 11 11 10
21 23 27 30 34 36 38 38 37 36 38 39 38 40 40 40 39 39 38 36 33 30 27 27 27 27 25 22 21 18 18 17 16 14 13 11 11 10 10 11 11 12 11 11 11 10 7
16 19 21 24 27 30 33 36 36 36 33 33 34 34 34 35 35 34 31 30 29 27 26 25 23 20 19 18 17 16 14 12 11 8 6 6 8 10 14 17 17 15 12 9 9 8 8
12 13 16 18 20 23 26 29 31 32 32 30 32 32 29 24 24 24 23 23 21 20 19 18 17 16 15 14 13 11 9 7 5 5 7 9 12 14 12 9 8 8 9 8 7 7 6
19 11 10 13 15 17 19 21 23 25 27 28 27 26 27 26 24 21 19 18 15 13 11 10 9 7 6 5 3 2 3 4 6 7 6 5 7 8 8 7 7 5 5 4 4 4 5
15 18 10 9 10 12 13 15 16 17 18 20 22 21 20 20 20 20 20 19 19 19 18 17 16 15 12 12 11 10 10 9 9 8 6 5 3 3 2 2 4 4 4 4 3 4 6
12 14 14 8 9 8 9 10 11 11 12 13 14 15 14 14 14 16 16 15 14 14 13 13 12 11 10 10 8 7 6 5 4 3 2 2 3 4 4 4 5 5 5 6 6 9 9
15 12 11 11 8 10 8 8 8 9 8 7 8 9 10 10 10 10 10 10 10 10 9 9 8 7 7 6 6 6 5 5 5 4 4 5 5 6 6 7 7 9 9 9 11 12 14
14 12 8 12 9 8 13 11 10 10 9 8 5 5 5 5 5 5 5 5 6 7 7 7 6 7 7 7 7 7 7 8 9 9 10 10 10 10 10 11 11 13 13 15 16 16 18
16 15 10 8 10 11 10 13 15 14 15 13 12 8 6 4 4 4 4 4 3 3 3 3 4 4 3 4 4 4 5 6 8 10 12 13 13 14 17 17 16 17 18 19 19 21 22

GFSGBSN_500_spd_102.txt.gz
Wind_Speed
78 57 50 54 59 55 54 47 43 38 25 16 17 21 27 28 28 25 27 34 42 47 45 43 51 52 51 60 54 55 57 55 53 50 48 47 45 45 44 45 45 44 43 43 42 43 42
72 54 55 62 58 58 44 36 35 22 20 10 9 11 14 19 20 17 15 21 33 39 44 42 42 52 51 54 51 41 59 55 52 50 49 47 46 45 45 43 43 43 43 43 42 42 42
66 55 61 63 68 56 38 31 24 12 7 4 4 6 6 10 11 15 18 20 26 29 37 43 45 52 47 51 57 60 56 51 46 49 47 46 44 43 43 42 42 41 41 42 41 41 43
57 59 62 63 77 42 33 28 13 1 4 5 3 6 11 10 13 15 17 17 25 28 27 30 41 44 44 46 49 51 54 54 46 44 44 43 42 42 41 41 39 39 38 38 38 40 42
56 59 62 63 75 37 37 34 23 11 7 2 2 9 15 10 8 9 10 11 33 34 18 25 37 42 40 35 41 43 45 47 48 48 42 42 41 41 40 38 37 36 35 35 36 38 40
55 56 61 65 67 62 38 41 32 24 13 10 4 5 2 5 7 6 3 13 21 25 19 30 40 39 46 35 34 34 36 38 40 42 45 44 40 37 37 34 34 32 33 34 36 37 38
53 52 55 68 63 68 62 39 32 27 25 19 13 4 5 9 5 2 9 21 24 26 26 37 41 43 47 39 36 33 33 32 31 33 36 43 41 37 35 30 28 29 30 33 34 33 33
52 52 48 58 65 67 66 61 56 49 33 18 13 14 7 5 5 8 20 25 18 24 44 34 30 31 43 42 31 33 35 31 29 28 28 27 32 34 33 31 29 29 26 27 27 27 28
55 51 47 50 58 59 60 61 56 59 51 41 37 28 20 11 9 18 23 18 21 36 46 38 32 30 29 26 32 26 25 24 25 25 24 22 20 20 20 21 21 21 23 23 23 25 29
60 51 49 44 49 55 55 55 54 52 47 50 49 33 24 23 25 26 34 37 37 47 42 41 31 33 34 30 29 26 24 22 20 18 19 20 20 20 19 19 18 17 17 20 23 22 21
61 55 49 45 44 46 49 51 53 53 48 44 43 43 43 45 45 44 42 41 44 46 41 34 31 34 31 24 24 24 23 23 19 17 18 18 19 19 17 15 13 14 16 15 15 20 20
59 59 51 48 43 37 44 45 47 46 49 46 44 44 41 43 42 42 47 41 43 37 37 33 30 30 29 26 24 22 17 18 18 18 18 17 15 14 12 11 11 10 9 13 13 12 13
55 58 56 50 46 40 37 44 41 44 46 45 41 42 41 40 42 42 39 35 34 35 33 30 25 26 25 21 19 17 18 16 14 15 14 14 13 11 10 7 4 6 6 8 8 10 13
51 52 56 56 49 45 38 39 38 43 44 44 44 39 39 38 39 35 30 29 33 33 31 28 26 29 25 22 22 19 16 16 14 13 12 11 11 7 7 5 4 2 5 5 7 9 11
47 48 50 53 53 50 39 37 40 37 40 42 43 43 41 35 34 29 26 23 32 32 29 26 24 24 23 22 20 18 17 15 13 11 10 10 11 8 6 4 2 1 2 4 6 6 8
44 44 46 48 50 52 48 36 38 41 34 34 32 37 42 41 35 30 25 29 31 31 28 25 24 24 22 20 18 16 16 16 16 17 15 12 10 8 6 6 5 5 5 5 3 3 7
39 41 42 43 45 47 48 48 39 34 36 32 29 30 39 34 33 24 17 19 27 25 24 23 21 22 22 20 20 20 23 22 19 17 15 15 13 12 12 11 11 11 10 10 9 8 12
33 37 39 39 38 41 44 46 45 43 41 36 27 29 34 31 29 23 28 25 26 28 29 27 25 23 25 25 24 20 20 20 19 17 16 16 15 15 15 14 13 12 13 13 12 11 11
28 30 34 36 36 35 37 40 43 43 41 39 38 40 37 33 34 37 37 35 34 33 32 31 29 26 24 23 23 23 22 21 20 19 17 17 17 16 13 12 11 10 9 8 8 8 9
21 25 28 30 33 33 33 36 36 39 40 39 40 42 41 37 38 37 36 35 32 32 31 29 28 26 25 25 24 23 21 20 19 18 16 15 13 12 11 11 11 11 11 9 6 7 8
16 19 22 24 27 30 31 32 35 33 33 37 36 36 37 35 35 34 32 32 31 30 30 28 27 25 23 22 21 20 18 16 14 13 12 12 12 12 13 16 18 17 13 9 8 8 8
17 13 16 18 20 23 26 27 29 32 30 27 25 28 30 30 29 28 26 26 26 25 24 23 23 21 20 18 16 15 13 12 10 8 9 9 12 11 15 12 8 10 10 10 10 10 9
17 13 10 12 15 16 19 21 22 24 27 28 26 23 21 19 19 20 20 19 18 18 17 17 16 15 14 12 10 8 8 7 6 6 6 8 9 6 8 9 10 9 10 9 9 8 8
9 15 10 7 9 11 13 15 17 18 19 21 22 22 22 21 20 19 16 14 12 11 10 8 7 6 6 3 3 2 3 4 6 9 9 8 8 8 8 6 6 6 8 8 8 8 9
6 7 13 9 6 7 8 10 11 12 13 14 15 17 17 17 17 17 16 15 15 14 13 13 13 12 10 9 9 8 7 6 6 5 5 4 4 5 5 6 6 6 7 8 8 8 11
6 5 8 11 12 9 6 7 7 8 9 10 10 11 12 13 13 13 13 12 11 10 9 8 8 6 6 6 5 5 4 4 5 5 6 7 7 7 8 8 8 9 10 11 12 14 15
9 8 4 7 8 13 12 9 8 6 5 5 6 7 8 8 9 9 9 10 10 10 10 10 9 8 8 8 8 7 7 7 7 8 8 8 9 10 11 13 13 15 15 16 18 20 20
12 11 9 6 6 7 10 13 14 11 9 7 4 3 5 7 7 6 7 6 5 6 7 7 8 9 9 9 9 10 10 10 10 11 11 12 13 14 14 16 15 16 17 19 20 21 22
18 14 12 12 10 7 7 10 12 17 18 14 12 9 6 7 9 8 8 10 10 9 8 8 9 9 10 9 9 9 11 12 15 14 17 15 15 14 16 18 20 22 23 23 24 25 25

GFSGBSN_500_spd_105.txt.gz
Wind_Speed
73 64 65 67 71 51 43 34 24 18 19 13 13 16 16 16 30 29 29 30 34 39 40 38 50 51 52 52 57 60 58 55 53 51 50 48 47 46 45 43 43 42 41 40 39 39 39
68 61 65 64 69 52 45 37 24 12 6 8 9 10 9 12 17 23 24 25 27 34 37 39 35 51 48 47 49 54 56 56 55 52 51 49 46 45 45 45 45 43 43 43 43 43 42
64 59 61 65 69 59 45 38 24 12 3 4 6 4 1 6 10 16 18 18 12 29 36 37 36 34 50 47 45 46 53 54 54 53 51 49 46 44 43 42 43 42 42 43 43 44 45
60 55 60 61 64 65 56 40 19 13 5 3 4 1 4 7 9 8 10 11 15 22 31 35 36 30 34 43 43 42 47 52 53 51 49 47 45 42 41 41 40 40 41 42 40 42 42
58 52 58 56 64 64 64 46 27 19 12 3 5 6 10 9 9 8 10 11 18 27 27 29 35 33 36 42 43 47 36 41 48 51 45 45 42 40 39 39 38 38 38 38 39 39 40
58 53 53 55 61 61 57 60 49 27 18 13 10 6 2 3 9 6 7 11 22 25 29 28 28 37 37 37 39 43 42 39 40 42 46 41 39 37 37 36 35 35 36 36 37 35 37
60 54 48 52 57 59 59 55 57 46 38 30 12 8 3 2 2 7 10 20 36 28 27 34 40 34 39 31 28 35 52 47 39 35 35 39 41 40 38 35 32 31 33 33 34 34 33
62 54 48 47 54 54 59 57 52 53 40 36 33 26 19 13 11 10 11 21 33 24 36 42 39 34 40 32 24 26 31 31 29 28 27 29 30 31 34 37 38 38 37 36 36 36 33
62 57 51 47 49 51 54 55 52 49 49 42 30 27 21 17 16 18 24 22 27 30 33 38 43 38 35 28 29 29 25 20 19 18 19 19 21 22 23 29 31 31 29 27 25 25 26
61 59 52 49 47 47 52 52 50 51 54 47 43 37 37 32 25 25 28 30 38 38 41 36 41 38 28 26 28 34 26 23 20 20 20 20 20 20 20 19 19 19 19 19 20 21 26
59 61 55 48 46 46 49 51 50 48 49 46 44 47 44 49 43 42 44 38 38 44 46 42 36 30 23 24 24 23 22 22 21 20 19 17 19 19 19 19 18 16 16 17 20 22 20
55 58 59 48 48 43 45 49 49 49 49 46 43 47 49 46 42 41 41 42 41 39 37 32 33 29 27 28 25 23 22 23 21 20 20 19 19 18 17 15 14 14 15 16 13 12 14
51 54 56 55 45 42 44 45 45 48 46 43 39 40 44 40 36 33 38 38 37 38 36 34 27 23 22 24 24 23 22 20 16 16 16 15 14 13 13 12 12 10 8 8 9 10 14
48 50 52 54 50 42 35 39 42 47 47 42 43 42 40 42 40 27 27 30 29 30 28 28 26 23 23 22 19 19 17 16 15 14 12 13 12 10 9 8 6 7 6 7 9 11 12
44 45 47 50 52 47 41 35 36 34 40 42 40 41 41 40 40 39 33 29 29 29 29 28 23 22 21 20 18 19 19 17 15 13 11 9 8 6 9 8 7 5 4 5 8 10 10
37 41 42 44 47 49 45 38 35 34 35 36 37 37 36 33 33 37 35 35 35 32 31 28 28 27 23 21 20 19 18 16 14 13 12 12 11 10 7 5 4 3 2 4 4 5 8
32 36 39 38 41 44 47 45 38 34 33 31 29 32 36 34 30 31 31 33 31 30 27 26 26 24 21 18 16 15 15 17 17 15 15 13 11 10 8 8 7 4 5 3 4 5 6
26 31 34 36 34 40 42 43 46 43 40 38 35 39 42 37 31 32 32 33 33 31 28 28 28 28 27 26 26 23 21 18 16 14 14 14 13 14 12 11 10 8 7 6 6 5 5
21 24 27 31 32 32 35 38 38 40 42 41 39 41 41 36 37 38 35 34 33 32 30 27 26 23 22 21 21 20 19 18 17 16 17 17 15 13 10 7 6 6 7 5 4 5 8
17 18 21 24 27 29 30 31 34 34 34 37 36 36 35 34 33 33 33 32 31 29 28 27 26 25 24 23 21 20 19 18 17 17 15 12 9 7 6 8 9 8 7 5 5 8 10
20 13 16 18 21 23 26 28 30 28 28 29 28 29 31 31 31 31 31 31 30 29 28 26 25 23 22 21 19 17 16 14 12 10 9 9 11 12 14 12 9 7 6 5 3 4 6
15 15 11 13 16 17 20 22 24 27 27 26 23 22 23 23 23 23 23 24 24 24 23 22 21 20 18 16 15 13 11 9 8 9 11 11 13 11 7 8 8 9 9 9 8 8 8
12 13 12 9 11 12 14 15 18 19 21 23 24 24 24 22 18 17 17 17 16 15 15 13 12 10 9 8 6 5 5 6 8 8 7 7 8 9 10 10 10 8 11 11 12 13 14
14 11 10 10 8 9 9 10 11 13 15 16 17 18 19 21 21 21 19 19 17 16 15 14 13 13 12 11 11 11 11 11 10 10 9 9 10 10 10 9 10 11 12 12 13 14 15
15 13 12 8 7 8 8 9 6 8 9 11 12 13 14 14 16 16 16 16 15 16 16 16 15 14 13 12 12 11 11 10 9 9 9 9 9 8 9 9 10 10 11 12 12 14 14
17 16 12 11 7 6 8 8 8 6 5 6 6 7 8 9 10 11 12 12 12 11 10 10 10 9 9 9 8 8 8 9 9 10 11 11 11 11 11 13 12 11 13 14 15 16 18
18 16 16 14 11 8 6 7 9 10 7 4 4 4 5 5 6 5 6 7 9 10 10 9 8 7 7 8 9 9 10 10 10 11 10 10 11 12 11 13 12 15 16 18 19 18 20
22 18 17 18 17 14 13 9 7 9 11 12 8 8 8 7 5 5 5 6 8 9 10 9 9 7 6 6 7 8 9 10 11 12 11 10 10 10 11 15 16 19 20 23 25 25 24
22 23 18 17 21 19 17 17 13 10 9 11 13 14 13 13 11 10 9 8 9 8 9 12 14 15 14 11 10 10 11 10 12 11 16 15 15 14 18 19 22 22 24 26 24 21 21

GFSGBSN_500_spd_108.txt.gz
Wind_Speed
76 63 50 53 63 59 59 35 35 23 7 6 6 10 13 17 21 30 33 29 32 36 42 43 40 49 55 53 61 59 59 60 56 52 49 47 46 44 41 40 39 37 35 35 34 33 33
73 61 52 51 64 56 54 41 28 24 11 1 2 6 10 13 14 17 29 35 27 32 41 43 41 43 50 55 51 54 57 58 57 55 52 49 46 45 42 41 41 38 38 37 36 36 37
70 60 53 55 63 56 57 48 26 18 12 4 1 1 3 3 6 10 14 21 24 27 35 38 36 34 49 48 50 45 54 59 56 55 53 50 48 47 44 42 42 41 40 40 39 39 40
68 59 51 55 59 56 55 51 44 23 14 5 5 1 3 6 10 12 12 14 13 19 24 31 32 32 47 41 41 40 45 54 57 52 50 50 47 45 43 42 42 42 42 42 39 41 41
66 58 50 55 57 56 56 51 44 38 19 11 8 3 3 4 5 10 9 14 9 18 26 28 31 31 42 36 38 41 37 38 53 53 49 48 47 45 43 41 40 39 39 39 38 38 38
67 58 49 55 55 54 57 55 48 40 35 18 8 7 5 7 5 8 9 8 13 18 28 31 33 35 32 43 39 28 30 33 36 52 50 44 45 44 42 41 40 37 36 36 37 33 35
68 60 48 54 56 52 55 53 51 46 34 34 23 12 4 7 7 9 9 12 22 23 24 29 34 33 32 38 38 34 29 29 29 36 48 46 41 39 37 36 35 34 33 33 34 32 32
65 60 49 52 54 54 56 55 54 48 41 32 26 26 21 16 12 10 16 30 31 29 33 30 35 34 34 35 33 36 34 29 27 29 32 38 41 42 43 42 40 37 36 37 38 37 35
62 63 51 50 53 55 52 52 54 55 46 41 32 27 23 19 15 23 33 29 32 37 35 25 35 33 31 31 26 31 37 31 31 29 24 25 27 29 30 31 31 31 30 27 27 26 26
60 60 55 45 51 55 53 52 52 54 50 51 48 41 36 32 30 30 33 29 34 42 37 34 32 30 27 23 19 22 27 36 35 26 22 23 24 24 25 24 22 20 21 19 18 19 20
56 57 56 48 44 48 54 53 53 53 48 41 48 44 41 40 37 36 36 34 37 38 42 34 32 29 26 24 26 25 27 26 25 23 20 18 19 20 19 18 16 15 15 15 16 15 18
53 55 56 51 42 44 47 50 51 52 49 45 37 42 42 43 42 40 41 39 37 39 37 31 30 27 26 25 27 25 24 21 18 17 18 19 18 18 17 16 14 13 12 12 14 18 21
50 51 53 52 48 38 40 43 47 47 48 47 49 36 36 38 37 36 37 37 37 41 33 25 21 22 21 22 19 21 19 17 15 15 15 15 14 14 12 10 10 11 12 11 14 12 13
45 47 47 51 48 44 42 40 40 43 43 42 45 46 40 33 35 33 31 31 32 32 32 28 26 24 20 17 18 20 18 18 17 16 13 13 12 11 11 10 9 8 10 10 11 10 8
40 44 44 46 51 46 39 37 36 38 39 39 40 43 41 39 41 38 36 29 31 29 27 27 28 24 25 25 22 22 21 19 18 17 15 13 11 8 6 6 7 8 8 6 4 6 8
36 38 41 40 43 48 48 46 44 42 42 38 38 38 40 39 38 40 39 40 36 33 32 30 29 28 25 25 23 21 20 19 17 16 14 11 9 8 7 7 7 5 3 2 4 3 2
30 33 36 37 35 38 42 44 46 46 47 43 39 38 38 37 35 34 35 36 35 33 29 28 29 28 26 25 22 20 18 17 16 14 13 13 13 10 9 7 5 2 2 1 2 1 1
24 27 30 32 34 31 33 37 39 41 42 42 37 38 40 38 35 35 34 34 32 32 30 28 26 23 22 21 21 21 19 18 16 15 13 12 12 12 10 9 7 4 2 1 2 2 2
22 22 25 26 29 31 29 29 32 35 37 39 36 37 37 36 32 34 34 33 32 30 29 28 27 26 24 22 20 19 18 17 17 17 17 16 14 11 8 4 2 4 5 5 7 7 9
22 18 19 22 24 25 27 27 24 27 29 32 32 33 35 34 34 33 33 32 31 31 30 28 27 26 25 23 22 22 22 21 20 17 14 10 7 5 4 5 5 6 6 6 6 7 9
18 20 14 16 20 22 23 24 25 24 25 28 27 26 28 28 30 29 29 29 29 29 28 28 26 24 23 21 19 18 16 14 13 11 9 8 8 7 7 8 8 8 8 8 8 8 9
16 15 17 11 12 16 19 20 21 22 23 23 27 26 27 25 24 22 23 23 23 22 21 20 18 17 16 14 13 11 10 10 9 8 9 11 11 10 10 10 10 10 12 11 11 11 11
18 13 14 16 10 8 13 16 16 16 17 19 19 23 24 24 25 25 25 23 21 19 17 16 14 13 12 12 11 12 12 13 14 13 11 11 12 12 11 11 12 10 13 13 13 14 14
17 13 12 15 16 9 5 8 12 12 12 13 14 14 15 18 19 20 20 21 20 19 19 19 18 17 16 16 15 15 14 14 13 13 13 12 12 12 12 9 9 9 9 10 11 12 13
17 13 13 15 16 16 10 6 5 9 10 9 9 10 11 12 12 15 15 16 16 16 17 17 15 15 14 13 13 13 12 11 11 10 10 9 8 6 6 7 7 7 9 10 11 14 13
20 14 12 15 17 17 16 11 10 7 7 9 8 6 5 6 8 9 9 10 10 11 11 11 11 12 11 11 11 10 9 8 9 9 8 8 7 8 6 7 8 10 13 15 16 17 20
23 18 13 13 16 19 18 16 14 13 12 10 8 9 10 9 7 5 5 5 5 6 6 7 8 9 9 9 10 10 10 9 8 7 7 8 9 11 10 11 12 15 19 20 21 23 23
24 22 17 14 15 18 20 20 17 16 12 14 16 14 11 11 12 10 9 8 8 7 6 6 5 7 8 8 7 9 9 11 11 12 12 12 13 12 15 18 19 19 21 24 28 27 26
31 26 25 19 19 17 20 22 19 19 18 17 15 14 17 18 16 16 16 14 14 14 12 13 11 9 10 11 12 12 13 13 14 14 18 21 25 23 25 23 29 27 27 30 31 32 29

GFSGBSN_500_spd_111.txt.gz
Wind_Speed
74 52 51 58 61 62 59 52 45 24 18 2 2 4 6 9 19 31 34 35 30 27 35 39 40 41 47 52 51 54 57 58 56 54 51 47 44 41 38 37 35 33 31 30 30 29 29
69 49 52 59 61 61 62 56 40 30 15 6 3 5 5 12 14 18 24 30 30 26 32 37 38 38 36 50 43 32 53 59 57 55 53 50 47 43 40 38 36 35 34 33 33 33 32
66 48 53 58 61 62 62 55 41 35 15 7 2 2 6 9 3 11 17 23 26 24 25 35 37 36 37 46 50 38 38 57 59 54 52 50 46 43 40 39 38 37 36 35 35 34 34
64 49 52 59 62 63 61 55 47 37 31 7 5 3 7 13 11 9 26 28 29 26 23 29 37 34 35 46 56 42 42 47 57 54 51 49 47 45 42 40 39 38 38 36 35 35 35
64 50 51 60 63 61 57 61 51 41 33 19 3 3 3 10 10 14 19 24 26 21 21 25 33 33 38 40 47 53 31 46 53 55 51 50 49 46 43 42 40 39 38 37 36 37 37
65 50 48 59 61 60 58 55 61 47 35 28 8 7 5 5 8 12 15 13 13 16 19 26 27 32 38 38 40 45 51 42 45 53 52 48 47 46 44 42 40 38 37 38 38 36 36
65 50 48 55 58 60 61 56 57 55 39 33 26 11 9 10 10 10 14 12 17 18 22 28 31 29 40 33 33 32 35 34 36 47 51 50 45 43 42 40 39 39 38 38 38 34 36
64 53 47 50 56 59 61 62 54 59 50 39 32 25 19 10 10 10 14 20 19 20 25 28 27 32 36 39 27 29 28 28 31 37 48 49 45 40 40 39 38 37 37 37 36 35 35
62 55 50 50 54 56 58 60 58 54 56 50 39 33 28 22 21 19 25 26 25 27 26 29 28 35 37 34 31 27 34 30 25 28 35 43 43 44 42 39 39 39 38 36 39 40 37
59 56 52 50 50 52 57 56 57 52 52 51 47 35 34 35 33 25 31 39 31 25 32 33 29 26 36 36 27 33 29 27 22 24 26 29 32 38 39 40 39 37 36 33 29 28 27
55 56 52 51 49 49 53 50 53 52 45 47 48 42 35 33 29 29 39 35 33 31 39 32 29 30 31 26 25 33 31 25 26 27 22 19 22 25 26 27 27 27 25 23 21 19 17
52 53 53 53 51 50 49 47 49 51 48 43 40 39 37 38 34 35 36 35 34 37 36 31 28 30 22 22 24 26 26 28 26 23 16 22 23 23 23 21 19 19 18 16 14 13 14
48 49 50 52 55 55 51 46 47 48 48 46 41 38 36 32 34 35 34 32 31 33 29 26 27 24 22 23 28 28 26 24 23 23 23 22 21 20 18 17 16 13 12 11 11 12 13
43 46 46 46 50 53 54 50 44 45 46 47 44 46 36 34 37 35 28 21 18 26 28 26 25 24 21 19 22 21 18 18 20 19 16 16 16 15 15 15 13 11 9 9 10 9 6
39 41 44 43 43 46 49 50 52 49 44 41 41 45 43 37 32 29 27 25 30 30 29 26 23 22 21 21 19 18 21 21 22 23 21 20 18 16 14 12 10 7 6 5 3 3 5
32 36 39 40 40 41 43 45 46 47 48 45 41 39 40 40 37 37 37 39 37 32 30 29 29 30 28 27 25 24 23 22 22 21 20 17 14 10 8 7 6 6 6 5 4 4 3
27 30 33 36 37 37 37 40 43 44 44 43 40 42 43 41 37 35 33 34 35 35 32 34 32 32 29 26 26 23 23 22 20 18 16 14 14 12 10 8 8 5 5 4 4 4 5
27 24 27 31 33 35 35 32 35 37 41 41 38 39 39 39 37 34 36 37 37 36 33 30 30 29 28 26 25 23 22 20 19 18 16 13 11 11 11 10 8 5 3 3 4 6 6
23 23 21 24 28 29 31 33 30 30 32 35 37 39 39 38 35 35 36 35 34 34 33 31 31 29 27 26 24 23 21 20 19 19 19 18 15 11 7 3 1 2 4 6 8 9 9
22 21 19 18 21 25 25 27 29 27 27 28 29 30 33 34 34 34 35 35 35 34 33 31 31 30 29 29 28 27 26 23 20 17 14 10 7 4 2 2 2 2 2 2 2 2 2
22 18 18 17 16 17 22 21 22 24 25 25 27 28 27 26 27 26 27 28 27 27 27 26 25 25 24 22 21 19 17 15 13 10 8 7 7 9 10 11 10 10 9 9 8 6 6
21 17 15 16 15 13 14 18 18 17 19 20 21 22 25 26 27 26 23 22 21 19 18 17 16 15 14 13 12 13 13 14 13 14 14 12 12 11 10 10 9 8 8 7 7 7 8
20 18 15 15 14 14 12 11 15 16 14 14 16 17 18 19 21 22 22 21 22 22 21 20 20 19 18 18 17 16 15 15 14 14 13 12 11 10 9 8 7 6 7 8 9 11 12
20 18 17 14 15 13 13 12 10 12 15 13 12 13 14 14 14 15 17 18 18 18 18 18 17 17 16 16 15 15 15 14 13 12 11 10 8 8 8 6 7 7 8 9 11 13 14
23 19 18 16 14 15 12 12 11 10 9 12 13 11 10 10 10 10 11 11 12 13 14 14 14 14 13 13 12 11 10 9 9 8 7 5 5 5 4 4 5 7 11 13 15 18 17
26 22 21 18 16 15 15 11 10 11 11 10 9 11 12 11 10 9 7 7 7 8 8 9 8 8 8 8 7 7 6 5 5 5 5 5 6 7 5 7 10 11 13 16 18 16 20
27 27 24 21 18 18 16 16 11 10 11 10 11 11 12 13 12 12 12 11 9 7 8 6 4 4 4 4 4 5 5 4 4 6 7 7 8 10 11 11 11 19 18 19 20 20 21
32 26 27 24 21 21 21 18 19 15 12 12 11 9 10 13 14 15 15 15 15 14 12 12 11 12 10 9 8 8 8 10 11 12 14 15 15 15 17 19 19 20 20 22 24 27 27
36 31 30 30 30 27 25 24 21 21 19 17 16 15 13 11 9 12 15 18 17 18 18 18 17 17 17 18 17 16 17 17 17 15 21 20 23 24 27 24 29 26 25 27 27 28 29

GFSGBSN_500_spd_114.txt.gz
Wind_Speed
67 48 50 56 63 59 58 61 45 28 17 7 5 3 2 2 9 26 36 33 24 14 26 31 39 45 52 64 41 42 49 56 55 54 52 49 46 41 39 36 34 33 31 28 26 25 24
64 49 51 56 63 63 58 62 45 27 21 7 3 3 5 5 12 20 23 24 25 20 20 30 31 32 48 63 48 31 51 52 55 54 52 50 46 43 40 38 37 35 33 30 29 28 27
63 53 50 57 61 64 59 64 47 33 24 5 3 6 9 15 6 12 17 17 26 26 23 27 30 32 42 56 52 45 45 55 53 52 50 48 45 42 40 37 37 37 35 33 32 31 31
62 55 54 59 60 64 60 65 50 36 27 9 4 5 12 18 8 6 14 16 22 27 24 28 33 34 34 51 51 34 34 43 53 53 52 49 47 44 42 39 38 37 35 34 34 33 33
60 56 54 58 61 64 58 64 59 42 34 18 15 13 10 16 18 15 21 24 19 25 27 29 35 33 35 34 41 38 31 45 52 52 53 51 48 45 44 42 40 38 36 34 34 33 33
61 57 54 58 58 63 58 62 64 49 39 27 15 11 10 14 17 19 22 25 25 23 23 26 36 37 39 38 49 40 29 33 49 53 53 51 48 45 44 43 40 38 37 36 35 34 34
62 60 59 58 57 60 61 57 62 60 50 34 17 15 17 14 13 15 16 13 12 15 20 22 32 33 37 42 60 33 31 33 39 49 50 49 47 45 43 42 41 40 39 38 37 36 35
60 60 62 59 56 55 62 56 58 59 55 47 32 15 11 12 11 8 16 16 21 27 34 22 28 28 29 36 41 52 31 33 37 45 48 48 44 44 42 40 40 39 39 38 37 37 37
58 59 62 61 56 54 57 59 56 55 53 53 44 34 22 16 17 21 22 23 25 34 26 20 31 30 25 22 22 33 38 31 29 36 43 46 45 40 40 40 39 38 37 37 37 37 36
56 57 59 62 59 55 56 57 55 53 50 52 48 37 36 35 35 32 29 26 27 31 27 30 30 28 27 27 26 28 25 32 34 31 38 41 44 44 41 40 40 38 38 37 36 37 38
52 54 54 57 60 59 53 54 56 52 48 46 48 42 41 38 36 32 31 33 32 30 30 25 22 33 28 24 30 30 29 22 27 31 33 35 36 38 41 41 40 39 38 38 36 33 31
48 50 50 52 55 57 59 52 51 54 47 44 42 41 42 43 40 34 34 31 27 26 26 26 31 26 19 30 28 30 24 22 22 25 28 29 29 30 31 31 30 29 29 28 27 25 23
42 47 47 47 49 52 54 56 51 49 51 43 40 38 34 35 38 35 31 27 25 28 28 28 27 21 21 28 30 28 25 25 28 26 23 25 24 25 24 24 24 24 23 20 18 18 17
38 42 45 45 44 47 49 52 53 51 46 46 45 38 34 31 28 25 25 29 26 26 25 22 21 22 23 24 27 22 20 23 21 15 20 21 19 21 21 20 19 19 17 17 16 14 14
32 37 40 43 41 40 44 46 49 49 49 45 41 41 40 37 32 32 29 26 30 30 29 25 23 24 26 25 22 23 22 22 20 19 18 18 18 18 18 17 16 14 11 11 8 6 6
29 30 34 38 40 38 37 41 44 46 46 45 45 45 41 37 36 35 33 37 35 32 32 29 27 26 24 24 24 24 22 21 20 20 19 17 17 16 15 13 10 8 8 8 8 9 8
27 26 29 31 35 38 36 33 36 41 44 44 43 42 43 42 41 37 33 36 36 34 32 33 33 34 32 31 29 28 27 26 25 24 22 19 16 13 11 11 13 11 10 9 8 9 9
25 25 23 26 29 32 34 34 30 31 35 39 40 40 42 41 39 37 37 37 37 36 35 34 33 31 29 27 27 25 24 23 23 22 21 20 18 16 15 12 10 9 8 8 7 7 5
27 22 23 20 23 26 28 31 32 30 28 29 32 34 36 37 36 36 37 37 35 35 34 33 32 32 31 29 29 27 26 24 22 21 21 20 17 14 11 8 6 4 4 5 5 6 7
26 25 20 20 18 20 22 25 27 28 28 27 26 26 27 28 29 30 31 32 31 32 32 31 32 31 30 30 30 28 26 24 21 18 15 12 9 7 5 5 3 2 2 2 1 2 1
22 23 22 18 17 15 16 18 21 23 24 24 24 24 25 23 23 22 22 23 23 24 24 24 24 23 22 21 20 18 16 14 12 10 9 10 11 11 11 12 11 9 7 5 4 4 5
23 21 21 19 15 14 12 12 14 17 19 21 22 21 21 21 21 22 23 23 23 22 21 19 16 14 14 14 14 13 12 14 16 14 13 12 12 11 10 8 7 6 5 5 6 7 8
23 20 19 19 19 12 11 10 10 10 12 15 17 18 17 17 18 18 18 19 20 19 19 19 18 17 16 16 15 14 14 13 13 12 11 11 9 7 7 6 6 5 6 6 6 8 9
23 21 18 18 17 18 10 9 8 8 8 8 9 12 14 15 15 15 15 15 15 16 16 15 15 15 14 13 12 12 11 11 10 10 9 8 7 6 5 4 4 3 5 6 9 10 11
25 23 20 18 16 17 17 10 8 7 8 7 7 5 7 9 12 12 11 12 11 11 11 11 11 11 10 10 9 9 8 7 7 6 5 3 2 0 0 1 2 4 6 8 9 13 12
28 26 22 21 18 15 17 17 13 9 7 9 9 9 7 5 5 7 9 10 10 9 7 7 6 6 6 5 5 5 4 4 4 4 3 3 4 6 6 7 8 11 12 13 15 16 17
31 29 27 24 22 18 16 18 18 15 13 10 10 11 13 12 9 7 7 7 8 9 10 10 9 8 8 8 7 7 7 7 8 10 11 11 10 13 14 14 14 19 23 23 23 21 23
35 33 31 27 25 22 19 17 21 19 18 19 14 12 11 11 13 14 13 13 12 12 11 12 11 12 12 12 13 14 13 14 14 15 17 18 20 21 21 23 25 27 27 28 29 29 33
37 36 35 31 27 27 25 23 19 24 22 22 23 20 19 16 14 13 13 15 16 17 18 18 17 17 17 16 16 17 19 19 21 20 24 24 28 28 30 27 34 33 29 31 32 36 37

GFSGBSN_500_spd_117.txt.gz
Wind_Speed
66 60 56 54 63 57 61 62 40 30 20 7 5 9 9 8 2 11 18 25 16 20 23 23 42 66 78 42 36 30 46 59 56 54 51 48 46 41 38 37 37 35 35 34 31 29 29
64 60 53 53 65 58 62 63 44 30 17 7 8 9 9 9 10 9 15 24 25 8 20 23 36 56 72 60 34 30 37 56 59 54 51 48 46 43 40 39 37 35 34 32 30 28 27
63 62 54 54 62 59 61 64 53 33 18 13 11 12 15 14 9 13 17 16 25 14 16 22 26 43 61 53 44 36 39 45 57 53 51 48 46 44 40 37 36 35 34 33 31 29 27
62 64 57 54 61 61 61 64 56 35 20 12 13 12 18 16 7 5 15 15 14 14 17 21 23 36 53 59 48 32 32 50 57 54 52 48 46 45 41 38 37 37 35 33 32 31 29
62 66 60 57 62 62 61 62 58 42 15 17 15 14 20 20 17 9 16 13 15 15 17 21 26 35 46 68 46 36 34 39 53 55 51 49 47 45 43 40 38 37 34 33 32 31 31
61 63 65 58 61 63 59 60 60 50 27 16 19 19 18 20 18 14 23 21 20 21 21 24 27 29 43 52 47 26 27 41 45 52 52 50 47 44 43 41 38 35 33 33 33 32 32
58 61 63 60 59 63 57 59 61 53 44 26 21 22 21 20 21 19 16 18 24 24 18 21 29 27 28 45 52 21 30 32 39 47 49 48 46 44 42 40 38 36 35 34 33 32 32
56 58 60 63 56 61 58 55 58 54 49 44 33 27 24 25 24 17 12 13 15 19 23 23 26 28 28 40 45 34 28 35 39 43 48 47 45 43 41 40 39 37 34 34 34 34 34
53 54 57 60 61 56 60 52 53 55 52 49 44 41 38 36 32 28 30 38 31 20 21 23 27 26 29 43 42 34 24 30 33 42 47 44 42 41 40 38 37 37 36 35 35 35 35
49 51 53 57 59 59 54 54 48 48 50 50 49 44 40 38 35 35 35 32 28 26 34 28 23 23 24 29 35 27 24 28 33 42 44 44 41 40 39 37 37 36 36 36 36 35 35
44 48 50 53 55 57 57 50 50 45 43 44 43 43 40 38 38 34 32 32 30 28 27 28 26 21 18 14 34 31 30 23 24 29 40 40 42 41 39 37 36 36 36 36 35 36 37
40 44 46 49 52 55 56 56 49 48 46 40 36 36 35 33 31 30 28 26 23 21 24 26 24 22 28 27 23 29 21 25 21 22 27 36 38 40 42 41 39 38 38 37 37 37 35
36 39 42 45 47 51 53 54 53 51 44 45 38 37 30 27 26 25 29 27 25 30 29 25 22 26 28 28 29 26 19 25 27 25 27 31 34 37 37 37 37 36 35 33 31 29 27
32 35 38 41 44 44 48 51 52 52 51 45 44 39 35 31 26 26 24 26 23 23 19 17 20 19 23 26 25 27 21 23 25 25 25 29 27 28 29 28 26 26 25 24 22 20 19
31 31 33 37 41 42 41 44 46 49 49 48 44 43 44 40 32 30 25 21 25 27 25 22 22 20 21 23 22 23 25 25 19 20 23 23 21 23 21 21 19 17 16 18 18 18 19
27 29 30 32 35 40 40 38 40 43 45 46 45 44 40 39 39 36 32 29 26 25 25 26 26 25 21 19 16 17 20 14 13 16 18 18 16 17 17 17 15 13 15 12 14 12 12
31 24 26 27 30 32 37 37 36 35 38 40 42 42 42 42 39 37 33 35 36 35 33 31 27 26 25 24 22 20 19 19 20 20 19 18 18 15 14 12 13 12 13 11 9 10 10
28 27 22 23 24 27 30 33 35 36 32 33 34 36 39 40 38 35 35 36 36 34 32 30 31 32 33 31 29 26 25 25 26 25 23 21 20 18 16 15 15 13 12 10 9 8 9
27 26 22 20 20 21 24 27 30 32 33 31 28 29 31 32 33 33 34 33 33 32 32 32 31 31 30 28 27 26 25 23 22 20 20 20 20 18 15 12 10 10 8 7 7 6 7
25 24 24 18 18 17 17 20 23 26 28 29 29 28 27 24 24 25 27 29 29 30 30 30 30 29 28 27 27 26 25 23 22 20 18 17 14 13 11 9 8 7 6 4 3 3 3
23 23 20 21 15 16 14 14 16 18 21 24 26 27 26 25 24 22 21 20 20 20 21 21 21 21 21 20 19 18 16 14 12 11 9 9 9 9 8 9 9 9 8 5 3 2 1
21 22 21 19 20 14 14 12 10 12 14 15 19 21 24 24 24 23 21 21 20 20 18 17 14 13 12 11 10 9 10 12 14 13 13 13 12 11 10 10 9 7 5 3 2 2 4
21 20 20 18 18 17 12 13 11 7 8 10 11 14 16 19 20 21 20 19 18 18 17 17 16 15 14 13 13 12 12 11 11 11 10 10 9 8 7 6 5 4 2 1 3 6 7
22 21 20 18 17 18 15 10 12 12 8 6 5 6 7 10 12 14 16 16 16 16 16 15 15 14 14 13 13 12 11 10 9 8 8 6 5 4 3 2 2 2 3 4 7 9 9
24 22 22 20 18 17 18 14 10 11 12 10 9 6 4 3 4 5 7 9 11 11 11 11 11 11 10 9 9 9 8 7 7 5 4 3 2 2 3 5 7 8 9 10 11 19 16
27 25 23 23 20 19 17 17 13 10 12 13 12 12 10 7 6 4 2 1 2 3 4 5 6 7 7 7 6 6 4 4 5 6 6 7 8 8 8 9 12 15 17 17 20 23 25
27 27 27 25 23 21 20 19 18 14 10 12 14 14 13 12 12 11 10 9 7 7 6 5 5 5 5 6 7 8 9 9 9 10 12 12 13 16 17 17 18 22 22 24 27 28 29
29 27 28 28 25 23 22 23 21 19 18 13 13 15 16 16 14 12 13 15 16 16 14 14 12 11 11 11 11 12 12 14 15 17 19 19 22 24 23 23 25 27 30 34 33 33 34
33 29 29 31 29 27 24 25 25 24 21 22 18 17 17 19 18 17 18 18 17 16 16 18 18 19 18 18 18 17 18 19 19 18 23 23 28 25 26 27 27 24 24 27 26 26 28